<?xml version='1.0' encoding='UTF-8'?><gpx version="1.1" creator="JPX - https://github.com/jenetics/jpx" xmlns="http://www.topografix.com/GPX/1/1"><trk><trkseg><trkpt lat="47.14436903511606" lon="3.2037115135151697"><ele>207.99999999999997</ele><time>2026-04-25T14:24:56.999Z</time></trkpt><trkpt lat="47.14436746728067" lon="3.203612154277294"><ele>208.0</ele><time>2026-04-25T14:25:25.999Z</time></trkpt><trkpt lat="47.14435163959564" lon="3.203520309341047"><ele>208.0</ele><time>2026-04-25T14:27:20.999Z</time></trkpt><trkpt lat="47.14434807178258" lon="3.2033950527050736"><ele>208.0</ele><time>2026-04-25T14:27:22.999Z</time></trkpt><trkpt lat="47.144329779177326" lon="3.203271222322133"><ele>207.99999999999997</ele><time>2026-04-25T14:27:23.999Z</time></trkpt><trkpt lat="47.14430279863906" lon="3.2031351789683726"><ele>208.0</ele><time>2026-04-25T14:27:24.999Z</time></trkpt><trkpt lat="47.144260789275506" lon="3.202992632043689"><ele>209.0</ele><time>2026-04-25T14:27:25.999Z</time></trkpt><trkpt lat="47.14419943045607" lon="3.202857839155296"><ele>210.0</ele><time>2026-04-25T14:27:26.999Z</time></trkpt><trkpt lat="47.14413050942384" lon="3.2027380696178795"><ele>211.0</ele><time>2026-04-25T14:27:27.999Z</time></trkpt><trkpt lat="47.14406977945447" lon="3.2026268272193064"><ele>212.0</ele><time>2026-04-25T14:27:28.999Z</time></trkpt><trkpt lat="47.14401956713437" lon="3.2025233242010387"><ele>213.0</ele><time>2026-04-25T14:27:29.999Z</time></trkpt><trkpt lat="47.14397770887637" lon="3.2024088515807705"><ele>214.0</ele><time>2026-04-25T14:27:30.999Z</time></trkpt><trkpt lat="47.14394045133679" lon="3.202297776152256"><ele>215.0</ele><time>2026-04-25T14:27:31.999Z</time></trkpt><trkpt lat="47.14391044419218" lon="3.202187729990252"><ele>216.0</ele><time>2026-04-25T14:27:32.999Z</time></trkpt><trkpt lat="47.143887831969344" lon="3.2020700970391123"><ele>217.0</ele><time>2026-04-25T14:27:33.999Z</time></trkpt><trkpt lat="47.14387691198232" lon="3.2019456294720805"><ele>218.0</ele><time>2026-04-25T14:27:34.999Z</time></trkpt><trkpt lat="47.143859548047885" lon="3.201821116809353"><ele>219.0</ele><time>2026-04-25T14:27:35.999Z</time></trkpt><trkpt lat="47.143840448355846" lon="3.201700405518571"><ele>219.0</ele><time>2026-04-25T14:27:36.999Z</time></trkpt><trkpt lat="47.14381266348677" lon="3.201587698857332"><ele>218.99999999999997</ele><time>2026-04-25T14:27:37.999Z</time></trkpt><trkpt lat="47.14376336300085" lon="3.201471082366564"><ele>218.99999999999997</ele><time>2026-04-25T14:27:38.999Z</time></trkpt><trkpt lat="47.143711798203135" lon="3.2013494162873277"><ele>219.0</ele><time>2026-04-25T14:27:39.999Z</time></trkpt><trkpt lat="47.14365321863885" lon="3.201235895098862"><ele>219.0</ele><time>2026-04-25T14:27:40.999Z</time></trkpt><trkpt lat="47.14359588712588" lon="3.2011209452549454"><ele>219.5</ele><time>2026-04-25T14:27:41.999Z</time></trkpt><trkpt lat="47.14353990709136" lon="3.201011449126215"><ele>220.0</ele><time>2026-04-25T14:27:42.999Z</time></trkpt><trkpt lat="47.14350119221569" lon="3.2009149906532066"><ele>220.5</ele><time>2026-04-25T14:27:43.999Z</time></trkpt><trkpt lat="47.143452185879255" lon="3.200815685144436"><ele>221.0</ele><time>2026-04-25T14:27:44.999Z</time></trkpt><trkpt lat="47.14340484378074" lon="3.200738127840953"><ele>221.5</ele><time>2026-04-25T14:27:45.999Z</time></trkpt><trkpt lat="47.1433529070804" lon="3.2006560652358353"><ele>222.0</ele><time>2026-04-25T14:27:46.999Z</time></trkpt><trkpt lat="47.14328104508357" lon="3.200583471506044"><ele>222.0</ele><time>2026-04-25T14:27:47.999Z</time></trkpt><trkpt lat="47.14326209608357" lon="3.2004639894091493"><ele>222.0</ele><time>2026-04-25T14:27:48.999Z</time></trkpt><trkpt lat="47.143214590372345" lon="3.2003813036407793"><ele>222.0</ele><time>2026-04-25T14:27:49.999Z</time></trkpt><trkpt lat="47.14315240494524" lon="3.200288403901236"><ele>222.0</ele><time>2026-04-25T14:27:50.999Z</time></trkpt><trkpt lat="47.143102559990204" lon="3.200215117723886"><ele>222.0</ele><time>2026-04-25T14:27:51.999Z</time></trkpt><trkpt lat="47.14305229679637" lon="3.2001508940349512"><ele>222.0</ele><time>2026-04-25T14:27:52.999Z</time></trkpt><trkpt lat="47.14299415662763" lon="3.2000770702509387"><ele>222.0</ele><time>2026-04-25T14:27:53.999Z</time></trkpt><trkpt lat="47.14293082962648" lon="3.199949164559773"><ele>222.0</ele><time>2026-04-25T14:27:55.999Z</time></trkpt><trkpt lat="47.14287945569844" lon="3.199790888340003"><ele>222.0</ele><time>2026-04-25T14:27:57.999Z</time></trkpt><trkpt lat="47.142860453926325" lon="3.1996942922894958"><ele>222.0</ele><time>2026-04-25T14:27:58.999Z</time></trkpt><trkpt lat="47.142825588398274" lon="3.1995977438767165"><ele>222.0</ele><time>2026-04-25T14:27:59.999Z</time></trkpt><trkpt lat="47.142810671102154" lon="3.199485704756598"><ele>222.0</ele><time>2026-04-25T14:28:00.999Z</time></trkpt><trkpt lat="47.14278204539824" lon="3.199364750666484"><ele>222.0</ele><time>2026-04-25T14:28:01.999Z</time></trkpt><trkpt lat="47.14277333791655" lon="3.1992298401085604"><ele>222.0</ele><time>2026-04-25T14:28:02.999Z</time></trkpt><trkpt lat="47.14274851008072" lon="3.1990902746416805"><ele>222.0</ele><time>2026-04-25T14:28:03.999Z</time></trkpt><trkpt lat="47.142703632723375" lon="3.198945247953894"><ele>222.0</ele><time>2026-04-25T14:28:04.999Z</time></trkpt><trkpt lat="47.14267483104242" lon="3.1988058429055415"><ele>222.0</ele><time>2026-04-25T14:28:05.999Z</time></trkpt><trkpt lat="47.14266196182238" lon="3.198675159404065"><ele>222.5</ele><time>2026-04-25T14:28:06.999Z</time></trkpt><trkpt lat="47.1426357702682" lon="3.1985823372846323"><ele>223.0</ele><time>2026-04-25T14:28:07.999Z</time></trkpt><trkpt lat="47.14260279483784" lon="3.1984990364942454"><ele>223.5</ele><time>2026-04-25T14:28:08.999Z</time></trkpt><trkpt lat="47.14254388263498" lon="3.198403543590964"><ele>224.0</ele><time>2026-04-25T14:28:10.999Z</time></trkpt><trkpt lat="47.14249297672167" lon="3.198347322043433"><ele>224.5</ele><time>2026-04-25T14:28:13.999Z</time></trkpt><trkpt lat="47.14254090857409" lon="3.1981439405718017"><ele>225.0</ele><time>2026-04-25T14:28:15.999Z</time></trkpt><trkpt lat="47.14258533889563" lon="3.198024266964819"><ele>225.0</ele><time>2026-04-25T14:28:16.999Z</time></trkpt><trkpt lat="47.142636564501146" lon="3.1978712759871524"><ele>225.0</ele><time>2026-04-25T14:28:17.999Z</time></trkpt><trkpt lat="47.14268338341032" lon="3.1977127624179724"><ele>225.0</ele><time>2026-04-25T14:28:18.999Z</time></trkpt><trkpt lat="47.142722149777406" lon="3.1975268823321588"><ele>225.0</ele><time>2026-04-25T14:28:19.999Z</time></trkpt><trkpt lat="47.14278990268812" lon="3.197362657342349"><ele>225.0</ele><time>2026-04-25T14:28:20.999Z</time></trkpt><trkpt lat="47.14284658154817" lon="3.1971754752289865"><ele>225.0</ele><time>2026-04-25T14:28:21.999Z</time></trkpt><trkpt lat="47.14290331794291" lon="3.196955157335786"><ele>225.0</ele><time>2026-04-25T14:28:22.999Z</time></trkpt><trkpt lat="47.142970629000175" lon="3.196745842578709"><ele>225.0</ele><time>2026-04-25T14:28:23.999Z</time></trkpt><trkpt lat="47.14302547967215" lon="3.196569919738391"><ele>225.0</ele><time>2026-04-25T14:28:24.999Z</time></trkpt><trkpt lat="47.14307934252372" lon="3.1963386459718874"><ele>225.0</ele><time>2026-04-25T14:28:25.999Z</time></trkpt><trkpt lat="47.143135977134655" lon="3.196122044347625"><ele>225.66666666666669</ele><time>2026-04-25T14:28:26.999Z</time></trkpt><trkpt lat="47.14319314194108" lon="3.1959062283146986"><ele>226.33333333333334</ele><time>2026-04-25T14:28:27.999Z</time></trkpt><trkpt lat="47.143242776729814" lon="3.195680354527378"><ele>227.0</ele><time>2026-04-25T14:28:29Z</time></trkpt><trkpt lat="47.14328996355754" lon="3.195459292081532"><ele>227.66666666666669</ele><time>2026-04-25T14:28:30Z</time></trkpt><trkpt lat="47.14333469875424" lon="3.195253852391605"><ele>228.33333333333331</ele><time>2026-04-25T14:28:31Z</time></trkpt><trkpt lat="47.14336935734011" lon="3.195035667025988"><ele>229.0</ele><time>2026-04-25T14:28:32Z</time></trkpt><trkpt lat="47.14342210758924" lon="3.1948116689480925"><ele>229.0</ele><time>2026-04-25T14:28:33Z</time></trkpt><trkpt lat="47.14346988975812" lon="3.194603656841143"><ele>229.0</ele><time>2026-04-25T14:28:34Z</time></trkpt><trkpt lat="47.143519096731055" lon="3.1944206642246287"><ele>229.0</ele><time>2026-04-25T14:28:35Z</time></trkpt><trkpt lat="47.143565996306755" lon="3.1942599614668974"><ele>229.0</ele><time>2026-04-25T14:28:36Z</time></trkpt><trkpt lat="47.14363840264386" lon="3.1941065193883404"><ele>229.39999999999998</ele><time>2026-04-25T14:28:37Z</time></trkpt><trkpt lat="47.14372921593529" lon="3.193985255383532"><ele>229.79999999999998</ele><time>2026-04-25T14:28:38Z</time></trkpt><trkpt lat="47.143817591692354" lon="3.193886038152257"><ele>230.20000000000002</ele><time>2026-04-25T14:28:39Z</time></trkpt><trkpt lat="47.14389952321594" lon="3.193806698529712"><ele>230.60000000000002</ele><time>2026-04-25T14:28:40Z</time></trkpt><trkpt lat="47.14397323503856" lon="3.1937455487345767"><ele>231.0</ele><time>2026-04-25T14:28:41Z</time></trkpt><trkpt lat="47.14403411766098" lon="3.1936848065910954"><ele>231.66666666666669</ele><time>2026-04-25T14:28:42Z</time></trkpt><trkpt lat="47.144107520713185" lon="3.19359978019482"><ele>232.33333333333334</ele><time>2026-04-25T14:28:44Z</time></trkpt><trkpt lat="47.144168122959755" lon="3.193527344610045"><ele>233.0</ele><time>2026-04-25T14:28:46Z</time></trkpt><trkpt lat="47.144007353836685" lon="3.193066200541934"><ele>233.2</ele><time>2026-04-25T14:28:47Z</time></trkpt><trkpt lat="47.14399073935426" lon="3.192856509001955"><ele>233.4</ele><time>2026-04-25T14:28:48Z</time></trkpt><trkpt lat="47.14398151121607" lon="3.1927095122176015"><ele>233.59999999999997</ele><time>2026-04-25T14:28:49Z</time></trkpt><trkpt lat="47.14396452820854" lon="3.192605017741036"><ele>233.79999999999998</ele><time>2026-04-25T14:28:50Z</time></trkpt><trkpt lat="47.143959866915026" lon="3.1925109645729255"><ele>234.0</ele><time>2026-04-25T14:28:51Z</time></trkpt><trkpt lat="47.1439614982221" lon="3.1923960406406144"><ele>234.5</ele><time>2026-04-25T14:28:53Z</time></trkpt><trkpt lat="47.14402929435222" lon="3.192264856349461"><ele>235.0</ele><time>2026-04-25T14:28:55Z</time></trkpt><trkpt lat="47.144096633352554" lon="3.1920772688859826"><ele>235.5</ele><time>2026-04-25T14:28:57Z</time></trkpt><trkpt lat="47.14411301961923" lon="3.191963184326822"><ele>236.0</ele><time>2026-04-25T14:28:58Z</time></trkpt><trkpt lat="47.14417816996658" lon="3.1917764751549993"><ele>236.75</ele><time>2026-04-25T14:28:59Z</time></trkpt><trkpt lat="47.14424021989251" lon="3.1915388298886853"><ele>237.5</ele><time>2026-04-25T14:29:00Z</time></trkpt><trkpt lat="47.144300610293506" lon="3.1913416944511512"><ele>238.25</ele><time>2026-04-25T14:29:01Z</time></trkpt><trkpt lat="47.144311131809246" lon="3.1911694991080304"><ele>239.0</ele><time>2026-04-25T14:29:02Z</time></trkpt><trkpt lat="47.14433477905087" lon="3.191023703195794"><ele>239.75</ele><time>2026-04-25T14:29:03Z</time></trkpt><trkpt lat="47.14436082341501" lon="3.1908678360298715"><ele>240.5</ele><time>2026-04-25T14:29:04Z</time></trkpt><trkpt lat="47.1443908271617" lon="3.190692506847788"><ele>241.25</ele><time>2026-04-25T14:29:05Z</time></trkpt><trkpt lat="47.14446962731983" lon="3.1905071727614494"><ele>242.0</ele><time>2026-04-25T14:29:06Z</time></trkpt><trkpt lat="47.144513512048505" lon="3.1903704177371823"><ele>242.6</ele><time>2026-04-25T14:29:07Z</time></trkpt><trkpt lat="47.14452966937903" lon="3.190254119526005"><ele>243.2</ele><time>2026-04-25T14:29:08Z</time></trkpt><trkpt lat="47.14456519343731" lon="3.190134525448185"><ele>243.8</ele><time>2026-04-25T14:29:09Z</time></trkpt><trkpt lat="47.14460933094408" lon="3.189989304390576"><ele>244.4</ele><time>2026-04-25T14:29:10Z</time></trkpt><trkpt lat="47.14467983812614" lon="3.1898351609987157"><ele>245.0</ele><time>2026-04-25T14:29:11Z</time></trkpt><trkpt lat="47.144707226409146" lon="3.189697662863431"><ele>247.0</ele><time>2026-04-25T14:29:12Z</time></trkpt><trkpt lat="47.14476505164156" lon="3.189559867961859"><ele>249.0</ele><time>2026-04-25T14:29:13Z</time></trkpt><trkpt lat="47.144837099932914" lon="3.1894173237464587"><ele>251.0</ele><time>2026-04-25T14:29:14Z</time></trkpt><trkpt lat="47.14490253882363" lon="3.189272292282769"><ele>253.0</ele><time>2026-04-25T14:29:15Z</time></trkpt><trkpt lat="47.14497468042712" lon="3.1890506296241368"><ele>255.0</ele><time>2026-04-25T14:29:16Z</time></trkpt><trkpt lat="47.14504391167341" lon="3.1888555372446956"><ele>257.0</ele><time>2026-04-25T14:29:17Z</time></trkpt><trkpt lat="47.14514746016562" lon="3.188660550779541"><ele>259.0</ele><time>2026-04-25T14:29:18Z</time></trkpt><trkpt lat="47.14518823965012" lon="3.18851521720976"><ele>261.0</ele><time>2026-04-25T14:29:19Z</time></trkpt><trkpt lat="47.145232064456344" lon="3.188404931027652"><ele>261.0</ele><time>2026-04-25T14:29:20Z</time></trkpt><trkpt lat="47.145273493585265" lon="3.1882760955216045"><ele>261.0</ele><time>2026-04-25T14:29:21Z</time></trkpt><trkpt lat="47.14531234529429" lon="3.188168804949838"><ele>261.0</ele><time>2026-04-25T14:29:22Z</time></trkpt><trkpt lat="47.1453385570271" lon="3.188069044841621"><ele>261.0</ele><time>2026-04-25T14:29:23Z</time></trkpt><trkpt lat="47.14533551239448" lon="3.187888933005005"><ele>261.0</ele><time>2026-04-25T14:29:25Z</time></trkpt><trkpt lat="47.14532670395449" lon="3.187702451783728"><ele>261.75</ele><time>2026-04-25T14:29:26Z</time></trkpt><trkpt lat="47.14532279209273" lon="3.1875233957395412"><ele>262.5</ele><time>2026-04-25T14:29:26.999Z</time></trkpt><trkpt lat="47.14532713771562" lon="3.187363297459357"><ele>263.25</ele><time>2026-04-25T14:29:27.999Z</time></trkpt><trkpt lat="47.14532032814722" lon="3.187197617394579"><ele>264.0</ele><time>2026-04-25T14:29:28.999Z</time></trkpt><trkpt lat="47.145315678246014" lon="3.1870307525610615"><ele>265.5</ele><time>2026-04-25T14:29:29.999Z</time></trkpt><trkpt lat="47.145325690649756" lon="3.1868523661542687"><ele>267.0</ele><time>2026-04-25T14:29:30.999Z</time></trkpt><trkpt lat="47.145324297301904" lon="3.1866619322649625"><ele>268.5</ele><time>2026-04-25T14:29:31.999Z</time></trkpt><trkpt lat="47.14531372180077" lon="3.18651678089005"><ele>270.0</ele><time>2026-04-25T14:29:32.999Z</time></trkpt><trkpt lat="47.14529137926832" lon="3.1863428414290236"><ele>272.0</ele><time>2026-04-25T14:29:33.999Z</time></trkpt><trkpt lat="47.14529327224901" lon="3.1861589466403726"><ele>274.0</ele><time>2026-04-25T14:29:34.999Z</time></trkpt><trkpt lat="47.14530205066423" lon="3.1859786984867977"><ele>276.0</ele><time>2026-04-25T14:29:35.999Z</time></trkpt><trkpt lat="47.14531460148739" lon="3.1858226309088633"><ele>278.0</ele><time>2026-04-25T14:29:36.999Z</time></trkpt><trkpt lat="47.14530720630415" lon="3.18566891448696"><ele>279.6</ele><time>2026-04-25T14:29:37.999Z</time></trkpt><trkpt lat="47.14530015521611" lon="3.185528356536349"><ele>281.20000000000005</ele><time>2026-04-25T14:29:38.999Z</time></trkpt><trkpt lat="47.145301273489714" lon="3.18537433160045"><ele>282.8</ele><time>2026-04-25T14:29:39.999Z</time></trkpt><trkpt lat="47.145284963166056" lon="3.185256034472646"><ele>284.40000000000003</ele><time>2026-04-25T14:29:40.999Z</time></trkpt><trkpt lat="47.14528272166163" lon="3.1851062032137607"><ele>286.0</ele><time>2026-04-25T14:29:41.999Z</time></trkpt><trkpt lat="47.145272457614354" lon="3.184984724451014"><ele>287.2</ele><time>2026-04-25T14:29:42.999Z</time></trkpt><trkpt lat="47.145282547844275" lon="3.1848110195556907"><ele>288.40000000000003</ele><time>2026-04-25T14:29:43.999Z</time></trkpt><trkpt lat="47.14529128896603" lon="3.1846393579250156"><ele>289.6</ele><time>2026-04-25T14:29:44.999Z</time></trkpt><trkpt lat="47.145290265571255" lon="3.1844831154667372"><ele>290.8</ele><time>2026-04-25T14:29:45.999Z</time></trkpt><trkpt lat="47.14529424701021" lon="3.1843274834493966"><ele>292.0</ele><time>2026-04-25T14:29:46.999Z</time></trkpt><trkpt lat="47.14528963933886" lon="3.18419391686688"><ele>292.0</ele><time>2026-04-25T14:29:47.999Z</time></trkpt><trkpt lat="47.145284843396944" lon="3.184033104000035"><ele>292.0</ele><time>2026-04-25T14:29:48.999Z</time></trkpt><trkpt lat="47.14528383190257" lon="3.1838780670300477"><ele>292.0</ele><time>2026-04-25T14:29:49.999Z</time></trkpt><trkpt lat="47.14527996957453" lon="3.183733547178435"><ele>292.0</ele><time>2026-04-25T14:29:50.999Z</time></trkpt><trkpt lat="47.145285384109435" lon="3.1836195731964776"><ele>292.0</ele><time>2026-04-25T14:29:51.999Z</time></trkpt><trkpt lat="47.145262068994654" lon="3.1834612005423675"><ele>293.25</ele><time>2026-04-25T14:29:52.999Z</time></trkpt><trkpt lat="47.14526860230303" lon="3.183282284190478"><ele>294.5</ele><time>2026-04-25T14:29:53.999Z</time></trkpt><trkpt lat="47.14526208069045" lon="3.1831092872342373"><ele>295.75</ele><time>2026-04-25T14:29:54.999Z</time></trkpt><trkpt lat="47.145259254473416" lon="3.1829413384302034"><ele>297.0</ele><time>2026-04-25T14:29:55.999Z</time></trkpt><trkpt lat="47.14526767826839" lon="3.1827629563706106"><ele>297.8</ele><time>2026-04-25T14:29:56.999Z</time></trkpt><trkpt lat="47.14526319620953" lon="3.182574023406145"><ele>298.6</ele><time>2026-04-25T14:29:57.999Z</time></trkpt><trkpt lat="47.145258017318135" lon="3.182439702092267"><ele>299.40000000000003</ele><time>2026-04-25T14:29:58.999Z</time></trkpt><trkpt lat="47.14525286572834" lon="3.182305925035631"><ele>300.2</ele><time>2026-04-25T14:29:59.999Z</time></trkpt><trkpt lat="47.14525544086426" lon="3.1821432933753764"><ele>301.0</ele><time>2026-04-25T14:30:00.999Z</time></trkpt><trkpt lat="47.14528516334598" lon="3.181928449273694"><ele>301.40000000000003</ele><time>2026-04-25T14:30:01.999Z</time></trkpt><trkpt lat="47.14528174821878" lon="3.1817413342938736"><ele>301.8</ele><time>2026-04-25T14:30:02.999Z</time></trkpt><trkpt lat="47.14525546390564" lon="3.1816451075264114"><ele>302.20000000000005</ele><time>2026-04-25T14:30:03.999Z</time></trkpt><trkpt lat="47.145246182845746" lon="3.181523263663568"><ele>302.6</ele><time>2026-04-25T14:30:04.999Z</time></trkpt><trkpt lat="47.14524551097257" lon="3.1813987882111046"><ele>303.0</ele><time>2026-04-25T14:30:05.999Z</time></trkpt><trkpt lat="47.145252628616426" lon="3.181272591774286"><ele>303.0</ele><time>2026-04-25T14:30:06.999Z</time></trkpt><trkpt lat="47.14523020856063" lon="3.1811416124766247"><ele>303.0</ele><time>2026-04-25T14:30:07.999Z</time></trkpt><trkpt lat="47.145228244538394" lon="3.1810313016173226"><ele>303.0</ele><time>2026-04-25T14:30:08.999Z</time></trkpt><trkpt lat="47.145241753248655" lon="3.1809064231930764"><ele>303.0</ele><time>2026-04-25T14:30:09.999Z</time></trkpt><trkpt lat="47.14523078946437" lon="3.1807911358972083"><ele>303.0</ele><time>2026-04-25T14:30:10.999Z</time></trkpt><trkpt lat="47.14520845414035" lon="3.1806599714236143"><ele>303.0</ele><time>2026-04-25T14:30:11.999Z</time></trkpt><trkpt lat="47.14521881311986" lon="3.180516756678097"><ele>303.3333333333333</ele><time>2026-04-25T14:30:13Z</time></trkpt><trkpt lat="47.145216527876926" lon="3.180407498903129"><ele>303.6666666666667</ele><time>2026-04-25T14:30:14Z</time></trkpt><trkpt lat="47.145230715450474" lon="3.180291412146991"><ele>304.0</ele><time>2026-04-25T14:30:15Z</time></trkpt><trkpt lat="47.145239390113574" lon="3.1801822555021646"><ele>304.33333333333337</ele><time>2026-04-25T14:30:16Z</time></trkpt><trkpt lat="47.14523781430353" lon="3.1800776455556035"><ele>304.6666666666667</ele><time>2026-04-25T14:30:17Z</time></trkpt><trkpt lat="47.14522174255358" lon="3.179962008385444"><ele>305.0</ele><time>2026-04-25T14:30:18Z</time></trkpt><trkpt lat="47.14521928453908" lon="3.1798142340055233"><ele>305.2</ele><time>2026-04-25T14:30:19Z</time></trkpt><trkpt lat="47.1451913442389" lon="3.1796079576637695"><ele>305.4</ele><time>2026-04-25T14:30:21Z</time></trkpt><trkpt lat="47.14519244300111" lon="3.1794985773393187"><ele>305.6</ele><time>2026-04-25T14:30:22Z</time></trkpt><trkpt lat="47.14518761844226" lon="3.1793649924648073"><ele>305.8</ele><time>2026-04-25T14:30:23Z</time></trkpt><trkpt lat="47.14518115124716" lon="3.1792175940701366"><ele>306.0</ele><time>2026-04-25T14:30:24Z</time></trkpt><trkpt lat="47.145164328107015" lon="3.1790392967664363"><ele>306.0</ele><time>2026-04-25T14:30:25Z</time></trkpt><trkpt lat="47.14515515585866" lon="3.1788682329951365"><ele>306.0</ele><time>2026-04-25T14:30:26Z</time></trkpt><trkpt lat="47.145153873244396" lon="3.178669465180829"><ele>306.0</ele><time>2026-04-25T14:30:27Z</time></trkpt><trkpt lat="47.14516334381893" lon="3.1784836959454665"><ele>306.0</ele><time>2026-04-25T14:30:28Z</time></trkpt><trkpt lat="47.145175322868546" lon="3.1783355691175674"><ele>306.0</ele><time>2026-04-25T14:30:29Z</time></trkpt><trkpt lat="47.14519045943346" lon="3.1782111574486684"><ele>306.0</ele><time>2026-04-25T14:30:30Z</time></trkpt><trkpt lat="47.14519539220849" lon="3.178093484112732"><ele>306.0</ele><time>2026-04-25T14:30:31Z</time></trkpt><trkpt lat="47.1451708425298" lon="3.1779493155745717"><ele>306.0</ele><time>2026-04-25T14:30:32Z</time></trkpt><trkpt lat="47.14516988035342" lon="3.1778048600323507"><ele>306.0</ele><time>2026-04-25T14:30:33Z</time></trkpt><trkpt lat="47.14517506468895" lon="3.1776319752885795"><ele>305.0</ele><time>2026-04-25T14:30:34Z</time></trkpt><trkpt lat="47.1451757395934" lon="3.1774731955242657"><ele>304.0</ele><time>2026-04-25T14:30:35Z</time></trkpt><trkpt lat="47.14516374344872" lon="3.1773752106038975"><ele>303.0</ele><time>2026-04-25T14:30:36Z</time></trkpt><trkpt lat="47.14515580951138" lon="3.177270904226372"><ele>302.0</ele><time>2026-04-25T14:30:37Z</time></trkpt><trkpt lat="47.145158169450745" lon="3.177161999414872"><ele>301.0</ele><time>2026-04-25T14:30:38Z</time></trkpt><trkpt lat="47.14518065226881" lon="3.1770726643878047"><ele>300.0</ele><time>2026-04-25T14:30:39Z</time></trkpt><trkpt lat="47.14516799666016" lon="3.176951786840574"><ele>298.0</ele><time>2026-04-25T14:30:40Z</time></trkpt><trkpt lat="47.14516430561583" lon="3.1768446695048365"><ele>296.0</ele><time>2026-04-25T14:30:41Z</time></trkpt><trkpt lat="47.14517466438323" lon="3.176683775139325"><ele>294.0</ele><time>2026-04-25T14:30:43Z</time></trkpt><trkpt lat="47.145162208669" lon="3.176565892525658"><ele>292.0</ele><time>2026-04-25T14:30:44Z</time></trkpt><trkpt lat="47.145147021836806" lon="3.17641507515518"><ele>290.0</ele><time>2026-04-25T14:30:46Z</time></trkpt><trkpt lat="47.145153151826264" lon="3.1762905817590408"><ele>289.33333333333337</ele><time>2026-04-25T14:30:48Z</time></trkpt><trkpt lat="47.14514637287873" lon="3.176133379719482"><ele>288.6666666666667</ele><time>2026-04-25T14:30:51Z</time></trkpt><trkpt lat="47.14513158753827" lon="3.1758265977320215"><ele>288.0</ele><time>2026-04-25T14:30:53Z</time></trkpt><trkpt lat="47.145136808939625" lon="3.1756265674005753"><ele>288.0</ele><time>2026-04-25T14:30:54Z</time></trkpt><trkpt lat="47.14514921536674" lon="3.1753804466608613"><ele>288.0</ele><time>2026-04-25T14:30:55Z</time></trkpt><trkpt lat="47.145149276708054" lon="3.175156134101217"><ele>288.0</ele><time>2026-04-25T14:30:56Z</time></trkpt><trkpt lat="47.14513402867574" lon="3.1749500934577033"><ele>288.75</ele><time>2026-04-25T14:30:57Z</time></trkpt><trkpt lat="47.14512204255713" lon="3.1747615846187394"><ele>289.5</ele><time>2026-04-25T14:30:58Z</time></trkpt><trkpt lat="47.14511410195927" lon="3.174573748074802"><ele>290.25</ele><time>2026-04-25T14:30:59Z</time></trkpt><trkpt lat="47.145124404486744" lon="3.174329200942713"><ele>291.0</ele><time>2026-04-25T14:31:00Z</time></trkpt><trkpt lat="47.14512125061823" lon="3.1740912695811727"><ele>292.0</ele><time>2026-04-25T14:31:01Z</time></trkpt><trkpt lat="47.14510451459172" lon="3.17388498793327"><ele>293.0</ele><time>2026-04-25T14:31:02Z</time></trkpt><trkpt lat="47.14511420632138" lon="3.1737130212324516"><ele>294.0</ele><time>2026-04-25T14:31:03Z</time></trkpt><trkpt lat="47.14509556991887" lon="3.1735595054643984"><ele>295.0</ele><time>2026-04-25T14:31:04Z</time></trkpt><trkpt lat="47.145091041815554" lon="3.173323218600064"><ele>295.66666666666663</ele><time>2026-04-25T14:31:05Z</time></trkpt><trkpt lat="47.145101738379765" lon="3.1730840417405664"><ele>296.3333333333333</ele><time>2026-04-25T14:31:06Z</time></trkpt><trkpt lat="47.145094958289405" lon="3.172852268087378"><ele>297.0</ele><time>2026-04-25T14:31:07Z</time></trkpt><trkpt lat="47.14509328283319" lon="3.1726067637354776"><ele>297.0</ele><time>2026-04-25T14:31:08Z</time></trkpt><trkpt lat="47.145096559097055" lon="3.1723757107047548"><ele>297.0</ele><time>2026-04-25T14:31:09Z</time></trkpt><trkpt lat="47.1450869493379" lon="3.1721018389018263"><ele>297.0</ele><time>2026-04-25T14:31:10Z</time></trkpt><trkpt lat="47.145067113675815" lon="3.171844550939049"><ele>297.75</ele><time>2026-04-25T14:31:11Z</time></trkpt><trkpt lat="47.14507846557364" lon="3.171607293846693"><ele>298.5</ele><time>2026-04-25T14:31:12Z</time></trkpt><trkpt lat="47.14507074452393" lon="3.1713988040483416"><ele>299.25</ele><time>2026-04-25T14:31:13Z</time></trkpt><trkpt lat="47.14506831833054" lon="3.1712270430588587"><ele>300.0</ele><time>2026-04-25T14:31:14Z</time></trkpt><trkpt lat="47.14506739529112" lon="3.171011269629028"><ele>301.6666666666667</ele><time>2026-04-25T14:31:15Z</time></trkpt><trkpt lat="47.145054626728005" lon="3.1707622515305434"><ele>303.33333333333337</ele><time>2026-04-25T14:31:16Z</time></trkpt><trkpt lat="47.145046796039665" lon="3.1705375507063254"><ele>305.0</ele><time>2026-04-25T14:31:17Z</time></trkpt><trkpt lat="47.14505767559649" lon="3.170350996829002"><ele>306.0</ele><time>2026-04-25T14:31:18Z</time></trkpt><trkpt lat="47.14505429588194" lon="3.1701304848209158"><ele>307.0</ele><time>2026-04-25T14:31:19Z</time></trkpt><trkpt lat="47.14503898893698" lon="3.169898063743485"><ele>308.0</ele><time>2026-04-25T14:31:20Z</time></trkpt><trkpt lat="47.14503607038049" lon="3.169667560321604"><ele>308.33333333333337</ele><time>2026-04-25T14:31:21Z</time></trkpt><trkpt lat="47.145035144821925" lon="3.16941798481504"><ele>308.6666666666667</ele><time>2026-04-25T14:31:22Z</time></trkpt><trkpt lat="47.14504183687695" lon="3.169184490204576"><ele>309.0</ele><time>2026-04-25T14:31:23Z</time></trkpt><trkpt lat="47.14503008479804" lon="3.1689846674099797"><ele>309.5</ele><time>2026-04-25T14:31:24Z</time></trkpt><trkpt lat="47.145017525005734" lon="3.1688082531086263"><ele>310.0</ele><time>2026-04-25T14:31:25Z</time></trkpt><trkpt lat="47.145014863723965" lon="3.168611114035299"><ele>310.5</ele><time>2026-04-25T14:31:26Z</time></trkpt><trkpt lat="47.145026935373814" lon="3.168398011025407"><ele>311.0</ele><time>2026-04-25T14:31:27Z</time></trkpt><trkpt lat="47.145009955714805" lon="3.1681551324441135"><ele>313.0</ele><time>2026-04-25T14:31:28Z</time></trkpt><trkpt lat="47.14500524114206" lon="3.167908478237908"><ele>315.0</ele><time>2026-04-25T14:31:29Z</time></trkpt><trkpt lat="47.145007858981835" lon="3.1676595657438806"><ele>317.0</ele><time>2026-04-25T14:31:30Z</time></trkpt><trkpt lat="47.145001969250046" lon="3.1674318159950117"><ele>318.33333333333337</ele><time>2026-04-25T14:31:31Z</time></trkpt><trkpt lat="47.145008608345556" lon="3.167181714852574"><ele>319.6666666666667</ele><time>2026-04-25T14:31:32Z</time></trkpt><trkpt lat="47.145002542290996" lon="3.1669287666873873"><ele>321.0</ele><time>2026-04-25T14:31:33Z</time></trkpt><trkpt lat="47.14499822869336" lon="3.166625650471198"><ele>321.3333333333333</ele><time>2026-04-25T14:31:34Z</time></trkpt><trkpt lat="47.14501012767554" lon="3.1663587337517556"><ele>321.66666666666663</ele><time>2026-04-25T14:31:35Z</time></trkpt><trkpt lat="47.14499562985857" lon="3.1660751275637296"><ele>322.0</ele><time>2026-04-25T14:31:36Z</time></trkpt><trkpt lat="47.14499398432878" lon="3.1658084436287224"><ele>323.0</ele><time>2026-04-25T14:31:37Z</time></trkpt><trkpt lat="47.144987653416756" lon="3.165544930843369"><ele>324.0</ele><time>2026-04-25T14:31:38Z</time></trkpt><trkpt lat="47.14498065239732" lon="3.1652714952763086"><ele>325.0</ele><time>2026-04-25T14:31:39Z</time></trkpt><trkpt lat="47.144974229630336" lon="3.165003860085404"><ele>324.25</ele><time>2026-04-25T14:31:40Z</time></trkpt><trkpt lat="47.144969185567696" lon="3.1647695949374923"><ele>323.5</ele><time>2026-04-25T14:31:41Z</time></trkpt><trkpt lat="47.14496018379404" lon="3.164577412077556"><ele>322.75</ele><time>2026-04-25T14:31:42Z</time></trkpt><trkpt lat="47.14497221947858" lon="3.1644031318622505"><ele>322.0</ele><time>2026-04-25T14:31:43Z</time></trkpt><trkpt lat="47.14496893787048" lon="3.1642220526169287"><ele>322.0</ele><time>2026-04-25T14:31:44Z</time></trkpt><trkpt lat="47.14496072341304" lon="3.1641042198463034"><ele>322.0</ele><time>2026-04-25T14:31:45Z</time></trkpt><trkpt lat="47.144947281189026" lon="3.1639866447489533"><ele>322.0</ele><time>2026-04-25T14:31:46Z</time></trkpt><trkpt lat="47.144948839792555" lon="3.163878434852895"><ele>322.0</ele><time>2026-04-25T14:31:47Z</time></trkpt><trkpt lat="47.14495498365806" lon="3.163728959554453"><ele>322.0</ele><time>2026-04-25T14:31:49Z</time></trkpt><trkpt lat="47.144749565252816" lon="3.1636793850112457"><ele>323.25</ele><time>2026-04-25T14:31:50Z</time></trkpt><trkpt lat="47.144652759696" lon="3.163682737836188"><ele>324.5</ele><time>2026-04-25T14:31:51Z</time></trkpt><trkpt lat="47.144556164714146" lon="3.163650467647771"><ele>325.75</ele><time>2026-04-25T14:31:52Z</time></trkpt><trkpt lat="47.144382721085805" lon="3.1636245342565417"><ele>327.0</ele><time>2026-04-25T14:31:53Z</time></trkpt><trkpt lat="47.14422608120898" lon="3.1636232466672087"><ele>327.0</ele><time>2026-04-25T14:31:54Z</time></trkpt><trkpt lat="47.14406962917822" lon="3.163590234371473"><ele>327.0</ele><time>2026-04-25T14:31:55Z</time></trkpt><trkpt lat="47.143865879814356" lon="3.1635738009721153"><ele>327.0</ele><time>2026-04-25T14:31:56Z</time></trkpt><trkpt lat="47.14368360515211" lon="3.1635238432455193"><ele>326.5</ele><time>2026-04-25T14:31:57Z</time></trkpt><trkpt lat="47.143516868489776" lon="3.1635201749137782"><ele>326.0</ele><time>2026-04-25T14:31:58Z</time></trkpt><trkpt lat="47.14338584988081" lon="3.1635019062593503"><ele>325.5</ele><time>2026-04-25T14:31:59Z</time></trkpt><trkpt lat="47.143244346879754" lon="3.163480342060548"><ele>325.0</ele><time>2026-04-25T14:32:00Z</time></trkpt><trkpt lat="47.14309991145482" lon="3.1634543695027277"><ele>324.0</ele><time>2026-04-25T14:32:01Z</time></trkpt><trkpt lat="47.1429722654034" lon="3.163420520506173"><ele>323.0</ele><time>2026-04-25T14:32:02Z</time></trkpt><trkpt lat="47.14282917920189" lon="3.163422829910386"><ele>322.0</ele><time>2026-04-25T14:32:03Z</time></trkpt><trkpt lat="47.14268710478919" lon="3.163400987928563"><ele>321.0</ele><time>2026-04-25T14:32:04Z</time></trkpt><trkpt lat="47.14254784313855" lon="3.1633586780975524"><ele>321.0</ele><time>2026-04-25T14:32:05Z</time></trkpt><trkpt lat="47.14240768731351" lon="3.1633382088610515"><ele>321.0</ele><time>2026-04-25T14:32:06Z</time></trkpt><trkpt lat="47.14226818803356" lon="3.1633371210509384"><ele>321.0</ele><time>2026-04-25T14:32:07Z</time></trkpt><trkpt lat="47.142136121917716" lon="3.163298547771923"><ele>321.0</ele><time>2026-04-25T14:32:08Z</time></trkpt><trkpt lat="47.14198199755245" lon="3.163276038495659"><ele>320.3333333333333</ele><time>2026-04-25T14:32:09Z</time></trkpt><trkpt lat="47.14183297577589" lon="3.1632541913746537"><ele>319.66666666666663</ele><time>2026-04-25T14:32:10Z</time></trkpt><trkpt lat="47.14168362675985" lon="3.163232170272933"><ele>319.0</ele><time>2026-04-25T14:32:11Z</time></trkpt><trkpt lat="47.141526100900535" lon="3.1632321316454197"><ele>318.75</ele><time>2026-04-25T14:32:12Z</time></trkpt><trkpt lat="47.1413744675409" lon="3.1632069766493838"><ele>318.5</ele><time>2026-04-25T14:32:13Z</time></trkpt><trkpt lat="47.14122673692102" lon="3.1631929962925027"><ele>318.25</ele><time>2026-04-25T14:32:14Z</time></trkpt><trkpt lat="47.14108990907809" lon="3.1631780056316487"><ele>318.0</ele><time>2026-04-25T14:32:15Z</time></trkpt><trkpt lat="47.140940946425516" lon="3.1631322013963006"><ele>318.0</ele><time>2026-04-25T14:32:16Z</time></trkpt><trkpt lat="47.140800547718634" lon="3.163112125018178"><ele>318.0</ele><time>2026-04-25T14:32:17Z</time></trkpt><trkpt lat="47.14066590848938" lon="3.16309164251303"><ele>318.0</ele><time>2026-04-25T14:32:18Z</time></trkpt><trkpt lat="47.14053386539407" lon="3.1630705427181476"><ele>318.0</ele><time>2026-04-25T14:32:19Z</time></trkpt><trkpt lat="47.14041084205291" lon="3.163050886437484"><ele>316.25</ele><time>2026-04-25T14:32:20Z</time></trkpt><trkpt lat="47.14030929022919" lon="3.163034658918746"><ele>314.5</ele><time>2026-04-25T14:32:21Z</time></trkpt><trkpt lat="47.1401991799331" lon="3.163017063943383"><ele>312.75</ele><time>2026-04-25T14:32:22Z</time></trkpt><trkpt lat="47.140077640176074" lon="3.1629972053738395"><ele>311.0</ele><time>2026-04-25T14:32:23Z</time></trkpt><trkpt lat="47.1399500462015" lon="3.1629762657452396"><ele>310.0</ele><time>2026-04-25T14:32:24Z</time></trkpt><trkpt lat="47.13983167349541" lon="3.162966450365181"><ele>309.0</ele><time>2026-04-25T14:32:25Z</time></trkpt><trkpt lat="47.13969461443587" lon="3.162944140866274"><ele>308.0</ele><time>2026-04-25T14:32:26Z</time></trkpt><trkpt lat="47.139557449021964" lon="3.162917954086994"><ele>307.0</ele><time>2026-04-25T14:32:27Z</time></trkpt><trkpt lat="47.13943023459677" lon="3.16291282227636"><ele>307.0</ele><time>2026-04-25T14:32:28Z</time></trkpt><trkpt lat="47.13930312679527" lon="3.162875472343113"><ele>307.0</ele><time>2026-04-25T14:32:29Z</time></trkpt><trkpt lat="47.13917008311297" lon="3.162865109048107"><ele>307.0</ele><time>2026-04-25T14:32:30Z</time></trkpt><trkpt lat="47.13907720206482" lon="3.1628511702083824"><ele>307.0</ele><time>2026-04-25T14:32:31Z</time></trkpt><trkpt lat="47.138991089281475" lon="3.162853098971912"><ele>307.0</ele><time>2026-04-25T14:32:32Z</time></trkpt><trkpt lat="47.13889865021167" lon="3.162802916436855"><ele>306.5</ele><time>2026-04-25T14:32:34Z</time></trkpt><trkpt lat="47.13881153572894" lon="3.1627934228218337"><ele>306.0</ele><time>2026-04-25T14:32:36Z</time></trkpt><trkpt lat="47.13873809872836" lon="3.1627829958053"><ele>305.5</ele><time>2026-04-25T14:32:37Z</time></trkpt><trkpt lat="47.13866620959161" lon="3.162772788539726"><ele>305.0</ele><time>2026-04-25T14:32:38Z</time></trkpt><trkpt lat="47.13859359514883" lon="3.1627624783306247"><ele>304.5</ele><time>2026-04-25T14:32:39Z</time></trkpt><trkpt lat="47.13852663470977" lon="3.1627529709013453"><ele>304.0</ele><time>2026-04-25T14:32:40Z</time></trkpt><trkpt lat="47.13841112852594" lon="3.1627425937760933"><ele>304.0</ele><time>2026-04-25T14:32:42Z</time></trkpt><trkpt lat="47.13828095262748" lon="3.162746069217067"><ele>304.0</ele><time>2026-04-25T14:32:44Z</time></trkpt><trkpt lat="47.13817433615017" lon="3.1627620095729423"><ele>304.0</ele><time>2026-04-25T14:32:46Z</time></trkpt><trkpt lat="47.13806334261352" lon="3.16274707406646"><ele>304.0</ele><time>2026-04-25T14:32:48Z</time></trkpt><trkpt lat="47.137970987283175" lon="3.162188991938458"><ele>301.5</ele><time>2026-04-25T14:32:49Z</time></trkpt><trkpt lat="47.13791020178471" lon="3.162142580247686"><ele>299.0</ele><time>2026-04-25T14:32:50Z</time></trkpt><trkpt lat="47.137805837341425" lon="3.162051035017454"><ele>296.5</ele><time>2026-04-25T14:32:52Z</time></trkpt><trkpt lat="47.13770914763628" lon="3.161905571297942"><ele>294.0</ele><time>2026-04-25T14:32:54Z</time></trkpt><trkpt lat="47.13757882673835" lon="3.161871390352649"><ele>294.0</ele><time>2026-04-25T14:32:56Z</time></trkpt><trkpt lat="47.137513797065694" lon="3.16185046117205"><ele>294.0</ele><time>2026-04-25T14:32:57Z</time></trkpt><trkpt lat="47.1374477533069" lon="3.1617973671740778"><ele>294.0</ele><time>2026-04-25T14:32:58Z</time></trkpt><trkpt lat="47.13737719062655" lon="3.1617354251028726"><ele>294.0</ele><time>2026-04-25T14:33:00Z</time></trkpt><trkpt lat="47.13727049151489" lon="3.161654946401712"><ele>294.0</ele><time>2026-04-25T14:33:02Z</time></trkpt><trkpt lat="47.137162875154125" lon="3.1615940135650002"><ele>292.59999999999997</ele><time>2026-04-25T14:33:04Z</time></trkpt><trkpt lat="47.13708365488839" lon="3.1615203206772646"><ele>291.2</ele><time>2026-04-25T14:33:05Z</time></trkpt><trkpt lat="47.1370006828485" lon="3.1615244646471132"><ele>289.79999999999995</ele><time>2026-04-25T14:33:06Z</time></trkpt><trkpt lat="47.136913313620376" lon="3.1614629660959954"><ele>288.4</ele><time>2026-04-25T14:33:08Z</time></trkpt><trkpt lat="47.136850818181856" lon="3.161409012067914"><ele>287.0</ele><time>2026-04-25T14:33:10Z</time></trkpt><trkpt lat="47.136749630005376" lon="3.1614699507063686"><ele>287.0</ele><time>2026-04-25T14:33:12Z</time></trkpt><trkpt lat="47.1366771569289" lon="3.1615668252174047"><ele>287.0</ele><time>2026-04-25T14:33:14Z</time></trkpt><trkpt lat="47.13659850661902" lon="3.161599343095828"><ele>287.0</ele><time>2026-04-25T14:33:16Z</time></trkpt><trkpt lat="47.13653437926033" lon="3.1616572382648576"><ele>287.0</ele><time>2026-04-25T14:33:17Z</time></trkpt><trkpt lat="47.13645209067986" lon="3.1616880496375512"><ele>287.0</ele><time>2026-04-25T14:33:19Z</time></trkpt><trkpt lat="47.13639043834677" lon="3.1617126728645153"><ele>287.0</ele><time>2026-04-25T14:33:20Z</time></trkpt><trkpt lat="47.13628626978879" lon="3.161779565150345"><ele>286.2</ele><time>2026-04-25T14:33:22Z</time></trkpt><trkpt lat="47.13618680911907" lon="3.161819340154424"><ele>285.4</ele><time>2026-04-25T14:33:24Z</time></trkpt><trkpt lat="47.13609797402545" lon="3.1618589974890288"><ele>284.6</ele><time>2026-04-25T14:33:26Z</time></trkpt><trkpt lat="47.1360027831956" lon="3.1618966401869097"><ele>283.8</ele><time>2026-04-25T14:33:28Z</time></trkpt><trkpt lat="47.13589569201159" lon="3.161925430545527"><ele>283.0</ele><time>2026-04-25T14:33:30Z</time></trkpt><trkpt lat="47.135832243516404" lon="3.1619723710672605"><ele>283.0</ele><time>2026-04-25T14:33:32Z</time></trkpt><trkpt lat="47.13577771989504" lon="3.1620601931800905"><ele>283.0</ele><time>2026-04-25T14:33:34Z</time></trkpt><trkpt lat="47.135728225936546" lon="3.162130506934663"><ele>283.0</ele><time>2026-04-25T14:33:37Z</time></trkpt><trkpt lat="47.13562968584618" lon="3.162096084638707"><ele>283.0</ele><time>2026-04-25T14:33:41Z</time></trkpt><trkpt lat="47.135546375157865" lon="3.1621414935719345"><ele>283.0</ele><time>2026-04-25T14:33:43Z</time></trkpt><trkpt lat="47.13546978451544" lon="3.162110752297756"><ele>283.0</ele><time>2026-04-25T14:33:48Z</time></trkpt><trkpt lat="47.135366889331536" lon="3.1621080847224436"><ele>282.3333333333333</ele><time>2026-04-25T14:33:50Z</time></trkpt><trkpt lat="47.13528649291883" lon="3.1620911595264496"><ele>281.66666666666663</ele><time>2026-04-25T14:33:52Z</time></trkpt><trkpt lat="47.135209348296904" lon="3.1620875519837766"><ele>281.0</ele><time>2026-04-25T14:33:54Z</time></trkpt><trkpt lat="47.1351381337385" lon="3.162069410828815"><ele>280.3333333333333</ele><time>2026-04-25T14:33:57Z</time></trkpt><trkpt lat="47.13505671641283" lon="3.1620713541046626"><ele>279.6666666666667</ele><time>2026-04-25T14:34:01Z</time></trkpt><trkpt lat="47.13498520637573" lon="3.1620758728187175"><ele>279.0</ele><time>2026-04-25T14:34:04Z</time></trkpt><trkpt lat="47.134920304963266" lon="3.1620415641620907"><ele>278.3333333333333</ele><time>2026-04-25T14:34:07Z</time></trkpt><trkpt lat="47.13484432468285" lon="3.1620314457201597"><ele>277.6666666666667</ele><time>2026-04-25T14:34:10Z</time></trkpt><trkpt lat="47.134764804747284" lon="3.1620364273087094"><ele>277.0</ele><time>2026-04-25T14:34:11Z</time></trkpt><trkpt lat="47.13463807186895" lon="3.162050228897752"><ele>276.33333333333337</ele><time>2026-04-25T14:34:13Z</time></trkpt><trkpt lat="47.13456064790146" lon="3.162028288813323"><ele>275.6666666666667</ele><time>2026-04-25T14:34:14Z</time></trkpt><trkpt lat="47.13449020889016" lon="3.162033964129809"><ele>275.0</ele><time>2026-04-25T14:34:16Z</time></trkpt><trkpt lat="47.134420060680704" lon="3.1619984255697346"><ele>275.0</ele><time>2026-04-25T14:34:18Z</time></trkpt><trkpt lat="47.13439904338377" lon="3.161906904597087"><ele>275.0</ele><time>2026-04-25T14:34:21Z</time></trkpt><trkpt lat="47.13440548593492" lon="3.161804643370834"><ele>275.0</ele><time>2026-04-25T14:34:23Z</time></trkpt><trkpt lat="47.134409432605764" lon="3.1616977801921626"><ele>275.0</ele><time>2026-04-25T14:34:26.001Z</time></trkpt><trkpt lat="47.134410263955886" lon="3.161578349649747"><ele>275.0</ele><time>2026-04-25T14:34:30.001Z</time></trkpt><trkpt lat="47.13438749860863" lon="3.161466877531"><ele>275.0</ele><time>2026-04-25T14:34:36Z</time></trkpt><trkpt lat="47.13445308571612" lon="3.161419641727275"><ele>275.0</ele><time>2026-04-25T14:34:38Z</time></trkpt><trkpt lat="47.134497120738295" lon="3.161344180616136"><ele>275.33333333333337</ele><time>2026-04-25T14:34:42Z</time></trkpt><trkpt lat="47.13458979967714" lon="3.161264965683933"><ele>275.6666666666667</ele><time>2026-04-25T14:34:46Z</time></trkpt><trkpt lat="47.13465125237849" lon="3.1611931751434317"><ele>276.0</ele><time>2026-04-25T14:34:48Z</time></trkpt><trkpt lat="47.13468825006756" lon="3.161109224471682"><ele>276.3333333333333</ele><time>2026-04-25T14:34:50Z</time></trkpt><trkpt lat="47.13474048443749" lon="3.161049454375241"><ele>276.66666666666663</ele><time>2026-04-25T14:34:53Z</time></trkpt><trkpt lat="47.13481922619194" lon="3.160934037072577"><ele>277.0</ele><time>2026-04-25T14:34:55Z</time></trkpt><trkpt lat="47.13488785444675" lon="3.160850674088598"><ele>277.0</ele><time>2026-04-25T14:34:57Z</time></trkpt><trkpt lat="47.134958956438425" lon="3.160778787758067"><ele>277.0</ele><time>2026-04-25T14:35:00Z</time></trkpt><trkpt lat="47.13501976700326" lon="3.1607014901451316"><ele>277.0</ele><time>2026-04-25T14:35:03Z</time></trkpt><trkpt lat="47.13508448125274" lon="3.1606289146734063"><ele>277.0</ele><time>2026-04-25T14:35:06Z</time></trkpt><trkpt lat="47.13513627229388" lon="3.1605527605473607"><ele>277.0</ele><time>2026-04-25T14:35:07Z</time></trkpt><trkpt lat="47.135200361624385" lon="3.160425955299498"><ele>277.0</ele><time>2026-04-25T14:35:09Z</time></trkpt><trkpt lat="47.13525211219607" lon="3.160299987594973"><ele>277.16666666666663</ele><time>2026-04-25T14:35:11Z</time></trkpt><trkpt lat="47.13528703007366" lon="3.1602119258922534"><ele>277.3333333333333</ele><time>2026-04-25T14:35:13Z</time></trkpt><trkpt lat="47.13532427702266" lon="3.1601072040086944"><ele>277.5</ele><time>2026-04-25T14:35:17Z</time></trkpt><trkpt lat="47.13534867294299" lon="3.160002995490778"><ele>277.6666666666667</ele><time>2026-04-25T14:35:21Z</time></trkpt><trkpt lat="47.135376944240235" lon="3.1598913300898843"><ele>277.83333333333337</ele><time>2026-04-25T14:35:24Z</time></trkpt><trkpt lat="47.13540118936406" lon="3.1598036293191414"><ele>278.0</ele><time>2026-04-25T14:35:26Z</time></trkpt><trkpt lat="47.13541735777408" lon="3.1596867069625363"><ele>279.5</ele><time>2026-04-25T14:35:30Z</time></trkpt><trkpt lat="47.13543170548339" lon="3.1595645117303888"><ele>281.0</ele><time>2026-04-25T14:35:32Z</time></trkpt><trkpt lat="47.13544987465819" lon="3.159401324898778"><ele>282.5</ele><time>2026-04-25T14:35:34Z</time></trkpt><trkpt lat="47.13546881222835" lon="3.159303483555156"><ele>284.0</ele><time>2026-04-25T14:35:37Z</time></trkpt><trkpt lat="47.135482283575826" lon="3.159193736605901"><ele>285.5</ele><time>2026-04-25T14:35:41Z</time></trkpt><trkpt lat="47.135488889020806" lon="3.159096500668158"><ele>287.0</ele><time>2026-04-25T14:35:43Z</time></trkpt><trkpt lat="47.13547841208746" lon="3.158987149874097"><ele>288.1666666666667</ele><time>2026-04-25T14:35:46Z</time></trkpt><trkpt lat="47.13550874372248" lon="3.1588399998955565"><ele>289.33333333333337</ele><time>2026-04-25T14:35:48Z</time></trkpt><trkpt lat="47.13551939352874" lon="3.158678007213358"><ele>290.5</ele><time>2026-04-25T14:35:50Z</time></trkpt><trkpt lat="47.135523248386626" lon="3.158565739166764"><ele>291.6666666666667</ele><time>2026-04-25T14:35:52Z</time></trkpt><trkpt lat="47.13552787808666" lon="3.1584674663014853"><ele>292.8333333333333</ele><time>2026-04-25T14:35:59Z</time></trkpt><trkpt lat="47.135542350580025" lon="3.1583725204862128"><ele>294.0</ele><time>2026-04-25T14:36:06Z</time></trkpt><trkpt lat="47.13557077995161" lon="3.158275980903925"><ele>295.1666666666667</ele><time>2026-04-25T14:36:25Z</time></trkpt><trkpt lat="47.13558584576586" lon="3.158184473934606"><ele>296.3333333333333</ele><time>2026-04-25T14:36:40.001Z</time></trkpt><trkpt lat="47.13561313057426" lon="3.15805609426557"><ele>297.5</ele><time>2026-04-25T14:38:35Z</time></trkpt><trkpt lat="47.135627125235786" lon="3.1579587210580624"><ele>298.66666666666663</ele><time>2026-04-25T14:38:37.001Z</time></trkpt><trkpt lat="47.13563172918374" lon="3.157850677119727"><ele>299.8333333333333</ele><time>2026-04-25T14:38:49Z</time></trkpt><trkpt lat="47.13566352913903" lon="3.157722594671653"><ele>301.0</ele><time>2026-04-25T14:38:54Z</time></trkpt><trkpt lat="47.135678148402896" lon="3.1575742059833445"><ele>301.0</ele><time>2026-04-25T14:38:56Z</time></trkpt><trkpt lat="47.135692534200565" lon="3.1574205909369444"><ele>301.0</ele><time>2026-04-25T14:38:59Z</time></trkpt><trkpt lat="47.135701869993255" lon="3.1572979052810433"><ele>301.0</ele><time>2026-04-25T14:39:00Z</time></trkpt><trkpt lat="47.13568488103858" lon="3.1572076171886287"><ele>301.0</ele><time>2026-04-25T14:39:03Z</time></trkpt><trkpt lat="47.13568854075033" lon="3.157078449460667"><ele>301.0</ele><time>2026-04-25T14:39:05Z</time></trkpt><trkpt lat="47.13572335533418" lon="3.1569312159753657"><ele>301.0</ele><time>2026-04-25T14:39:07Z</time></trkpt><trkpt lat="47.13572723588459" lon="3.156785368160127"><ele>302.8</ele><time>2026-04-25T14:39:09Z</time></trkpt><trkpt lat="47.13573937261866" lon="3.1566814845430766"><ele>304.6</ele><time>2026-04-25T14:39:11Z</time></trkpt><trkpt lat="47.13574771346039" lon="3.1565716858516097"><ele>306.4</ele><time>2026-04-25T14:39:13Z</time></trkpt><trkpt lat="47.13574660851034" lon="3.1564079967253957"><ele>308.2</ele><time>2026-04-25T14:39:15Z</time></trkpt><trkpt lat="47.13575530635604" lon="3.1561820237121805"><ele>310.0</ele><time>2026-04-25T14:39:17Z</time></trkpt><trkpt lat="47.13576172375808" lon="3.1560721480767766"><ele>312.0</ele><time>2026-04-25T14:39:19Z</time></trkpt><trkpt lat="47.1357710062926" lon="3.155964475792389"><ele>314.0</ele><time>2026-04-25T14:39:20Z</time></trkpt><trkpt lat="47.135819546609575" lon="3.1557898782435907"><ele>316.0</ele><time>2026-04-25T14:39:22Z</time></trkpt><trkpt lat="47.13578525374076" lon="3.155702066195037"><ele>318.0</ele><time>2026-04-25T14:39:24Z</time></trkpt><trkpt lat="47.135805044918555" lon="3.1555226051148906"><ele>320.0</ele><time>2026-04-25T14:39:26Z</time></trkpt><trkpt lat="47.13579522021448" lon="3.1554199322991"><ele>320.6666666666667</ele><time>2026-04-25T14:39:37Z</time></trkpt><trkpt lat="47.1357248909981" lon="3.155399584262457"><ele>321.33333333333337</ele><time>2026-04-25T14:40:02Z</time></trkpt><trkpt lat="47.13570485924769" lon="3.1552831207244383"><ele>322.0</ele><time>2026-04-25T14:40:15Z</time></trkpt><trkpt lat="47.13567325942311" lon="3.1551837766457846"><ele>322.6666666666667</ele><time>2026-04-25T14:40:19Z</time></trkpt><trkpt lat="47.13570331423235" lon="3.155088745213962"><ele>323.3333333333333</ele><time>2026-04-25T14:40:22Z</time></trkpt><trkpt lat="47.13578325422844" lon="3.155058653970452"><ele>324.0</ele><time>2026-04-25T14:40:26Z</time></trkpt><trkpt lat="47.13579942925847" lon="3.1549374767136418"><ele>324.0</ele><time>2026-04-25T14:40:29.999Z</time></trkpt><trkpt lat="47.13580110013922" lon="3.154809954226032"><ele>324.0</ele><time>2026-04-25T14:40:32.999Z</time></trkpt><trkpt lat="47.1358033890804" lon="3.154717426983168"><ele>324.0</ele><time>2026-04-25T14:40:34.999Z</time></trkpt><trkpt lat="47.1357914733807" lon="3.1546065972151007"><ele>324.0</ele><time>2026-04-25T14:40:37.999Z</time></trkpt><trkpt lat="47.13581414637204" lon="3.154510571009894"><ele>324.0</ele><time>2026-04-25T14:40:40.999Z</time></trkpt><trkpt lat="47.13583432917246" lon="3.154406915963433"><ele>324.0</ele><time>2026-04-25T14:40:44Z</time></trkpt><trkpt lat="47.13586939319114" lon="3.1535048467805855"><ele>323.2</ele><time>2026-04-25T14:40:45Z</time></trkpt><trkpt lat="47.13588564921224" lon="3.15339153684142"><ele>322.4</ele><time>2026-04-25T14:40:46Z</time></trkpt><trkpt lat="47.13589513882691" lon="3.1532874798389643"><ele>321.6</ele><time>2026-04-25T14:40:47Z</time></trkpt><trkpt lat="47.13589564529541" lon="3.153080430524375"><ele>320.8</ele><time>2026-04-25T14:40:49Z</time></trkpt><trkpt lat="47.135909616820705" lon="3.1528848835166157"><ele>320.0</ele><time>2026-04-25T14:40:50Z</time></trkpt><trkpt lat="47.13589165574584" lon="3.152703234538076"><ele>320.0</ele><time>2026-04-25T14:40:51Z</time></trkpt><trkpt lat="47.13591622459862" lon="3.1525014215169573"><ele>320.0</ele><time>2026-04-25T14:40:52Z</time></trkpt><trkpt lat="47.13592335931936" lon="3.1522444659730704"><ele>320.0</ele><time>2026-04-25T14:40:53Z</time></trkpt><trkpt lat="47.135929779369" lon="3.152060330065224"><ele>320.0</ele><time>2026-04-25T14:40:54Z</time></trkpt><trkpt lat="47.135933767330215" lon="3.1519532502614487"><ele>320.0</ele><time>2026-04-25T14:40:55Z</time></trkpt><trkpt lat="47.13591297851631" lon="3.151759578891005"><ele>320.0</ele><time>2026-04-25T14:40:56Z</time></trkpt><trkpt lat="47.13594413546018" lon="3.151585714331591"><ele>320.0</ele><time>2026-04-25T14:40:57Z</time></trkpt><trkpt lat="47.13594121850965" lon="3.151423187895794"><ele>320.0</ele><time>2026-04-25T14:40:58Z</time></trkpt><trkpt lat="47.13593896659383" lon="3.151274012911646"><ele>320.0</ele><time>2026-04-25T14:40:59Z</time></trkpt><trkpt lat="47.135949249728995" lon="3.151174192237335"><ele>320.0</ele><time>2026-04-25T14:41:00Z</time></trkpt><trkpt lat="47.135960021461635" lon="3.150974114745125"><ele>320.0</ele><time>2026-04-25T14:41:01Z</time></trkpt><trkpt lat="47.13595687229212" lon="3.1508752802913413"><ele>320.0</ele><time>2026-04-25T14:41:02Z</time></trkpt><trkpt lat="47.135974975118245" lon="3.1507443069598247"><ele>320.0</ele><time>2026-04-25T14:41:03Z</time></trkpt><trkpt lat="47.13595421329763" lon="3.150611234747952"><ele>320.2</ele><time>2026-04-25T14:41:04Z</time></trkpt><trkpt lat="47.13598090915585" lon="3.1505163183837404"><ele>320.4</ele><time>2026-04-25T14:41:05Z</time></trkpt><trkpt lat="47.135992540844576" lon="3.1503680781467702"><ele>320.6</ele><time>2026-04-25T14:41:06Z</time></trkpt><trkpt lat="47.13600120702048" lon="3.1501850167859637"><ele>320.8</ele><time>2026-04-25T14:41:07Z</time></trkpt><trkpt lat="47.135976635139855" lon="3.150097688670433"><ele>321.0</ele><time>2026-04-25T14:41:08Z</time></trkpt><trkpt lat="47.13597561561469" lon="3.1499296644892327"><ele>321.20000000000005</ele><time>2026-04-25T14:41:09Z</time></trkpt><trkpt lat="47.13597309182842" lon="3.149803213215463"><ele>321.40000000000003</ele><time>2026-04-25T14:41:10Z</time></trkpt><trkpt lat="47.13599561690568" lon="3.1496420873768067"><ele>321.6</ele><time>2026-04-25T14:41:11Z</time></trkpt><trkpt lat="47.13601906813167" lon="3.14947894253638"><ele>321.8</ele><time>2026-04-25T14:41:12Z</time></trkpt><trkpt lat="47.13602749538481" lon="3.149352254131071"><ele>322.0</ele><time>2026-04-25T14:41:13Z</time></trkpt><trkpt lat="47.13602073012855" lon="3.1492129631383916"><ele>322.0</ele><time>2026-04-25T14:41:14Z</time></trkpt><trkpt lat="47.13602957351096" lon="3.1491030936508837"><ele>322.0</ele><time>2026-04-25T14:41:15Z</time></trkpt><trkpt lat="47.136037698414746" lon="3.1489976635247108"><ele>322.0</ele><time>2026-04-25T14:41:16Z</time></trkpt><trkpt lat="47.13602877253566" lon="3.1488673048411795"><ele>322.0</ele><time>2026-04-25T14:41:17Z</time></trkpt><trkpt lat="47.136040143563505" lon="3.148765568147295"><ele>322.0</ele><time>2026-04-25T14:41:18Z</time></trkpt><trkpt lat="47.136042041007606" lon="3.1486528294793104"><ele>322.0</ele><time>2026-04-25T14:41:19Z</time></trkpt><trkpt lat="47.13604207791309" lon="3.148546714451949"><ele>322.3333333333333</ele><time>2026-04-25T14:41:20Z</time></trkpt><trkpt lat="47.136056800553256" lon="3.1484353685120654"><ele>322.66666666666663</ele><time>2026-04-25T14:41:21Z</time></trkpt><trkpt lat="47.13605225679303" lon="3.1483175696464634"><ele>323.0</ele><time>2026-04-25T14:41:22Z</time></trkpt><trkpt lat="47.1360588812415" lon="3.1481883318363972"><ele>323.3333333333333</ele><time>2026-04-25T14:41:23Z</time></trkpt><trkpt lat="47.13606559391811" lon="3.1480878790739557"><ele>323.6666666666667</ele><time>2026-04-25T14:41:24Z</time></trkpt><trkpt lat="47.13608335930296" lon="3.147943490706667"><ele>324.0</ele><time>2026-04-25T14:41:26Z</time></trkpt><trkpt lat="47.13607736041431" lon="3.1478080659579932"><ele>325.2</ele><time>2026-04-25T14:41:30Z</time></trkpt><trkpt lat="47.13604625395139" lon="3.147720753968216"><ele>326.4</ele><time>2026-04-25T14:41:31Z</time></trkpt><trkpt lat="47.13600548883889" lon="3.14762552024567"><ele>327.6</ele><time>2026-04-25T14:41:32Z</time></trkpt><trkpt lat="47.13594100910941" lon="3.1474977120404053"><ele>328.8</ele><time>2026-04-25T14:41:33Z</time></trkpt><trkpt lat="47.135858918484296" lon="3.1473595077589334"><ele>330.0</ele><time>2026-04-25T14:41:34Z</time></trkpt><trkpt lat="47.135780154178285" lon="3.1472185699457538"><ele>330.0</ele><time>2026-04-25T14:41:35Z</time></trkpt><trkpt lat="47.135724086562625" lon="3.147065023385086"><ele>330.0</ele><time>2026-04-25T14:41:36Z</time></trkpt><trkpt lat="47.13564534551085" lon="3.1469546596327445"><ele>330.0</ele><time>2026-04-25T14:41:37Z</time></trkpt><trkpt lat="47.135590368515814" lon="3.1468679247374376"><ele>330.0</ele><time>2026-04-25T14:41:38Z</time></trkpt><trkpt lat="47.13554074803921" lon="3.14680499171329"><ele>330.0</ele><time>2026-04-25T14:41:39Z</time></trkpt><trkpt lat="47.135480049471155" lon="3.1467059057337194"><ele>330.0</ele><time>2026-04-25T14:41:41Z</time></trkpt><trkpt lat="47.13541994314403" lon="3.146602966632608"><ele>330.0</ele><time>2026-04-25T14:41:43Z</time></trkpt><trkpt lat="47.1354077770405" lon="3.1465098259594564"><ele>330.0</ele><time>2026-04-25T14:41:46Z</time></trkpt><trkpt lat="47.13541546946303" lon="3.14660983038803"><ele>330.0</ele><time>2026-04-25T14:41:51Z</time></trkpt><trkpt lat="47.13546320247938" lon="3.146686055868987"><ele>330.0</ele><time>2026-04-25T14:41:52Z</time></trkpt><trkpt lat="47.13551509808977" lon="3.1467965283520556"><ele>330.0</ele><time>2026-04-25T14:41:54Z</time></trkpt><trkpt lat="47.13558915075001" lon="3.146797248698777"><ele>330.0</ele><time>2026-04-25T14:42:09.999Z</time></trkpt><trkpt lat="47.135621623006436" lon="3.1466864579997207"><ele>330.0</ele><time>2026-04-25T14:42:11.999Z</time></trkpt><trkpt lat="47.135623005734885" lon="3.1465862031210814"><ele>330.0</ele><time>2026-04-25T14:42:12.999Z</time></trkpt><trkpt lat="47.135642293388734" lon="3.146448699191427"><ele>330.0</ele><time>2026-04-25T14:42:14.999Z</time></trkpt><trkpt lat="47.13565043297551" lon="3.146274157905977"><ele>330.0</ele><time>2026-04-25T14:42:16.999Z</time></trkpt><trkpt lat="47.135654715387496" lon="3.146110586685802"><ele>331.4</ele><time>2026-04-25T14:42:18.999Z</time></trkpt><trkpt lat="47.13566790680447" lon="3.145959498842267"><ele>332.8</ele><time>2026-04-25T14:42:20.999Z</time></trkpt><trkpt lat="47.13567814401013" lon="3.145817934193542"><ele>334.20000000000005</ele><time>2026-04-25T14:42:22.999Z</time></trkpt><trkpt lat="47.1357125114637" lon="3.145664471820746"><ele>335.6</ele><time>2026-04-25T14:42:24.999Z</time></trkpt><trkpt lat="47.13575000082463" lon="3.145517873212848"><ele>337.0</ele><time>2026-04-25T14:42:26.999Z</time></trkpt><trkpt lat="47.13577188590386" lon="3.145374014287306"><ele>338.40000000000003</ele><time>2026-04-25T14:42:28.999Z</time></trkpt><trkpt lat="47.13581273338143" lon="3.145224457364797"><ele>339.8</ele><time>2026-04-25T14:42:30.999Z</time></trkpt><trkpt lat="47.13585524780223" lon="3.145112254863547"><ele>341.2</ele><time>2026-04-25T14:42:32.999Z</time></trkpt><trkpt lat="47.135855181577" lon="3.1449721923370935"><ele>342.6</ele><time>2026-04-25T14:42:34.999Z</time></trkpt><trkpt lat="47.1358793997252" lon="3.1448311904023742"><ele>344.0</ele><time>2026-04-25T14:42:36.999Z</time></trkpt><trkpt lat="47.13589585612452" lon="3.1447227125885235"><ele>344.33333333333337</ele><time>2026-04-25T14:42:39.999Z</time></trkpt><trkpt lat="47.1359062989672" lon="3.144581762004868"><ele>344.6666666666667</ele><time>2026-04-25T14:42:40.999Z</time></trkpt><trkpt lat="47.135919855208705" lon="3.144462564101553"><ele>345.0</ele><time>2026-04-25T14:42:42.999Z</time></trkpt><trkpt lat="47.1359475648584" lon="3.144354540193939"><ele>345.3333333333333</ele><time>2026-04-25T14:42:44.999Z</time></trkpt><trkpt lat="47.1359761280426" lon="3.144258718204049"><ele>345.66666666666663</ele><time>2026-04-25T14:42:46.999Z</time></trkpt><trkpt lat="47.136047675074714" lon="3.14419388958827"><ele>346.0</ele><time>2026-04-25T14:42:49Z</time></trkpt><trkpt lat="47.13610627378291" lon="3.144143063270652"><ele>346.0</ele><time>2026-04-25T14:42:51Z</time></trkpt><trkpt lat="47.13618243719852" lon="3.1441470598115617"><ele>346.0</ele><time>2026-04-25T14:42:53Z</time></trkpt><trkpt lat="47.1362577575914" lon="3.144143543717369"><ele>346.0</ele><time>2026-04-25T14:42:55Z</time></trkpt><trkpt lat="47.13634110049378" lon="3.1441459991144"><ele>346.0</ele><time>2026-04-25T14:42:57Z</time></trkpt><trkpt lat="47.13641890707047" lon="3.144156922393884"><ele>346.0</ele><time>2026-04-25T14:42:59Z</time></trkpt><trkpt lat="47.13649997736942" lon="3.144197251504844"><ele>346.0</ele><time>2026-04-25T14:43:01Z</time></trkpt><trkpt lat="47.13662054668013" lon="3.144247623399333"><ele>345.5</ele><time>2026-04-25T14:43:04Z</time></trkpt><trkpt lat="47.136700538225256" lon="3.1442616915856165"><ele>345.0</ele><time>2026-04-25T14:43:06Z</time></trkpt><trkpt lat="47.136795909619835" lon="3.144215073780929"><ele>344.5</ele><time>2026-04-25T14:43:08Z</time></trkpt><trkpt lat="47.1368801074354" lon="3.1442248902634637"><ele>344.0</ele><time>2026-04-25T14:43:10Z</time></trkpt><trkpt lat="47.13697737046418" lon="3.1441886573011253"><ele>343.5</ele><time>2026-04-25T14:43:12Z</time></trkpt><trkpt lat="47.137047071043845" lon="3.144193326734325"><ele>343.0</ele><time>2026-04-25T14:43:15Z</time></trkpt><trkpt lat="47.137119225231565" lon="3.1441692918396553"><ele>343.0</ele><time>2026-04-25T14:43:16Z</time></trkpt><trkpt lat="47.137193362975786" lon="3.144140996084115"><ele>343.0</ele><time>2026-04-25T14:43:17Z</time></trkpt><trkpt lat="47.137285629318086" lon="3.1441710900183444"><ele>343.0</ele><time>2026-04-25T14:43:19Z</time></trkpt><trkpt lat="47.13737666899256" lon="3.144194360930127"><ele>343.0</ele><time>2026-04-25T14:43:21Z</time></trkpt><trkpt lat="47.13746194731827" lon="3.1442185966993783"><ele>343.0</ele><time>2026-04-25T14:43:23Z</time></trkpt><trkpt lat="47.1375499690262" lon="3.1442356883589384"><ele>343.0</ele><time>2026-04-25T14:43:25Z</time></trkpt><trkpt lat="47.137644316135244" lon="3.144210471436317"><ele>342.4</ele><time>2026-04-25T14:43:27Z</time></trkpt><trkpt lat="47.13772267410991" lon="3.1442034330017847"><ele>341.79999999999995</ele><time>2026-04-25T14:43:29Z</time></trkpt><trkpt lat="47.137819635506354" lon="3.1441478860889913"><ele>341.2</ele><time>2026-04-25T14:43:31Z</time></trkpt><trkpt lat="47.13789860919927" lon="3.1440551517614423"><ele>340.6</ele><time>2026-04-25T14:43:33Z</time></trkpt><trkpt lat="47.13795160500557" lon="3.143966324121591"><ele>340.0</ele><time>2026-04-25T14:43:35Z</time></trkpt><trkpt lat="47.138020729299484" lon="3.143885437167489"><ele>339.8</ele><time>2026-04-25T14:43:38Z</time></trkpt><trkpt lat="47.13809435019724" lon="3.143832251668648"><ele>339.6</ele><time>2026-04-25T14:43:41Z</time></trkpt><trkpt lat="47.138175742971235" lon="3.143808665104147"><ele>339.4</ele><time>2026-04-25T14:43:43Z</time></trkpt><trkpt lat="47.138251401566265" lon="3.143809867742024"><ele>339.2</ele><time>2026-04-25T14:43:45Z</time></trkpt><trkpt lat="47.13833245105734" lon="3.1438325429343124"><ele>339.0</ele><time>2026-04-25T14:43:48Z</time></trkpt><trkpt lat="47.138460021708525" lon="3.1438692770499657"><ele>338.25</ele><time>2026-04-25T14:43:51Z</time></trkpt><trkpt lat="47.13853444664401" lon="3.1438806192750754"><ele>337.5</ele><time>2026-04-25T14:43:53Z</time></trkpt><trkpt lat="47.1387533674109" lon="3.14385180421474"><ele>336.75</ele><time>2026-04-25T14:43:54Z</time></trkpt><trkpt lat="47.13884363641625" lon="3.1438795380661593"><ele>336.0</ele><time>2026-04-25T14:43:56Z</time></trkpt><trkpt lat="47.13892336865882" lon="3.1439093951125194"><ele>336.0</ele><time>2026-04-25T14:43:58Z</time></trkpt><trkpt lat="47.13900133836214" lon="3.143924238220963"><ele>336.0</ele><time>2026-04-25T14:44:00Z</time></trkpt><trkpt lat="47.139068599122105" lon="3.143905009013999"><ele>336.0</ele><time>2026-04-25T14:44:02Z</time></trkpt><trkpt lat="47.139159455814955" lon="3.1438583114757415"><ele>336.0</ele><time>2026-04-25T14:44:04Z</time></trkpt><trkpt lat="47.13923626587057" lon="3.143817601311448"><ele>336.0</ele><time>2026-04-25T14:44:06Z</time></trkpt><trkpt lat="47.139306646110356" lon="3.143768150109999"><ele>336.0</ele><time>2026-04-25T14:44:08Z</time></trkpt><trkpt lat="47.139385161261835" lon="3.1437521644905644"><ele>335.8333333333333</ele><time>2026-04-25T14:44:21.999Z</time></trkpt><trkpt lat="47.13947601523643" lon="3.1437566239423456"><ele>335.6666666666667</ele><time>2026-04-25T14:44:23.999Z</time></trkpt><trkpt lat="47.13953958115479" lon="3.143732024738401"><ele>335.5</ele><time>2026-04-25T14:44:24.999Z</time></trkpt><trkpt lat="47.13963505729145" lon="3.1437436704406796"><ele>335.33333333333337</ele><time>2026-04-25T14:44:26.999Z</time></trkpt><trkpt lat="47.13972630138277" lon="3.143705960259168"><ele>335.1666666666667</ele><time>2026-04-25T14:44:28.999Z</time></trkpt><trkpt lat="47.13981220174942" lon="3.1436940414931924"><ele>335.0</ele><time>2026-04-25T14:44:30.999Z</time></trkpt><trkpt lat="47.13991332423334" lon="3.1436585881998544"><ele>334.6666666666667</ele><time>2026-04-25T14:44:32.999Z</time></trkpt><trkpt lat="47.13999838079684" lon="3.143656921928957"><ele>334.33333333333337</ele><time>2026-04-25T14:44:34.999Z</time></trkpt><trkpt lat="47.14006224502395" lon="3.143673243767375"><ele>334.0</ele><time>2026-04-25T14:44:36.999Z</time></trkpt><trkpt lat="47.14015785479498" lon="3.143671384754726"><ele>333.6666666666667</ele><time>2026-04-25T14:44:38.999Z</time></trkpt><trkpt lat="47.14024528923227" lon="3.143708278681718"><ele>333.3333333333333</ele><time>2026-04-25T14:44:40.999Z</time></trkpt><trkpt lat="47.14032868582464" lon="3.1437469805989933"><ele>333.0</ele><time>2026-04-25T14:44:42.999Z</time></trkpt><trkpt lat="47.14043529192551" lon="3.1438108737652195"><ele>333.0</ele><time>2026-04-25T14:44:44.999Z</time></trkpt><trkpt lat="47.14054021160569" lon="3.1438260945619"><ele>333.0</ele><time>2026-04-25T14:44:46.999Z</time></trkpt><trkpt lat="47.14060530758702" lon="3.1438048456099765"><ele>333.0</ele><time>2026-04-25T14:44:48.999Z</time></trkpt><trkpt lat="47.14067453376013" lon="3.143846880019981"><ele>333.0</ele><time>2026-04-25T14:44:50.999Z</time></trkpt><trkpt lat="47.140742806052636" lon="3.1438431664527364"><ele>333.0</ele><time>2026-04-25T14:44:51.999Z</time></trkpt><trkpt lat="47.14082143769599" lon="3.1438641727081285"><ele>333.0</ele><time>2026-04-25T14:44:53.999Z</time></trkpt><trkpt lat="47.1408912222779" lon="3.1438873868554893"><ele>332.59999999999997</ele><time>2026-04-25T14:44:56Z</time></trkpt><trkpt lat="47.14096911935326" lon="3.143891982016046"><ele>332.2</ele><time>2026-04-25T14:44:58Z</time></trkpt><trkpt lat="47.141070214354116" lon="3.143922171178739"><ele>331.8</ele><time>2026-04-25T14:45:00Z</time></trkpt><trkpt lat="47.14117197323602" lon="3.143941436714621"><ele>331.4</ele><time>2026-04-25T14:45:02Z</time></trkpt><trkpt lat="47.14126822361823" lon="3.1439964138730665"><ele>331.0</ele><time>2026-04-25T14:45:04Z</time></trkpt><trkpt lat="47.14134621315601" lon="3.144025764751779"><ele>331.20000000000005</ele><time>2026-04-25T14:45:07Z</time></trkpt><trkpt lat="47.14139986144827" lon="3.1440979378654004"><ele>331.40000000000003</ele><time>2026-04-25T14:45:09Z</time></trkpt><trkpt lat="47.14150988281653" lon="3.1441341218100325"><ele>331.6</ele><time>2026-04-25T14:45:10Z</time></trkpt><trkpt lat="47.14159236821117" lon="3.1441662429459862"><ele>331.8</ele><time>2026-04-25T14:45:13Z</time></trkpt><trkpt lat="47.14165879246171" lon="3.1441649821855466"><ele>332.0</ele><time>2026-04-25T14:45:16Z</time></trkpt><trkpt lat="47.14176213046319" lon="3.144234211151987"><ele>332.20000000000005</ele><time>2026-04-25T14:45:19Z</time></trkpt><trkpt lat="47.141878449680036" lon="3.1442994681088705"><ele>332.4</ele><time>2026-04-25T14:45:21Z</time></trkpt><trkpt lat="47.141979323863595" lon="3.1443628876328007"><ele>332.6</ele><time>2026-04-25T14:45:23Z</time></trkpt><trkpt lat="47.14207155014161" lon="3.144415252741997"><ele>332.79999999999995</ele><time>2026-04-25T14:45:25Z</time></trkpt><trkpt lat="47.14213280584773" lon="3.1444739963627164"><ele>333.0</ele><time>2026-04-25T14:45:26Z</time></trkpt><trkpt lat="47.142232833975996" lon="3.14453515431806"><ele>333.0</ele><time>2026-04-25T14:45:28Z</time></trkpt><trkpt lat="47.142292457037435" lon="3.1445974566030457"><ele>333.0</ele><time>2026-04-25T14:45:31Z</time></trkpt><trkpt lat="47.14237073999659" lon="3.1446626083729523"><ele>333.0</ele><time>2026-04-25T14:45:33Z</time></trkpt><trkpt lat="47.14246983176723" lon="3.1447266806682572"><ele>333.0</ele><time>2026-04-25T14:45:35Z</time></trkpt><trkpt lat="47.142571329598134" lon="3.144787651470875"><ele>333.0</ele><time>2026-04-25T14:45:39Z</time></trkpt><trkpt lat="47.142635153718" lon="3.14484730458512"><ele>333.79999999999995</ele><time>2026-04-25T14:45:41Z</time></trkpt><trkpt lat="47.14270608865273" lon="3.1449126970833787"><ele>334.6</ele><time>2026-04-25T14:45:43Z</time></trkpt><trkpt lat="47.14280136248801" lon="3.144978850877757"><ele>335.4</ele><time>2026-04-25T14:45:45Z</time></trkpt><trkpt lat="47.14287413012915" lon="3.1450291923442446"><ele>336.20000000000005</ele><time>2026-04-25T14:45:46Z</time></trkpt><trkpt lat="47.142973342200094" lon="3.1451255835706164"><ele>337.0</ele><time>2026-04-25T14:45:51Z</time></trkpt><trkpt lat="47.1430424140764" lon="3.145232056801524"><ele>337.0</ele><time>2026-04-25T14:45:54Z</time></trkpt><trkpt lat="47.14313018200091" lon="3.145255479972421"><ele>337.0</ele><time>2026-04-25T14:45:55Z</time></trkpt><trkpt lat="47.14319865914265" lon="3.145321213432326"><ele>337.0</ele><time>2026-04-25T14:45:56Z</time></trkpt><trkpt lat="47.143294226935524" lon="3.145358383651844"><ele>337.0</ele><time>2026-04-25T14:45:58Z</time></trkpt><trkpt lat="47.143391379301164" lon="3.1454669937278052"><ele>337.0</ele><time>2026-04-25T14:46:00Z</time></trkpt><trkpt lat="47.14345728506976" lon="3.1455110004692415"><ele>337.40000000000003</ele><time>2026-04-25T14:46:01Z</time></trkpt><trkpt lat="47.14354588803727" lon="3.1455909816887417"><ele>337.8</ele><time>2026-04-25T14:46:03Z</time></trkpt><trkpt lat="47.143639197936594" lon="3.145633723302735"><ele>338.2</ele><time>2026-04-25T14:46:05Z</time></trkpt><trkpt lat="47.143732167501334" lon="3.1456630724279706"><ele>338.6</ele><time>2026-04-25T14:46:06.999Z</time></trkpt><trkpt lat="47.143805746954676" lon="3.1457270383836944"><ele>339.0</ele><time>2026-04-25T14:46:08.999Z</time></trkpt><trkpt lat="47.14390773250311" lon="3.1457729976794773"><ele>339.0</ele><time>2026-04-25T14:46:12.999Z</time></trkpt><trkpt lat="47.14396828299237" lon="3.1458056723496326"><ele>339.0</ele><time>2026-04-25T14:46:13.999Z</time></trkpt><trkpt lat="47.144038166442854" lon="3.145820480309271"><ele>339.0</ele><time>2026-04-25T14:46:15.999Z</time></trkpt><trkpt lat="47.14411701541791" lon="3.1458538110908334"><ele>339.0</ele><time>2026-04-25T14:46:18.999Z</time></trkpt><trkpt lat="47.144191669472626" lon="3.1459134411468965"><ele>339.0</ele><time>2026-04-25T14:46:20.999Z</time></trkpt><trkpt lat="47.14426561921012" lon="3.1459187064624174"><ele>339.0</ele><time>2026-04-25T14:46:21.999Z</time></trkpt><trkpt lat="47.14437255745029" lon="3.1459856690499595"><ele>338.6</ele><time>2026-04-25T14:46:23.999Z</time></trkpt><trkpt lat="47.144472501059965" lon="3.1460140818312117"><ele>338.2</ele><time>2026-04-25T14:46:26.999Z</time></trkpt><trkpt lat="47.14456177583132" lon="3.146041203403753"><ele>337.8</ele><time>2026-04-25T14:46:30.999Z</time></trkpt><trkpt lat="47.144651683276415" lon="3.1460393642281943"><ele>337.40000000000003</ele><time>2026-04-25T14:46:35.999Z</time></trkpt><trkpt lat="47.14472450330878" lon="3.146081959693015"><ele>337.0</ele><time>2026-04-25T14:46:38.999Z</time></trkpt><trkpt lat="47.144832150018125" lon="3.1461048956919813"><ele>336.5714285714286</ele><time>2026-04-25T14:46:42.999Z</time></trkpt><trkpt lat="47.14490601908826" lon="3.146091929029644"><ele>336.14285714285717</ele><time>2026-04-25T14:46:45.999Z</time></trkpt><trkpt lat="47.1449812223375" lon="3.1461005764654058"><ele>335.7142857142857</ele><time>2026-04-25T14:46:48.999Z</time></trkpt><trkpt lat="47.14505420672929" lon="3.146103068857918"><ele>335.28571428571433</ele><time>2026-04-25T14:46:51.999Z</time></trkpt><trkpt lat="47.14510917712654" lon="3.1460449503582875"><ele>334.8571428571429</ele><time>2026-04-25T14:46:53.999Z</time></trkpt><trkpt lat="47.145172118302305" lon="3.146063158643078"><ele>334.42857142857144</ele><time>2026-04-25T14:46:55.999Z</time></trkpt><trkpt lat="47.14524481217585" lon="3.1460306291579827"><ele>334.0</ele><time>2026-04-25T14:46:58.999Z</time></trkpt><trkpt lat="47.14530890751045" lon="3.146025885506706"><ele>334.0</ele><time>2026-04-25T14:47:01Z</time></trkpt><trkpt lat="47.14537569321022" lon="3.1460386845552657"><ele>334.0</ele><time>2026-04-25T14:47:02Z</time></trkpt><trkpt lat="47.14544052029642" lon="3.1460634187322563"><ele>334.0</ele><time>2026-04-25T14:47:04Z</time></trkpt><trkpt lat="47.14553121929088" lon="3.146055064258059"><ele>334.0</ele><time>2026-04-25T14:47:07Z</time></trkpt><trkpt lat="47.14560704542618" lon="3.1460500012675334"><ele>334.0</ele><time>2026-04-25T14:47:08Z</time></trkpt><trkpt lat="47.14570752075173" lon="3.1460425156825464"><ele>334.0</ele><time>2026-04-25T14:47:11Z</time></trkpt><trkpt lat="47.14578897876565" lon="3.1460642683334363"><ele>333.8333333333333</ele><time>2026-04-25T14:47:13Z</time></trkpt><trkpt lat="47.14588963851276" lon="3.146064726616208"><ele>333.66666666666663</ele><time>2026-04-25T14:47:16Z</time></trkpt><trkpt lat="47.145970134862715" lon="3.1460903191253546"><ele>333.5</ele><time>2026-04-25T14:47:20Z</time></trkpt><trkpt lat="47.14603511827917" lon="3.1460845200496808"><ele>333.3333333333333</ele><time>2026-04-25T14:47:22Z</time></trkpt><trkpt lat="47.14610512866306" lon="3.146138041560811"><ele>333.1666666666667</ele><time>2026-04-25T14:47:25Z</time></trkpt><trkpt lat="47.14621247680159" lon="3.146111871588233"><ele>333.0</ele><time>2026-04-25T14:47:29Z</time></trkpt><trkpt lat="47.1463008655968" lon="3.1461270168560374"><ele>333.0</ele><time>2026-04-25T14:47:33Z</time></trkpt><trkpt lat="47.14640035852909" lon="3.1461660197813517"><ele>333.0</ele><time>2026-04-25T14:47:36Z</time></trkpt><trkpt lat="47.14649255801633" lon="3.146195653927916"><ele>333.0</ele><time>2026-04-25T14:47:39Z</time></trkpt><trkpt lat="47.14656242332674" lon="3.1462352029341747"><ele>333.0</ele><time>2026-04-25T14:47:41Z</time></trkpt><trkpt lat="47.146626418017824" lon="3.1462549364707995"><ele>333.0</ele><time>2026-04-25T14:47:43Z</time></trkpt><trkpt lat="47.146700369524375" lon="3.1462711457942736"><ele>333.0</ele><time>2026-04-25T14:47:46Z</time></trkpt><trkpt lat="47.14676447103795" lon="3.14622301741129"><ele>332.0</ele><time>2026-04-25T14:47:50Z</time></trkpt><trkpt lat="47.14680790173796" lon="3.1461185908488445"><ele>331.0</ele><time>2026-04-25T14:47:53Z</time></trkpt><trkpt lat="47.1468861299561" lon="3.1460213268452875"><ele>330.0</ele><time>2026-04-25T14:47:56Z</time></trkpt><trkpt lat="47.14741451719387" lon="3.1455868127759623"><ele>327.3333333333333</ele><time>2026-04-25T14:47:57Z</time></trkpt><trkpt lat="47.14750547415426" lon="3.145197251512563"><ele>324.66666666666663</ele><time>2026-04-25T14:47:58Z</time></trkpt><trkpt lat="47.14754002169472" lon="3.1450321892183495"><ele>322.0</ele><time>2026-04-25T14:47:59Z</time></trkpt><trkpt lat="47.14756439659283" lon="3.144895679313565"><ele>320.8</ele><time>2026-04-25T14:48:00Z</time></trkpt><trkpt lat="47.14760803600296" lon="3.1446813349017906"><ele>319.6</ele><time>2026-04-25T14:48:01Z</time></trkpt><trkpt lat="47.14762372823823" lon="3.1445698651873535"><ele>318.40000000000003</ele><time>2026-04-25T14:48:02Z</time></trkpt><trkpt lat="47.14764560499341" lon="3.144416979323138"><ele>317.20000000000005</ele><time>2026-04-25T14:48:03Z</time></trkpt><trkpt lat="47.147660190518444" lon="3.144257977571352"><ele>316.0</ele><time>2026-04-25T14:48:04Z</time></trkpt><trkpt lat="47.14767042203515" lon="3.1440758067433117"><ele>315.0</ele><time>2026-04-25T14:48:05Z</time></trkpt><trkpt lat="47.147699958870845" lon="3.143951529119562"><ele>314.0</ele><time>2026-04-25T14:48:06Z</time></trkpt><trkpt lat="47.147747965664095" lon="3.14376469373815"><ele>313.0</ele><time>2026-04-25T14:48:07Z</time></trkpt><trkpt lat="47.14775454048866" lon="3.1436149727959743"><ele>312.0</ele><time>2026-04-25T14:48:07.999Z</time></trkpt><trkpt lat="47.14777132689173" lon="3.1434760072508734"><ele>311.0</ele><time>2026-04-25T14:48:08.999Z</time></trkpt><trkpt lat="47.14778357698376" lon="3.14332247718735"><ele>311.40000000000003</ele><time>2026-04-25T14:48:09.999Z</time></trkpt><trkpt lat="47.14779147305563" lon="3.1431956696351375"><ele>311.8</ele><time>2026-04-25T14:48:10.999Z</time></trkpt><trkpt lat="47.14781859912587" lon="3.143030125776534"><ele>312.20000000000005</ele><time>2026-04-25T14:48:11.999Z</time></trkpt><trkpt lat="47.14783971368645" lon="3.1428768564988565"><ele>312.6</ele><time>2026-04-25T14:48:12.999Z</time></trkpt><trkpt lat="47.14786180480055" lon="3.142736206546412"><ele>313.0</ele><time>2026-04-25T14:48:13.999Z</time></trkpt><trkpt lat="47.14789022760277" lon="3.1425815019409633"><ele>313.0</ele><time>2026-04-25T14:48:14.999Z</time></trkpt><trkpt lat="47.14790974517887" lon="3.142416491260852"><ele>313.0</ele><time>2026-04-25T14:48:15.999Z</time></trkpt><trkpt lat="47.147932172470895" lon="3.142267961923191"><ele>313.0</ele><time>2026-04-25T14:48:16.999Z</time></trkpt><trkpt lat="47.14793939269583" lon="3.1421337012413164"><ele>313.0</ele><time>2026-04-25T14:48:17.999Z</time></trkpt><trkpt lat="47.147959853465096" lon="3.141984907747441"><ele>313.0</ele><time>2026-04-25T14:48:18.999Z</time></trkpt><trkpt lat="47.147982631664696" lon="3.1418285428873336"><ele>313.2</ele><time>2026-04-25T14:48:19.999Z</time></trkpt><trkpt lat="47.14799922876337" lon="3.1416651698870486"><ele>313.4</ele><time>2026-04-25T14:48:20.999Z</time></trkpt><trkpt lat="47.1480232125449" lon="3.141496221015495"><ele>313.59999999999997</ele><time>2026-04-25T14:48:21.999Z</time></trkpt><trkpt lat="47.14805011507579" lon="3.1413463805597774"><ele>313.8</ele><time>2026-04-25T14:48:22.999Z</time></trkpt><trkpt lat="47.148089208155056" lon="3.1412087821840293"><ele>314.0</ele><time>2026-04-25T14:48:23.999Z</time></trkpt><trkpt lat="47.148083519118366" lon="3.141106511320139"><ele>314.2</ele><time>2026-04-25T14:48:24.999Z</time></trkpt><trkpt lat="47.14809384479097" lon="3.1410127982767726"><ele>314.4</ele><time>2026-04-25T14:48:25.999Z</time></trkpt><trkpt lat="47.14811873855553" lon="3.140858587402325"><ele>314.6</ele><time>2026-04-25T14:48:27.999Z</time></trkpt><trkpt lat="47.14811759101218" lon="3.140745163567303"><ele>314.8</ele><time>2026-04-25T14:48:29.999Z</time></trkpt><trkpt lat="47.14812545017989" lon="3.1406497262069872"><ele>315.0</ele><time>2026-04-25T14:48:31.999Z</time></trkpt><trkpt lat="47.14797775361388" lon="3.140583595738693"><ele>315.5</ele><time>2026-04-25T14:48:32.999Z</time></trkpt><trkpt lat="47.14790372950596" lon="3.1405345279464165"><ele>316.0</ele><time>2026-04-25T14:48:33.999Z</time></trkpt><trkpt lat="47.14782374752077" lon="3.1404865961238615"><ele>316.5</ele><time>2026-04-25T14:48:34.999Z</time></trkpt><trkpt lat="47.147753799832486" lon="3.140439530531807"><ele>317.0</ele><time>2026-04-25T14:48:35.999Z</time></trkpt><trkpt lat="47.14766579914729" lon="3.1403821358222532"><ele>317.5</ele><time>2026-04-25T14:48:36.999Z</time></trkpt><trkpt lat="47.147577059877264" lon="3.140300757964093"><ele>318.0</ele><time>2026-04-25T14:48:37.999Z</time></trkpt><trkpt lat="47.14748485056262" lon="3.140223220532792"><ele>318.0</ele><time>2026-04-25T14:48:38.999Z</time></trkpt><trkpt lat="47.147379616596005" lon="3.140104303140494"><ele>318.0</ele><time>2026-04-25T14:48:39.999Z</time></trkpt><trkpt lat="47.147262033551236" lon="3.1400229972591505"><ele>318.0</ele><time>2026-04-25T14:48:40.999Z</time></trkpt><trkpt lat="47.14713284736986" lon="3.1399349871699993"><ele>318.0</ele><time>2026-04-25T14:48:41.999Z</time></trkpt><trkpt lat="47.14701991891091" lon="3.1398681104201813"><ele>318.25</ele><time>2026-04-25T14:48:42.999Z</time></trkpt><trkpt lat="47.14690879507778" lon="3.1397835988693643"><ele>318.5</ele><time>2026-04-25T14:48:43.999Z</time></trkpt><trkpt lat="47.14680861329639" lon="3.1396999108806574"><ele>318.75</ele><time>2026-04-25T14:48:44.999Z</time></trkpt><trkpt lat="47.146704349153104" lon="3.139608815136249"><ele>319.0</ele><time>2026-04-25T14:48:45.999Z</time></trkpt><trkpt lat="47.146605939217544" lon="3.1395126350647495"><ele>320.0</ele><time>2026-04-25T14:48:46.999Z</time></trkpt><trkpt lat="47.14651060695989" lon="3.1393863047686144"><ele>321.0</ele><time>2026-04-25T14:48:47.999Z</time></trkpt><trkpt lat="47.14642148664542" lon="3.1393062276297665"><ele>322.0</ele><time>2026-04-25T14:48:48.999Z</time></trkpt><trkpt lat="47.146336424091054" lon="3.139225483347566"><ele>323.0</ele><time>2026-04-25T14:48:49.999Z</time></trkpt><trkpt lat="47.14621591678959" lon="3.13912790367304"><ele>323.0</ele><time>2026-04-25T14:48:50.999Z</time></trkpt><trkpt lat="47.14615641069315" lon="3.1390804275462436"><ele>323.0</ele><time>2026-04-25T14:48:51.999Z</time></trkpt><trkpt lat="47.14610225148939" lon="3.1390121074826145"><ele>323.0</ele><time>2026-04-25T14:48:52.999Z</time></trkpt><trkpt lat="47.146017232357366" lon="3.1389588669781188"><ele>323.0</ele><time>2026-04-25T14:48:53.999Z</time></trkpt><trkpt lat="47.1459013267497" lon="3.1388459737379524"><ele>323.0</ele><time>2026-04-25T14:48:54.999Z</time></trkpt><trkpt lat="47.14580585773691" lon="3.138769584294246"><ele>324.0</ele><time>2026-04-25T14:48:55.999Z</time></trkpt><trkpt lat="47.14569600426013" lon="3.1387079156114273"><ele>325.0</ele><time>2026-04-25T14:48:56.999Z</time></trkpt><trkpt lat="47.14559132996616" lon="3.1386219892119325"><ele>326.0</ele><time>2026-04-25T14:48:57.999Z</time></trkpt><trkpt lat="47.14549320576866" lon="3.1385262021531766"><ele>327.0</ele><time>2026-04-25T14:48:58.999Z</time></trkpt><trkpt lat="47.145398314111496" lon="3.1384514639190875"><ele>327.0</ele><time>2026-04-25T14:48:59.999Z</time></trkpt><trkpt lat="47.14530755131969" lon="3.1383797949323022"><ele>327.0</ele><time>2026-04-25T14:49:00.999Z</time></trkpt><trkpt lat="47.14524242407862" lon="3.1383283685358245"><ele>327.0</ele><time>2026-04-25T14:49:01.999Z</time></trkpt><trkpt lat="47.145177694498656" lon="3.1382966903457463"><ele>327.0</ele><time>2026-04-25T14:49:03.999Z</time></trkpt><trkpt lat="47.14526005571736" lon="3.1381443272173377"><ele>327.0</ele><time>2026-04-25T14:49:13Z</time></trkpt><trkpt lat="47.14530150619618" lon="3.1380340026297286"><ele>327.0</ele><time>2026-04-25T14:49:15Z</time></trkpt><trkpt lat="47.145360853191654" lon="3.1379061290434076"><ele>327.0</ele><time>2026-04-25T14:49:17Z</time></trkpt><trkpt lat="47.14538870587621" lon="3.1378184900869672"><ele>327.0</ele><time>2026-04-25T14:49:18Z</time></trkpt><trkpt lat="47.14543806168828" lon="3.1377067968085526"><ele>327.0</ele><time>2026-04-25T14:49:19Z</time></trkpt><trkpt lat="47.14547480039348" lon="3.1375992228071343"><ele>327.0</ele><time>2026-04-25T14:49:20Z</time></trkpt><trkpt lat="47.14552662154539" lon="3.1374954233100985"><ele>327.0</ele><time>2026-04-25T14:49:21Z</time></trkpt><trkpt lat="47.14558275899268" lon="3.137369275106852"><ele>327.0</ele><time>2026-04-25T14:49:23Z</time></trkpt><trkpt lat="47.14562491236687" lon="3.137295691494605"><ele>327.0</ele><time>2026-04-25T14:49:24Z</time></trkpt><trkpt lat="47.145685013936614" lon="3.1370351433043333"><ele>327.0</ele><time>2026-04-25T14:49:26Z</time></trkpt><trkpt lat="47.14575992947921" lon="3.136864648809486"><ele>327.0</ele><time>2026-04-25T14:49:28Z</time></trkpt><trkpt lat="47.1458200200008" lon="3.136739119889062"><ele>327.0</ele><time>2026-04-25T14:49:30Z</time></trkpt><trkpt lat="47.14591632240312" lon="3.1366253425963317"><ele>327.0</ele><time>2026-04-25T14:49:32Z</time></trkpt><trkpt lat="47.14593365752789" lon="3.136492785215573"><ele>327.0</ele><time>2026-04-25T14:49:33Z</time></trkpt><trkpt lat="47.145975123738666" lon="3.13640151660288"><ele>327.0</ele><time>2026-04-25T14:49:36Z</time></trkpt><trkpt lat="47.14600340201118" lon="3.136280403422866"><ele>327.0</ele><time>2026-04-25T14:49:38Z</time></trkpt><trkpt lat="47.14601654573081" lon="3.1361703841766544"><ele>326.6</ele><time>2026-04-25T14:49:41Z</time></trkpt><trkpt lat="47.146076382119716" lon="3.136006459637369"><ele>326.20000000000005</ele><time>2026-04-25T14:49:44Z</time></trkpt><trkpt lat="47.146117245908705" lon="3.1359287425118105"><ele>325.8</ele><time>2026-04-25T14:49:47Z</time></trkpt><trkpt lat="47.14618015127859" lon="3.1357474182689047"><ele>325.4</ele><time>2026-04-25T14:49:50Z</time></trkpt><trkpt lat="47.14624698056527" lon="3.135666867521199"><ele>325.0</ele><time>2026-04-25T14:49:53Z</time></trkpt><trkpt lat="47.146252330442444" lon="3.1355563998804143"><ele>325.0</ele><time>2026-04-25T14:49:55Z</time></trkpt><trkpt lat="47.14631344989982" lon="3.13546301916439"><ele>325.0</ele><time>2026-04-25T14:49:56Z</time></trkpt><trkpt lat="47.14634356790116" lon="3.1353649737890823"><ele>325.0</ele><time>2026-04-25T14:49:57Z</time></trkpt><trkpt lat="47.14638996952783" lon="3.1352815381023866"><ele>325.0</ele><time>2026-04-25T14:49:58Z</time></trkpt><trkpt lat="47.14645086382392" lon="3.135141512292224"><ele>325.0</ele><time>2026-04-25T14:49:59Z</time></trkpt><trkpt lat="47.14651007909781" lon="3.1350097466376607"><ele>325.0</ele><time>2026-04-25T14:50:00Z</time></trkpt><trkpt lat="47.14653020081306" lon="3.1349019424411986"><ele>325.0</ele><time>2026-04-25T14:50:01Z</time></trkpt><trkpt lat="47.146554792614694" lon="3.134719714854294"><ele>325.0</ele><time>2026-04-25T14:50:02Z</time></trkpt><trkpt lat="47.146583640340516" lon="3.13460666030899"><ele>325.0</ele><time>2026-04-25T14:50:03Z</time></trkpt><trkpt lat="47.14662143093286" lon="3.1345319423076963"><ele>325.0</ele><time>2026-04-25T14:50:04Z</time></trkpt><trkpt lat="47.14665343030067" lon="3.1344040200788745"><ele>325.0</ele><time>2026-04-25T14:50:05Z</time></trkpt><trkpt lat="47.14669543062595" lon="3.134329221208798"><ele>324.8</ele><time>2026-04-25T14:50:06Z</time></trkpt><trkpt lat="47.14674859022083" lon="3.13420797938451"><ele>324.6</ele><time>2026-04-25T14:50:07Z</time></trkpt><trkpt lat="47.14678668064669" lon="3.1341085387395387"><ele>324.4</ele><time>2026-04-25T14:50:07.999Z</time></trkpt><trkpt lat="47.14680902671436" lon="3.134014542536977"><ele>324.2</ele><time>2026-04-25T14:50:08.999Z</time></trkpt><trkpt lat="47.14688970496727" lon="3.1337980943096255"><ele>324.0</ele><time>2026-04-25T14:50:10.999Z</time></trkpt><trkpt lat="47.14692862673143" lon="3.1336920683885072"><ele>324.4</ele><time>2026-04-25T14:50:11.999Z</time></trkpt><trkpt lat="47.14698070171587" lon="3.1335842606792954"><ele>324.79999999999995</ele><time>2026-04-25T14:50:12.999Z</time></trkpt><trkpt lat="47.147047412894715" lon="3.133489502024163"><ele>325.20000000000005</ele><time>2026-04-25T14:50:14.999Z</time></trkpt><trkpt lat="47.14707787934152" lon="3.1333643417215633"><ele>325.6</ele><time>2026-04-25T14:50:16.999Z</time></trkpt><trkpt lat="47.14707307100794" lon="3.1332363008080084"><ele>326.0</ele><time>2026-04-25T14:50:19.999Z</time></trkpt><trkpt lat="47.14698487598236" lon="3.1331657219522477"><ele>326.6</ele><time>2026-04-25T14:50:21.999Z</time></trkpt><trkpt lat="47.14691524951403" lon="3.133085364345137"><ele>327.20000000000005</ele><time>2026-04-25T14:50:25.999Z</time></trkpt><trkpt lat="47.146837413450825" lon="3.133038511750979"><ele>327.79999999999995</ele><time>2026-04-25T14:50:28.999Z</time></trkpt><trkpt lat="47.14676391973829" lon="3.1330314406246607"><ele>328.4</ele><time>2026-04-25T14:50:31.999Z</time></trkpt><trkpt lat="47.146693021600754" lon="3.133100254698484"><ele>329.0</ele><time>2026-04-25T14:50:34.999Z</time></trkpt><trkpt lat="47.14656397626142" lon="3.133057973554222"><ele>327.0</ele><time>2026-04-25T14:50:35.999Z</time></trkpt><trkpt lat="47.14587953209672" lon="3.132581626231059"><ele>327.0</ele><time>2026-04-25T14:50:38.999Z</time></trkpt><trkpt lat="47.14578596362449" lon="3.1324113011144243"><ele>327.0</ele><time>2026-04-25T14:50:39.999Z</time></trkpt><trkpt lat="47.145757486131664" lon="3.1322630937786005"><ele>327.0</ele><time>2026-04-25T14:50:40.999Z</time></trkpt><trkpt lat="47.14572635567371" lon="3.1321672444461717"><ele>327.0</ele><time>2026-04-25T14:50:41.999Z</time></trkpt><trkpt lat="47.14563189553953" lon="3.132034893651289"><ele>326.57142857142856</ele><time>2026-04-25T14:50:43.999Z</time></trkpt><trkpt lat="47.1455871784907" lon="3.131950731437072"><ele>326.14285714285717</ele><time>2026-04-25T14:50:44.999Z</time></trkpt><trkpt lat="47.14555751930699" lon="3.1318688957621026"><ele>325.7142857142857</ele><time>2026-04-25T14:50:45.999Z</time></trkpt><trkpt lat="47.145533190413154" lon="3.131783472926323"><ele>325.2857142857143</ele><time>2026-04-25T14:50:46.999Z</time></trkpt><trkpt lat="47.14549114098796" lon="3.131709218712561"><ele>324.85714285714283</ele><time>2026-04-25T14:50:47.999Z</time></trkpt><trkpt lat="47.145461795168096" lon="3.1316071553859386"><ele>324.42857142857144</ele><time>2026-04-25T14:50:48.999Z</time></trkpt><trkpt lat="47.14544352604817" lon="3.131457777785992"><ele>324.0</ele><time>2026-04-25T14:50:50.999Z</time></trkpt><trkpt lat="47.14537878199831" lon="3.131423366853398"><ele>323.3333333333333</ele><time>2026-04-25T14:50:51.999Z</time></trkpt><trkpt lat="47.145373682710556" lon="3.1313227866895"><ele>322.66666666666663</ele><time>2026-04-25T14:50:52.999Z</time></trkpt><trkpt lat="47.145332995515936" lon="3.131230395946958"><ele>322.0</ele><time>2026-04-25T14:50:53.999Z</time></trkpt><trkpt lat="47.145828782177766" lon="3.1313824298763784"><ele>322.0</ele><time>2026-04-25T14:50:54.999Z</time></trkpt><trkpt lat="47.14576047483015" lon="3.131256904748064"><ele>322.0</ele><time>2026-04-25T14:50:55.999Z</time></trkpt><trkpt lat="47.1457027767374" lon="3.1311605825426514"><ele>322.0</ele><time>2026-04-25T14:50:56.999Z</time></trkpt><trkpt lat="47.14561609337812" lon="3.1310535586200396"><ele>322.0</ele><time>2026-04-25T14:50:57.999Z</time></trkpt><trkpt lat="47.1455286496917" lon="3.130928700160419"><ele>322.0</ele><time>2026-04-25T14:50:58.999Z</time></trkpt><trkpt lat="47.145690432493694" lon="3.130870036894628"><ele>322.0</ele><time>2026-04-25T14:51:00.999Z</time></trkpt><trkpt lat="47.14564542554378" lon="3.1307622335137255"><ele>322.0</ele><time>2026-04-25T14:51:01.999Z</time></trkpt><trkpt lat="47.14561344850611" lon="3.1306760758122905"><ele>322.0</ele><time>2026-04-25T14:51:02.999Z</time></trkpt><trkpt lat="47.14555588791122" lon="3.1305443258310004"><ele>322.0</ele><time>2026-04-25T14:51:03.999Z</time></trkpt><trkpt lat="47.14548433704554" lon="3.1303914697855046"><ele>322.0</ele><time>2026-04-25T14:51:04.999Z</time></trkpt><trkpt lat="47.14540230269832" lon="3.130230808802762"><ele>322.5</ele><time>2026-04-25T14:51:05.999Z</time></trkpt><trkpt lat="47.145303666566456" lon="3.1301073995154685"><ele>323.0</ele><time>2026-04-25T14:51:06.999Z</time></trkpt><trkpt lat="47.14519782559949" lon="3.1299073394038412"><ele>323.5</ele><time>2026-04-25T14:51:08.999Z</time></trkpt><trkpt lat="47.14509765353545" lon="3.1298109858317162"><ele>324.0</ele><time>2026-04-25T14:51:09.999Z</time></trkpt><trkpt lat="47.14503573460889" lon="3.129680922406813"><ele>324.0</ele><time>2026-04-25T14:51:10.999Z</time></trkpt><trkpt lat="47.145001716586606" lon="3.129575498685455"><ele>324.0</ele><time>2026-04-25T14:51:11.999Z</time></trkpt><trkpt lat="47.14494928972944" lon="3.1294764540550704"><ele>324.0</ele><time>2026-04-25T14:51:13Z</time></trkpt><trkpt lat="47.14488173190179" lon="3.129365309427275"><ele>324.0</ele><time>2026-04-25T14:51:14Z</time></trkpt><trkpt lat="47.14472430176004" lon="3.129301309539309"><ele>324.0</ele><time>2026-04-25T14:51:15Z</time></trkpt><trkpt lat="47.14468082845337" lon="3.1291570486213227"><ele>322.5</ele><time>2026-04-25T14:51:16Z</time></trkpt><trkpt lat="47.14458572503326" lon="3.1289947949037242"><ele>321.0</ele><time>2026-04-25T14:51:18Z</time></trkpt><trkpt lat="47.144532964005855" lon="3.128882327647821"><ele>319.5</ele><time>2026-04-25T14:51:19Z</time></trkpt><trkpt lat="47.14445103724835" lon="3.128749015854281"><ele>318.0</ele><time>2026-04-25T14:51:20Z</time></trkpt><trkpt lat="47.14437594811554" lon="3.128647122657506"><ele>318.0</ele><time>2026-04-25T14:51:21Z</time></trkpt><trkpt lat="47.14434689826763" lon="3.1285627997878946"><ele>318.0</ele><time>2026-04-25T14:51:22Z</time></trkpt><trkpt lat="47.14430600698526" lon="3.128454002170181"><ele>318.0</ele><time>2026-04-25T14:51:23Z</time></trkpt><trkpt lat="47.144273320479115" lon="3.128347219657175"><ele>318.0</ele><time>2026-04-25T14:51:24Z</time></trkpt><trkpt lat="47.144231558966325" lon="3.1282438759776467"><ele>318.0</ele><time>2026-04-25T14:51:25Z</time></trkpt><trkpt lat="47.144144709302054" lon="3.128121802804013"><ele>318.0</ele><time>2026-04-25T14:51:27Z</time></trkpt><trkpt lat="47.14415336890609" lon="3.128009588503279"><ele>317.6</ele><time>2026-04-25T14:51:29Z</time></trkpt><trkpt lat="47.144190949648106" lon="3.1278734865300666"><ele>317.20000000000005</ele><time>2026-04-25T14:51:32Z</time></trkpt><trkpt lat="47.14430448529564" lon="3.127756937183719"><ele>316.8</ele><time>2026-04-25T14:51:34Z</time></trkpt><trkpt lat="47.14438141443999" lon="3.1277149941505544"><ele>316.40000000000003</ele><time>2026-04-25T14:51:35Z</time></trkpt><trkpt lat="47.14447839214985" lon="3.1276269261787815"><ele>316.0</ele><time>2026-04-25T14:51:36Z</time></trkpt><trkpt lat="47.144564582339825" lon="3.1275612145085043"><ele>316.0</ele><time>2026-04-25T14:51:37Z</time></trkpt><trkpt lat="47.144642033417256" lon="3.1275379821242173"><ele>316.0</ele><time>2026-04-25T14:51:38Z</time></trkpt><trkpt lat="47.144745506530406" lon="3.127405933988774"><ele>316.0</ele><time>2026-04-25T14:51:39Z</time></trkpt><trkpt lat="47.144830457804275" lon="3.127330657625788"><ele>316.0</ele><time>2026-04-25T14:51:40Z</time></trkpt><trkpt lat="47.144945199911575" lon="3.12728613324672"><ele>316.0</ele><time>2026-04-25T14:51:41Z</time></trkpt><trkpt lat="47.1449854917067" lon="3.1271922648035972"><ele>316.40000000000003</ele><time>2026-04-25T14:51:42Z</time></trkpt><trkpt lat="47.14505220946947" lon="3.127117522081488"><ele>316.8</ele><time>2026-04-25T14:51:43Z</time></trkpt><trkpt lat="47.14512904988896" lon="3.1270719685659567"><ele>317.20000000000005</ele><time>2026-04-25T14:51:44Z</time></trkpt><trkpt lat="47.14523138104694" lon="3.1269727945638133"><ele>317.6</ele><time>2026-04-25T14:51:45Z</time></trkpt><trkpt lat="47.14535997501093" lon="3.126908038170151"><ele>318.0</ele><time>2026-04-25T14:51:47Z</time></trkpt><trkpt lat="47.14543194608269" lon="3.126883531894726"><ele>318.0</ele><time>2026-04-25T14:51:48Z</time></trkpt><trkpt lat="47.14554024300565" lon="3.126830162148914"><ele>318.0</ele><time>2026-04-25T14:51:50Z</time></trkpt><trkpt lat="47.14559113052939" lon="3.126758768856784"><ele>318.0</ele><time>2026-04-25T14:51:51Z</time></trkpt><trkpt lat="47.14568245384482" lon="3.1266838334969553"><ele>318.0</ele><time>2026-04-25T14:51:53Z</time></trkpt><trkpt lat="47.14573051075999" lon="3.12660180460818"><ele>318.0</ele><time>2026-04-25T14:51:54Z</time></trkpt><trkpt lat="47.145785825665094" lon="3.126524162046203"><ele>318.0</ele><time>2026-04-25T14:51:55Z</time></trkpt><trkpt lat="47.14583590189019" lon="3.126462401291509"><ele>318.2</ele><time>2026-04-25T14:51:56Z</time></trkpt><trkpt lat="47.145918372368484" lon="3.1264696332424697"><ele>318.4</ele><time>2026-04-25T14:51:58Z</time></trkpt><trkpt lat="47.14599104055521" lon="3.126395448836635"><ele>318.59999999999997</ele><time>2026-04-25T14:52:02Z</time></trkpt><trkpt lat="47.14606123467089" lon="3.1263739725883877"><ele>318.8</ele><time>2026-04-25T14:52:03Z</time></trkpt><trkpt lat="47.14617913964284" lon="3.1262856416267306"><ele>319.0</ele><time>2026-04-25T14:52:04Z</time></trkpt><trkpt lat="47.146280018785426" lon="3.126177552629548"><ele>319.0</ele><time>2026-04-25T14:52:05Z</time></trkpt><trkpt lat="47.14634588148581" lon="3.12614824363885"><ele>319.0</ele><time>2026-04-25T14:52:06Z</time></trkpt><trkpt lat="47.14643745480477" lon="3.1260810680893"><ele>319.0</ele><time>2026-04-25T14:52:06.999Z</time></trkpt><trkpt lat="47.14651174706566" lon="3.1259907895181662"><ele>319.0</ele><time>2026-04-25T14:52:07.999Z</time></trkpt><trkpt lat="47.14658414011781" lon="3.1259542864937817"><ele>319.0</ele><time>2026-04-25T14:52:08.999Z</time></trkpt><trkpt lat="47.14666534644515" lon="3.125883264276245"><ele>319.0</ele><time>2026-04-25T14:52:09.999Z</time></trkpt><trkpt lat="47.146744745581934" lon="3.1258027400781354"><ele>318.0</ele><time>2026-04-25T14:52:10.999Z</time></trkpt><trkpt lat="47.146847920006536" lon="3.125721774934709"><ele>317.0</ele><time>2026-04-25T14:52:11.999Z</time></trkpt><trkpt lat="47.14697786711474" lon="3.1256114568757436"><ele>316.0</ele><time>2026-04-25T14:52:12.999Z</time></trkpt><trkpt lat="47.14708509164057" lon="3.1255196915076704"><ele>315.0</ele><time>2026-04-25T14:52:13.999Z</time></trkpt><trkpt lat="47.14719622489847" lon="3.125433526378931"><ele>315.0</ele><time>2026-04-25T14:52:14.999Z</time></trkpt><trkpt lat="47.147294447366306" lon="3.125356549126275"><ele>315.0</ele><time>2026-04-25T14:52:15.999Z</time></trkpt><trkpt lat="47.14739736796691" lon="3.1252710665292174"><ele>315.0</ele><time>2026-04-25T14:52:16.999Z</time></trkpt><trkpt lat="47.14750146754128" lon="3.1252036544557096"><ele>315.0</ele><time>2026-04-25T14:52:17.999Z</time></trkpt><trkpt lat="47.147584292405405" lon="3.1251291517113593"><ele>315.0</ele><time>2026-04-25T14:52:18.999Z</time></trkpt><trkpt lat="47.14764519942839" lon="3.125047696461078"><ele>314.25</ele><time>2026-04-25T14:52:19.999Z</time></trkpt><trkpt lat="47.147743048574064" lon="3.1250041697313127"><ele>313.5</ele><time>2026-04-25T14:52:20.999Z</time></trkpt><trkpt lat="47.14782558698182" lon="3.124912371445974"><ele>312.75</ele><time>2026-04-25T14:52:21.999Z</time></trkpt><trkpt lat="47.147961602669895" lon="3.124852834563206"><ele>312.0</ele><time>2026-04-25T14:52:23.999Z</time></trkpt><trkpt lat="47.14803640664389" lon="3.12474671341969"><ele>312.0</ele><time>2026-04-25T14:52:24.999Z</time></trkpt><trkpt lat="47.1480962715962" lon="3.1246680473872854"><ele>312.0</ele><time>2026-04-25T14:52:25.999Z</time></trkpt><trkpt lat="47.14815701436881" lon="3.1246368207977144"><ele>312.0</ele><time>2026-04-25T14:52:26.999Z</time></trkpt><trkpt lat="47.14824677797166" lon="3.124529991672417"><ele>312.0</ele><time>2026-04-25T14:52:28.999Z</time></trkpt><trkpt lat="47.14832857041529" lon="3.124441620589092"><ele>312.0</ele><time>2026-04-25T14:52:29.999Z</time></trkpt><trkpt lat="47.14840006715679" lon="3.124378278137636"><ele>312.0</ele><time>2026-04-25T14:52:30.999Z</time></trkpt><trkpt lat="47.148469224618815" lon="3.124348632194365"><ele>311.6</ele><time>2026-04-25T14:52:31.999Z</time></trkpt><trkpt lat="47.14853086046498" lon="3.124264723533052"><ele>311.2</ele><time>2026-04-25T14:52:32.999Z</time></trkpt><trkpt lat="47.14859914224912" lon="3.1242098143383474"><ele>310.8</ele><time>2026-04-25T14:52:33.999Z</time></trkpt><trkpt lat="47.14868364490485" lon="3.1241352503326483"><ele>310.4</ele><time>2026-04-25T14:52:34.999Z</time></trkpt><trkpt lat="47.1487497019877" lon="3.124086734145823"><ele>310.0</ele><time>2026-04-25T14:52:35.999Z</time></trkpt><trkpt lat="47.148878611024756" lon="3.123989177523319"><ele>310.0</ele><time>2026-04-25T14:52:37.999Z</time></trkpt><trkpt lat="47.148985697286335" lon="3.123934084975558"><ele>310.0</ele><time>2026-04-25T14:52:39.999Z</time></trkpt><trkpt lat="47.149061762996105" lon="3.123890142020155"><ele>310.0</ele><time>2026-04-25T14:52:40.999Z</time></trkpt><trkpt lat="47.14913342214785" lon="3.1238398273818406"><ele>310.0</ele><time>2026-04-25T14:52:41.999Z</time></trkpt><trkpt lat="47.149204946945346" lon="3.1237719923578453"><ele>310.0</ele><time>2026-04-25T14:52:42.999Z</time></trkpt><trkpt lat="47.149313270907115" lon="3.1236901777897126"><ele>309.4</ele><time>2026-04-25T14:52:43.999Z</time></trkpt><trkpt lat="47.14943100758431" lon="3.1235847799683603"><ele>308.8</ele><time>2026-04-25T14:52:44.999Z</time></trkpt><trkpt lat="47.14951977161553" lon="3.123524512020486"><ele>308.2</ele><time>2026-04-25T14:52:45.999Z</time></trkpt><trkpt lat="47.14958351920517" lon="3.123469768483727"><ele>307.6</ele><time>2026-04-25T14:52:46.999Z</time></trkpt><trkpt lat="47.14965209009256" lon="3.1234131436213057"><ele>307.0</ele><time>2026-04-25T14:52:47.999Z</time></trkpt><trkpt lat="47.149721676463535" lon="3.123357207232194"><ele>307.0</ele><time>2026-04-25T14:52:48.999Z</time></trkpt><trkpt lat="47.14979023352701" lon="3.123267313449903"><ele>307.0</ele><time>2026-04-25T14:52:49.999Z</time></trkpt><trkpt lat="47.149881752541155" lon="3.123206110189941"><ele>307.0</ele><time>2026-04-25T14:52:50.999Z</time></trkpt><trkpt lat="47.14999526337725" lon="3.123126595068306"><ele>307.0</ele><time>2026-04-25T14:52:51.999Z</time></trkpt><trkpt lat="47.150100251297495" lon="3.1230603457593507"><ele>307.0</ele><time>2026-04-25T14:52:52.999Z</time></trkpt><trkpt lat="47.15017461516209" lon="3.122971378127738"><ele>306.3333333333333</ele><time>2026-04-25T14:52:53.999Z</time></trkpt><trkpt lat="47.15023258821922" lon="3.122919418225539"><ele>305.66666666666663</ele><time>2026-04-25T14:52:54.999Z</time></trkpt><trkpt lat="47.15033539799846" lon="3.1228384020499522"><ele>305.0</ele><time>2026-04-25T14:52:56.999Z</time></trkpt><trkpt lat="47.150390701362674" lon="3.122788592839277"><ele>304.3333333333333</ele><time>2026-04-25T14:52:57.999Z</time></trkpt><trkpt lat="47.15044739261105" lon="3.1227094017039536"><ele>303.6666666666667</ele><time>2026-04-25T14:52:58.999Z</time></trkpt><trkpt lat="47.15051844744262" lon="3.122695083937329"><ele>303.0</ele><time>2026-04-25T14:53:00.999Z</time></trkpt><trkpt lat="47.15059848797429" lon="3.1226473445180973"><ele>303.0</ele><time>2026-04-25T14:53:03.999Z</time></trkpt><trkpt lat="47.15071550986948" lon="3.122548408598787"><ele>303.0</ele><time>2026-04-25T14:53:05.999Z</time></trkpt><trkpt lat="47.15079567604166" lon="3.122487376648143"><ele>303.0</ele><time>2026-04-25T14:53:06.999Z</time></trkpt><trkpt lat="47.150913087796056" lon="3.122396353774772"><ele>303.0</ele><time>2026-04-25T14:53:07.999Z</time></trkpt><trkpt lat="47.151019133394094" lon="3.1222697216638435"><ele>303.25</ele><time>2026-04-25T14:53:08.999Z</time></trkpt><trkpt lat="47.15113217177193" lon="3.1222043392319487"><ele>303.5</ele><time>2026-04-25T14:53:09.999Z</time></trkpt><trkpt lat="47.15133035965598" lon="3.1220747130451247"><ele>303.75</ele><time>2026-04-25T14:53:10.999Z</time></trkpt><trkpt lat="47.15142088247952" lon="3.1220000455630785"><ele>304.0</ele><time>2026-04-25T14:53:11.999Z</time></trkpt><trkpt lat="47.151558410475246" lon="3.1219296762051174"><ele>303.66666666666663</ele><time>2026-04-25T14:53:12.999Z</time></trkpt><trkpt lat="47.151624252686084" lon="3.12184678932925"><ele>303.3333333333333</ele><time>2026-04-25T14:53:13.999Z</time></trkpt><trkpt lat="47.15168744573866" lon="3.1218135612869427"><ele>303.0</ele><time>2026-04-25T14:53:14.999Z</time></trkpt><trkpt lat="47.151767821807816" lon="3.1217451093189563"><ele>302.6666666666667</ele><time>2026-04-25T14:53:15.999Z</time></trkpt><trkpt lat="47.15185045315835" lon="3.121683797859096"><ele>302.33333333333337</ele><time>2026-04-25T14:53:16.999Z</time></trkpt><trkpt lat="47.15194989453184" lon="3.121633866718905"><ele>302.0</ele><time>2026-04-25T14:53:17.999Z</time></trkpt><trkpt lat="47.15202884144943" lon="3.121563998136209"><ele>302.0</ele><time>2026-04-25T14:53:18.999Z</time></trkpt><trkpt lat="47.15210165186567" lon="3.1215253195964445"><ele>302.0</ele><time>2026-04-25T14:53:19.999Z</time></trkpt><trkpt lat="47.15219933089004" lon="3.1214742971819636"><ele>302.0</ele><time>2026-04-25T14:53:20.999Z</time></trkpt><trkpt lat="47.15225584426516" lon="3.121350879204413"><ele>302.0</ele><time>2026-04-25T14:53:21.999Z</time></trkpt><trkpt lat="47.15236366359024" lon="3.1212752078872037"><ele>302.0</ele><time>2026-04-25T14:53:23Z</time></trkpt><trkpt lat="47.15247527884969" lon="3.1211842805362333"><ele>301.25</ele><time>2026-04-25T14:53:24Z</time></trkpt><trkpt lat="47.1525932660936" lon="3.1211045457428357"><ele>300.5</ele><time>2026-04-25T14:53:25Z</time></trkpt><trkpt lat="47.15268030989509" lon="3.1210449387889154"><ele>299.75</ele><time>2026-04-25T14:53:26Z</time></trkpt><trkpt lat="47.15279381116879" lon="3.120986381955024"><ele>299.0</ele><time>2026-04-25T14:53:27Z</time></trkpt><trkpt lat="47.15288817767436" lon="3.1208858118664873"><ele>299.0</ele><time>2026-04-25T14:53:28Z</time></trkpt><trkpt lat="47.152950863165074" lon="3.120847181676378"><ele>299.0</ele><time>2026-04-25T14:53:29Z</time></trkpt><trkpt lat="47.153049210487794" lon="3.1207708720746843"><ele>299.0</ele><time>2026-04-25T14:53:30Z</time></trkpt><trkpt lat="47.15314569372602" lon="3.1207087724854086"><ele>299.0</ele><time>2026-04-25T14:53:31Z</time></trkpt><trkpt lat="47.15322979745631" lon="3.120625070318849"><ele>299.0</ele><time>2026-04-25T14:53:32Z</time></trkpt><trkpt lat="47.15331796160438" lon="3.1205513779884146"><ele>298.4</ele><time>2026-04-25T14:53:33Z</time></trkpt><trkpt lat="47.15337811998641" lon="3.120516135569228"><ele>297.79999999999995</ele><time>2026-04-25T14:53:34Z</time></trkpt><trkpt lat="47.153498928076395" lon="3.120426164910093"><ele>297.20000000000005</ele><time>2026-04-25T14:53:36Z</time></trkpt><trkpt lat="47.15357744161097" lon="3.120356037531448"><ele>296.6</ele><time>2026-04-25T14:53:37Z</time></trkpt><trkpt lat="47.153652450036894" lon="3.1203077413306737"><ele>296.0</ele><time>2026-04-25T14:53:38Z</time></trkpt><trkpt lat="47.15373254073363" lon="3.1202682472984766"><ele>296.0</ele><time>2026-04-25T14:53:39Z</time></trkpt><trkpt lat="47.15383631386751" lon="3.120202625666147"><ele>296.0</ele><time>2026-04-25T14:53:40Z</time></trkpt><trkpt lat="47.15398048255674" lon="3.120118809280584"><ele>296.0</ele><time>2026-04-25T14:53:41Z</time></trkpt><trkpt lat="47.15411289059731" lon="3.120008613489757"><ele>296.0</ele><time>2026-04-25T14:53:42Z</time></trkpt><trkpt lat="47.15424959419959" lon="3.119866986552325"><ele>295.5</ele><time>2026-04-25T14:53:43Z</time></trkpt><trkpt lat="47.15437006434922" lon="3.11974775885961"><ele>295.0</ele><time>2026-04-25T14:53:44Z</time></trkpt><trkpt lat="47.15447026326508" lon="3.1196522634357318"><ele>294.5</ele><time>2026-04-25T14:53:45Z</time></trkpt><trkpt lat="47.154570087605116" lon="3.119561908346878"><ele>294.0</ele><time>2026-04-25T14:53:46Z</time></trkpt><trkpt lat="47.15465600386815" lon="3.119483755426477"><ele>294.0</ele><time>2026-04-25T14:53:47Z</time></trkpt><trkpt lat="47.15473365206918" lon="3.1194113380336432"><ele>294.0</ele><time>2026-04-25T14:53:48Z</time></trkpt><trkpt lat="47.15480220293925" lon="3.1193841425245425"><ele>294.0</ele><time>2026-04-25T14:53:49Z</time></trkpt><trkpt lat="47.154877431632485" lon="3.1193366201771835"><ele>294.0</ele><time>2026-04-25T14:53:50Z</time></trkpt><trkpt lat="47.15496591375036" lon="3.1192512949211575"><ele>294.0</ele><time>2026-04-25T14:53:51Z</time></trkpt><trkpt lat="47.155070930182966" lon="3.11916674362506"><ele>293.4</ele><time>2026-04-25T14:53:52Z</time></trkpt><trkpt lat="47.15516443959387" lon="3.1190766040508358"><ele>292.79999999999995</ele><time>2026-04-25T14:53:53Z</time></trkpt><trkpt lat="47.15524793678938" lon="3.118998777189603"><ele>292.20000000000005</ele><time>2026-04-25T14:53:54Z</time></trkpt><trkpt lat="47.15532881441462" lon="3.1189307323872697"><ele>291.6</ele><time>2026-04-25T14:53:55Z</time></trkpt><trkpt lat="47.15543823073178" lon="3.1188526984643365"><ele>291.0</ele><time>2026-04-25T14:53:56Z</time></trkpt><trkpt lat="47.15554216503378" lon="3.1187779021493993"><ele>291.0</ele><time>2026-04-25T14:53:57Z</time></trkpt><trkpt lat="47.15562741261467" lon="3.118708092269331"><ele>291.0</ele><time>2026-04-25T14:53:58Z</time></trkpt><trkpt lat="47.15569822571163" lon="3.1186356067095695"><ele>291.0</ele><time>2026-04-25T14:53:59Z</time></trkpt><trkpt lat="47.15578460911866" lon="3.1185820371761745"><ele>291.0</ele><time>2026-04-25T14:54:00Z</time></trkpt><trkpt lat="47.15587789018253" lon="3.1185033454673556"><ele>291.0</ele><time>2026-04-25T14:54:01Z</time></trkpt><trkpt lat="47.15596462612188" lon="3.1184156407550723"><ele>290.6</ele><time>2026-04-25T14:54:02Z</time></trkpt><trkpt lat="47.1560524830025" lon="3.1183381654940363"><ele>290.20000000000005</ele><time>2026-04-25T14:54:03Z</time></trkpt><trkpt lat="47.156168100720805" lon="3.1182654827098935"><ele>289.79999999999995</ele><time>2026-04-25T14:54:04Z</time></trkpt><trkpt lat="47.15625092067738" lon="3.118203905522656"><ele>289.4</ele><time>2026-04-25T14:54:05Z</time></trkpt><trkpt lat="47.15634409443755" lon="3.118127609910516"><ele>289.0</ele><time>2026-04-25T14:54:06Z</time></trkpt><trkpt lat="47.15644168541351" lon="3.1180513977633457"><ele>288.8</ele><time>2026-04-25T14:54:06.999Z</time></trkpt><trkpt lat="47.15651848354153" lon="3.1179709467761576"><ele>288.59999999999997</ele><time>2026-04-25T14:54:07.999Z</time></trkpt><trkpt lat="47.15661503104158" lon="3.1178849608638695"><ele>288.4</ele><time>2026-04-25T14:54:08.999Z</time></trkpt><trkpt lat="47.15670560499628" lon="3.1178109739616424"><ele>288.2</ele><time>2026-04-25T14:54:09.999Z</time></trkpt><trkpt lat="47.15678190845053" lon="3.1177431601448364"><ele>288.0</ele><time>2026-04-25T14:54:10.999Z</time></trkpt><trkpt lat="47.156833698108265" lon="3.1176813940503054"><ele>287.6</ele><time>2026-04-25T14:54:11.999Z</time></trkpt><trkpt lat="47.15691142204522" lon="3.1176429535613286"><ele>287.20000000000005</ele><time>2026-04-25T14:54:12.999Z</time></trkpt><trkpt lat="47.156998167012624" lon="3.117576847672899"><ele>286.8</ele><time>2026-04-25T14:54:13.999Z</time></trkpt><trkpt lat="47.1571016690806" lon="3.11750781059991"><ele>286.40000000000003</ele><time>2026-04-25T14:54:14.999Z</time></trkpt><trkpt lat="47.15719851171628" lon="3.117423761563593"><ele>286.0</ele><time>2026-04-25T14:54:15.999Z</time></trkpt><trkpt lat="47.1572895751682" lon="3.1173542422921483"><ele>285.6</ele><time>2026-04-25T14:54:16.999Z</time></trkpt><trkpt lat="47.15735252092228" lon="3.117294680109027"><ele>285.20000000000005</ele><time>2026-04-25T14:54:17.999Z</time></trkpt><trkpt lat="47.15742033352418" lon="3.1172546514619177"><ele>284.79999999999995</ele><time>2026-04-25T14:54:18.999Z</time></trkpt><trkpt lat="47.15748427763935" lon="3.117195061825597"><ele>284.4</ele><time>2026-04-25T14:54:19.999Z</time></trkpt><trkpt lat="47.157571070405616" lon="3.117126666279954"><ele>284.0</ele><time>2026-04-25T14:54:20.999Z</time></trkpt><trkpt lat="47.15768262382376" lon="3.1170279571050377"><ele>283.83333333333337</ele><time>2026-04-25T14:54:21.999Z</time></trkpt><trkpt lat="47.15776034079889" lon="3.116951130334197"><ele>283.6666666666667</ele><time>2026-04-25T14:54:22.999Z</time></trkpt><trkpt lat="47.15782327923994" lon="3.116913457661022"><ele>283.5</ele><time>2026-04-25T14:54:23.999Z</time></trkpt><trkpt lat="47.15789361240521" lon="3.116860504540811"><ele>283.3333333333333</ele><time>2026-04-25T14:54:25.999Z</time></trkpt><trkpt lat="47.1578846760552" lon="3.11675983400129"><ele>283.16666666666663</ele><time>2026-04-25T14:54:27.999Z</time></trkpt><trkpt lat="47.15787527686864" lon="3.1166623413722507"><ele>283.0</ele><time>2026-04-25T14:54:28.999Z</time></trkpt><trkpt lat="47.15786394632493" lon="3.116516364177682"><ele>283.0</ele><time>2026-04-25T14:54:29.999Z</time></trkpt><trkpt lat="47.15784968284862" lon="3.1162955625834425"><ele>283.0</ele><time>2026-04-25T14:54:30.999Z</time></trkpt><trkpt lat="47.15786202890934" lon="3.1161736657047605"><ele>283.0</ele><time>2026-04-25T14:54:31.999Z</time></trkpt><trkpt lat="47.15785857683059" lon="3.1160181556424913"><ele>283.0</ele><time>2026-04-25T14:54:32.999Z</time></trkpt><trkpt lat="47.15785345284073" lon="3.115872749565282"><ele>283.0</ele><time>2026-04-25T14:54:33.999Z</time></trkpt><trkpt lat="47.157855016575766" lon="3.115697304812955"><ele>282.4</ele><time>2026-04-25T14:54:34.999Z</time></trkpt><trkpt lat="47.15780089571738" lon="3.115567493461739"><ele>281.8</ele><time>2026-04-25T14:54:35.999Z</time></trkpt><trkpt lat="47.15777208153547" lon="3.1153785384218593"><ele>281.2</ele><time>2026-04-25T14:54:36.999Z</time></trkpt><trkpt lat="47.15773592875002" lon="3.115225773629133"><ele>280.6</ele><time>2026-04-25T14:54:37.999Z</time></trkpt><trkpt lat="47.157707537225505" lon="3.1150859360044616"><ele>280.0</ele><time>2026-04-25T14:54:38.999Z</time></trkpt><trkpt lat="47.15769230603512" lon="3.1149480999578945"><ele>279.0</ele><time>2026-04-25T14:54:39.999Z</time></trkpt><trkpt lat="47.15765067627913" lon="3.1148115836903636"><ele>278.0</ele><time>2026-04-25T14:54:40.999Z</time></trkpt><trkpt lat="47.157607493343406" lon="3.1146624710513255"><ele>277.0</ele><time>2026-04-25T14:54:41.999Z</time></trkpt><trkpt lat="47.157547437435454" lon="3.1144861914726936"><ele>276.0</ele><time>2026-04-25T14:54:42.999Z</time></trkpt><trkpt lat="47.15750479326136" lon="3.1143355437258076"><ele>276.0</ele><time>2026-04-25T14:54:43.999Z</time></trkpt><trkpt lat="47.15747611913844" lon="3.1142152982983307"><ele>276.0</ele><time>2026-04-25T14:54:44.999Z</time></trkpt><trkpt lat="47.15747189678735" lon="3.114120025226182"><ele>276.0</ele><time>2026-04-25T14:54:45.999Z</time></trkpt><trkpt lat="47.157431935142675" lon="3.114001389355699"><ele>276.0</ele><time>2026-04-25T14:54:46.999Z</time></trkpt><trkpt lat="47.15738733513923" lon="3.113922460605069"><ele>276.0</ele><time>2026-04-25T14:54:47.999Z</time></trkpt><trkpt lat="47.1573829341106" lon="3.113811054242154"><ele>276.0</ele><time>2026-04-25T14:54:48.999Z</time></trkpt><trkpt lat="47.15734015313096" lon="3.1136040914471903"><ele>275.40000000000003</ele><time>2026-04-25T14:54:50.999Z</time></trkpt><trkpt lat="47.15730972265454" lon="3.1134817840071287"><ele>274.8</ele><time>2026-04-25T14:54:51.999Z</time></trkpt><trkpt lat="47.15729247318827" lon="3.1133505770607957"><ele>274.20000000000005</ele><time>2026-04-25T14:54:52.999Z</time></trkpt><trkpt lat="47.15727158131573" lon="3.113224125998708"><ele>273.6</ele><time>2026-04-25T14:54:53.999Z</time></trkpt><trkpt lat="47.15725069340298" lon="3.1130792519506527"><ele>273.0</ele><time>2026-04-25T14:54:54.999Z</time></trkpt><trkpt lat="47.15722234725848" lon="3.112953149543285"><ele>271.5</ele><time>2026-04-25T14:54:55.999Z</time></trkpt><trkpt lat="47.157235247161786" lon="3.112854710821924"><ele>270.0</ele><time>2026-04-25T14:54:56.999Z</time></trkpt><trkpt lat="47.1572168518133" lon="3.112764453926225"><ele>268.5</ele><time>2026-04-25T14:54:57.999Z</time></trkpt><trkpt lat="47.15723180099456" lon="3.1126700094655337"><ele>267.0</ele><time>2026-04-25T14:54:58.999Z</time></trkpt><trkpt lat="47.15721937311223" lon="3.1124662873887305"><ele>265.5</ele><time>2026-04-25T14:55:00.999Z</time></trkpt><trkpt lat="47.15721942722756" lon="3.1123326218933873"><ele>264.0</ele><time>2026-04-25T14:55:01.999Z</time></trkpt><trkpt lat="47.15721501135138" lon="3.112215828727322"><ele>262.8</ele><time>2026-04-25T14:55:02.999Z</time></trkpt><trkpt lat="47.15718908636924" lon="3.1120754588793638"><ele>261.59999999999997</ele><time>2026-04-25T14:55:03.999Z</time></trkpt><trkpt lat="47.157149637444334" lon="3.1119397821879904"><ele>260.4</ele><time>2026-04-25T14:55:04.999Z</time></trkpt><trkpt lat="47.15714217515434" lon="3.111800648594884"><ele>259.2</ele><time>2026-04-25T14:55:05.999Z</time></trkpt><trkpt lat="47.157099422750115" lon="3.1116524729550807"><ele>258.0</ele><time>2026-04-25T14:55:06.999Z</time></trkpt><trkpt lat="47.15709664923492" lon="3.111505118297843"><ele>257.5</ele><time>2026-04-25T14:55:07.999Z</time></trkpt><trkpt lat="47.157010895096654" lon="3.1114135925422435"><ele>257.0</ele><time>2026-04-25T14:55:08.999Z</time></trkpt><trkpt lat="47.15699293999961" lon="3.1112890299293734"><ele>256.5</ele><time>2026-04-25T14:55:09.999Z</time></trkpt><trkpt lat="47.15697535553577" lon="3.111164433420434"><ele>256.0</ele><time>2026-04-25T14:55:10.999Z</time></trkpt><trkpt lat="47.15694751983196" lon="3.111051240794773"><ele>255.5</ele><time>2026-04-25T14:55:11.999Z</time></trkpt><trkpt lat="47.156934535539875" lon="3.1109275865035286"><ele>255.0</ele><time>2026-04-25T14:55:12.999Z</time></trkpt><trkpt lat="47.156919256355756" lon="3.1108151196894136"><ele>254.6</ele><time>2026-04-25T14:55:13.999Z</time></trkpt><trkpt lat="47.15692563947224" lon="3.110696199338701"><ele>254.2</ele><time>2026-04-25T14:55:14.999Z</time></trkpt><trkpt lat="47.15692824988911" lon="3.1105802829518483"><ele>253.8</ele><time>2026-04-25T14:55:15.999Z</time></trkpt><trkpt lat="47.156932495257884" lon="3.110484163909207"><ele>253.4</ele><time>2026-04-25T14:55:16.999Z</time></trkpt><trkpt lat="47.15691981507617" lon="3.110288702608845"><ele>253.0</ele><time>2026-04-25T14:55:18.999Z</time></trkpt><trkpt lat="47.15693325587948" lon="3.1101217344441388"><ele>253.0</ele><time>2026-04-25T14:55:19.999Z</time></trkpt><trkpt lat="47.156922319005204" lon="3.109913171165658"><ele>253.0</ele><time>2026-04-25T14:55:20.999Z</time></trkpt><trkpt lat="47.15691260789308" lon="3.1097483147985194"><ele>253.0</ele><time>2026-04-25T14:55:21.999Z</time></trkpt><trkpt lat="47.15689343609308" lon="3.1096086891952033"><ele>253.0</ele><time>2026-04-25T14:55:22.999Z</time></trkpt><trkpt lat="47.156875938138214" lon="3.109497985131059"><ele>253.0</ele><time>2026-04-25T14:55:23.999Z</time></trkpt><trkpt lat="47.15687302295554" lon="3.1093254720326096"><ele>252.99999999999997</ele><time>2026-04-25T14:55:26Z</time></trkpt><trkpt lat="47.15687631354469" lon="3.10923090546048"><ele>253.0</ele><time>2026-04-25T14:55:27Z</time></trkpt><trkpt lat="47.15687610276998" lon="3.109086316260486"><ele>253.0</ele><time>2026-04-25T14:55:28Z</time></trkpt><trkpt lat="47.15685923270511" lon="3.108981016213697"><ele>253.0</ele><time>2026-04-25T14:55:29Z</time></trkpt><trkpt lat="47.15687384893697" lon="3.1088604992989506"><ele>252.99999999999997</ele><time>2026-04-25T14:55:30Z</time></trkpt><trkpt lat="47.15687660520212" lon="3.1087245443996148"><ele>253.0</ele><time>2026-04-25T14:55:31Z</time></trkpt><trkpt lat="47.15689081980128" lon="3.1086200461666573"><ele>252.99999999999997</ele><time>2026-04-25T14:55:32Z</time></trkpt><trkpt lat="47.15690726418683" lon="3.1085194727566594"><ele>253.0</ele><time>2026-04-25T14:55:33Z</time></trkpt><trkpt lat="47.156916392393576" lon="3.1084094493734526"><ele>253.0</ele><time>2026-04-25T14:55:34Z</time></trkpt><trkpt lat="47.15690526497757" lon="3.1082969661898563"><ele>253.0</ele><time>2026-04-25T14:55:35Z</time></trkpt><trkpt lat="47.156895159030675" lon="3.1081872118500247"><ele>252.99999999999997</ele><time>2026-04-25T14:55:37Z</time></trkpt><trkpt lat="47.15690807581046" lon="3.1079992640115277"><ele>253.0</ele><time>2026-04-25T14:55:39Z</time></trkpt><trkpt lat="47.15680025597045" lon="3.107837119476546"><ele>252.99999999999997</ele><time>2026-04-25T14:55:41Z</time></trkpt><trkpt lat="47.15683209651452" lon="3.1077396317472337"><ele>253.0</ele><time>2026-04-25T14:55:42Z</time></trkpt><trkpt lat="47.15685258446718" lon="3.1076238890002066"><ele>253.0</ele><time>2026-04-25T14:55:43Z</time></trkpt><trkpt lat="47.15685304981339" lon="3.10751461080315"><ele>253.0</ele><time>2026-04-25T14:55:44Z</time></trkpt><trkpt lat="47.15684967678003" lon="3.10740473960082"><ele>252.99999999999997</ele><time>2026-04-25T14:55:45Z</time></trkpt><trkpt lat="47.156851346438906" lon="3.1073069455711653"><ele>253.0</ele><time>2026-04-25T14:55:46Z</time></trkpt><trkpt lat="47.15682691671226" lon="3.1071879541223457"><ele>253.16666666666666</ele><time>2026-04-25T14:55:47Z</time></trkpt><trkpt lat="47.15681613911312" lon="3.107082041256236"><ele>253.33333333333331</ele><time>2026-04-25T14:55:48Z</time></trkpt><trkpt lat="47.15680417829257" lon="3.106956187838398"><ele>253.5</ele><time>2026-04-25T14:55:49Z</time></trkpt><trkpt lat="47.15678106293392" lon="3.106798317382713"><ele>253.66666666666669</ele><time>2026-04-25T14:55:50Z</time></trkpt><trkpt lat="47.15675603936605" lon="3.1066577897661563"><ele>253.83333333333334</ele><time>2026-04-25T14:55:51Z</time></trkpt><trkpt lat="47.156730164799356" lon="3.1065519501676846"><ele>254.0</ele><time>2026-04-25T14:55:52Z</time></trkpt><trkpt lat="47.15668411735788" lon="3.1063866479732387"><ele>254.0</ele><time>2026-04-25T14:55:54Z</time></trkpt><trkpt lat="47.1566650406587" lon="3.106290128099336"><ele>253.99999999999997</ele><time>2026-04-25T14:55:55Z</time></trkpt><trkpt lat="47.15660743805496" lon="3.1061404081331787"><ele>253.99999999999997</ele><time>2026-04-25T14:55:57Z</time></trkpt><trkpt lat="47.156585105994466" lon="3.106053423489546"><ele>254.0</ele><time>2026-04-25T14:55:58Z</time></trkpt><trkpt lat="47.15656884275888" lon="3.1058629744315"><ele>254.0</ele><time>2026-04-25T14:56:00Z</time></trkpt><trkpt lat="47.15650641280576" lon="3.105711226670391"><ele>254.0</ele><time>2026-04-25T14:56:02Z</time></trkpt><trkpt lat="47.156506539988804" lon="3.1055178279984093"><ele>253.99999999999997</ele><time>2026-04-25T14:56:06Z</time></trkpt><trkpt lat="47.1564941750774" lon="3.105383551882771"><ele>253.99999999999997</ele><time>2026-04-25T14:56:07Z</time></trkpt><trkpt lat="47.15646854913971" lon="3.1052436570350257"><ele>254.0</ele><time>2026-04-25T14:56:08Z</time></trkpt><trkpt lat="47.15645178278398" lon="3.105083914660853"><ele>254.0</ele><time>2026-04-25T14:56:09Z</time></trkpt><trkpt lat="47.15644534504014" lon="3.1048765438084356"><ele>254.6</ele><time>2026-04-25T14:56:10Z</time></trkpt><trkpt lat="47.15642013424821" lon="3.1047043403103385"><ele>255.2</ele><time>2026-04-25T14:56:11Z</time></trkpt><trkpt lat="47.15639545728571" lon="3.1045615753032854"><ele>255.79999999999998</ele><time>2026-04-25T14:56:12Z</time></trkpt><trkpt lat="47.15636494092389" lon="3.104421727216517"><ele>256.4</ele><time>2026-04-25T14:56:13Z</time></trkpt><trkpt lat="47.15632429213876" lon="3.1042981765085305"><ele>257.0</ele><time>2026-04-25T14:56:14Z</time></trkpt><trkpt lat="47.15627801865416" lon="3.1041579677966835"><ele>257.8</ele><time>2026-04-25T14:56:15Z</time></trkpt><trkpt lat="47.156229045708805" lon="3.10400381944639"><ele>258.6</ele><time>2026-04-25T14:56:16Z</time></trkpt><trkpt lat="47.15617586414861" lon="3.1038682074093034"><ele>259.40000000000003</ele><time>2026-04-25T14:56:17Z</time></trkpt><trkpt lat="47.15613562391372" lon="3.1037655405685847"><ele>260.2</ele><time>2026-04-25T14:56:18Z</time></trkpt><trkpt lat="47.156108111525654" lon="3.1036688448200493"><ele>261.0</ele><time>2026-04-25T14:56:19Z</time></trkpt><trkpt lat="47.15607171202974" lon="3.1035582656850544"><ele>261.0</ele><time>2026-04-25T14:56:20Z</time></trkpt><trkpt lat="47.156033791227614" lon="3.1034438011618333"><ele>261.0</ele><time>2026-04-25T14:56:21Z</time></trkpt><trkpt lat="47.15596825388266" lon="3.103264678554761"><ele>261.0</ele><time>2026-04-25T14:56:22.999Z</time></trkpt><trkpt lat="47.15595281113296" lon="3.103156311825998"><ele>261.0</ele><time>2026-04-25T14:56:23.999Z</time></trkpt><trkpt lat="47.15593165686491" lon="3.1029726777041438"><ele>261.0</ele><time>2026-04-25T14:56:25.999Z</time></trkpt><trkpt lat="47.1559351788942" lon="3.102876547033701"><ele>261.5</ele><time>2026-04-25T14:56:26.999Z</time></trkpt><trkpt lat="47.155941905111455" lon="3.1027728830706884"><ele>262.0</ele><time>2026-04-25T14:56:27.999Z</time></trkpt><trkpt lat="47.15592273006216" lon="3.1026009714756793"><ele>262.5</ele><time>2026-04-25T14:56:29.999Z</time></trkpt><trkpt lat="47.15588886219744" lon="3.1024821569148173"><ele>263.0</ele><time>2026-04-25T14:56:31.999Z</time></trkpt><trkpt lat="47.15587713563043" lon="3.102346163195668"><ele>263.5</ele><time>2026-04-25T14:56:33.999Z</time></trkpt><trkpt lat="47.155873128790205" lon="3.1022370996349764"><ele>264.0</ele><time>2026-04-25T14:56:35.999Z</time></trkpt><trkpt lat="47.15588505355202" lon="3.102036373653172"><ele>264.0</ele><time>2026-04-25T14:56:38.999Z</time></trkpt><trkpt lat="47.15587839293761" lon="3.1019000080087062"><ele>264.0</ele><time>2026-04-25T14:56:39.999Z</time></trkpt><trkpt lat="47.15584667432751" lon="3.1017667288251864"><ele>264.0</ele><time>2026-04-25T14:56:40.999Z</time></trkpt><trkpt lat="47.15585768760714" lon="3.1016346562805595"><ele>264.0</ele><time>2026-04-25T14:56:41.999Z</time></trkpt><trkpt lat="47.15585111328911" lon="3.101506436052059"><ele>264.0</ele><time>2026-04-25T14:56:42.999Z</time></trkpt><trkpt lat="47.15584936217996" lon="3.1013644082462206"><ele>263.4</ele><time>2026-04-25T14:56:43.999Z</time></trkpt><trkpt lat="47.15583502951101" lon="3.1012392456708255"><ele>262.79999999999995</ele><time>2026-04-25T14:56:44.999Z</time></trkpt><trkpt lat="47.155835789925604" lon="3.1010913779152895"><ele>262.20000000000005</ele><time>2026-04-25T14:56:45.999Z</time></trkpt><trkpt lat="47.15584650430934" lon="3.1009449186709737"><ele>261.6</ele><time>2026-04-25T14:56:46.999Z</time></trkpt><trkpt lat="47.155815881178796" lon="3.100747311848177"><ele>261.0</ele><time>2026-04-25T14:56:47.999Z</time></trkpt><trkpt lat="47.15579928284454" lon="3.1006160766928157"><ele>260.8333333333333</ele><time>2026-04-25T14:56:48.999Z</time></trkpt><trkpt lat="47.15578864797897" lon="3.100501624017078"><ele>260.6666666666667</ele><time>2026-04-25T14:56:49.999Z</time></trkpt><trkpt lat="47.15576574680658" lon="3.1003860210596983"><ele>260.5</ele><time>2026-04-25T14:56:50.999Z</time></trkpt><trkpt lat="47.155756454691485" lon="3.1002364710644517"><ele>260.33333333333337</ele><time>2026-04-25T14:56:51.999Z</time></trkpt><trkpt lat="47.15573584828383" lon="3.1001193233555733"><ele>260.1666666666667</ele><time>2026-04-25T14:56:52.999Z</time></trkpt><trkpt lat="47.155733126007405" lon="3.1000072297336443"><ele>260.0</ele><time>2026-04-25T14:56:54.999Z</time></trkpt><trkpt lat="47.15583099728818" lon="3.099981912094424"><ele>260.0</ele><time>2026-04-25T14:56:58.999Z</time></trkpt><trkpt lat="47.15595486888332" lon="3.099967163201245"><ele>260.0</ele><time>2026-04-25T14:57:00.999Z</time></trkpt><trkpt lat="47.15603358287081" lon="3.0999598479142705"><ele>260.0</ele><time>2026-04-25T14:57:01.999Z</time></trkpt><trkpt lat="47.15610985911519" lon="3.0999721246366176"><ele>260.0</ele><time>2026-04-25T14:57:02.999Z</time></trkpt><trkpt lat="47.156201570505374" lon="3.099985247593904"><ele>260.0</ele><time>2026-04-25T14:57:03.999Z</time></trkpt><trkpt lat="47.15633175949126" lon="3.0999808257889785"><ele>260.0</ele><time>2026-04-25T14:57:04.999Z</time></trkpt><trkpt lat="47.1564658422173" lon="3.099983930902601"><ele>260.0</ele><time>2026-04-25T14:57:05.999Z</time></trkpt><trkpt lat="47.156616990459725" lon="3.09997249943072"><ele>260.0</ele><time>2026-04-25T14:57:06.999Z</time></trkpt><trkpt lat="47.15677825380739" lon="3.099950626464935"><ele>260.0</ele><time>2026-04-25T14:57:07.999Z</time></trkpt><trkpt lat="47.156944475121975" lon="3.0999458397994752"><ele>260.0</ele><time>2026-04-25T14:57:08.999Z</time></trkpt><trkpt lat="47.15711819797215" lon="3.0999205466965183"><ele>260.0</ele><time>2026-04-25T14:57:09.999Z</time></trkpt><trkpt lat="47.157265655361385" lon="3.099901139150606"><ele>260.0</ele><time>2026-04-25T14:57:10.999Z</time></trkpt><trkpt lat="47.15740302159326" lon="3.0998907740720716"><ele>260.0</ele><time>2026-04-25T14:57:11.999Z</time></trkpt><trkpt lat="47.15752438895893" lon="3.099884456216968"><ele>260.0</ele><time>2026-04-25T14:57:12.999Z</time></trkpt><trkpt lat="47.15765000517914" lon="3.099880489116954"><ele>260.0</ele><time>2026-04-25T14:57:13.999Z</time></trkpt><trkpt lat="47.157823568659936" lon="3.099839802141031"><ele>260.0</ele><time>2026-04-25T14:57:14.999Z</time></trkpt><trkpt lat="47.15799548487541" lon="3.0998526786400986"><ele>260.0</ele><time>2026-04-25T14:57:15.999Z</time></trkpt><trkpt lat="47.15817702062646" lon="3.099848649618653"><ele>260.0</ele><time>2026-04-25T14:57:16.999Z</time></trkpt><trkpt lat="47.15836855646879" lon="3.0998414537606305"><ele>260.0</ele><time>2026-04-25T14:57:17.999Z</time></trkpt><trkpt lat="47.15856235830518" lon="3.0998136975715167"><ele>260.25</ele><time>2026-04-25T14:57:18.999Z</time></trkpt><trkpt lat="47.15872839264077" lon="3.099812690681906"><ele>260.5</ele><time>2026-04-25T14:57:19.999Z</time></trkpt><trkpt lat="47.1588711542435" lon="3.0997948691617743"><ele>260.75</ele><time>2026-04-25T14:57:20.999Z</time></trkpt><trkpt lat="47.15900145758333" lon="3.0998020714614047"><ele>261.0</ele><time>2026-04-25T14:57:21.999Z</time></trkpt><trkpt lat="47.15914320504005" lon="3.0997955154755465"><ele>261.3333333333333</ele><time>2026-04-25T14:57:22.999Z</time></trkpt><trkpt lat="47.159295067361896" lon="3.0997903625207472"><ele>261.66666666666663</ele><time>2026-04-25T14:57:23.999Z</time></trkpt><trkpt lat="47.15945336225026" lon="3.0997923855777048"><ele>262.0</ele><time>2026-04-25T14:57:24.999Z</time></trkpt><trkpt lat="47.15960382873888" lon="3.099780688919769"><ele>262.0</ele><time>2026-04-25T14:57:25.999Z</time></trkpt><trkpt lat="47.15972438198019" lon="3.0997721315461155"><ele>262.0</ele><time>2026-04-25T14:57:26.999Z</time></trkpt><trkpt lat="47.159831686610424" lon="3.099762437402105"><ele>262.0</ele><time>2026-04-25T14:57:27.999Z</time></trkpt><trkpt lat="47.15991722684272" lon="3.099750284408557"><ele>262.0</ele><time>2026-04-25T14:57:28.999Z</time></trkpt><trkpt lat="47.15999439118044" lon="3.0997590825001384"><ele>262.0</ele><time>2026-04-25T14:57:29.999Z</time></trkpt><trkpt lat="47.16010377496185" lon="3.0997851544557595"><ele>262.0</ele><time>2026-04-25T14:57:32Z</time></trkpt><trkpt lat="47.16015304663431" lon="3.0998540951069655"><ele>262.0</ele><time>2026-04-25T14:57:33Z</time></trkpt><trkpt lat="47.160184123928026" lon="3.0999384739373794"><ele>262.0</ele><time>2026-04-25T14:57:34Z</time></trkpt><trkpt lat="47.160193224650556" lon="3.1000519300816576"><ele>262.0</ele><time>2026-04-25T14:57:35Z</time></trkpt><trkpt lat="47.160190500119384" lon="3.1001989607900216"><ele>262.0</ele><time>2026-04-25T14:57:36Z</time></trkpt><trkpt lat="47.16018658807791" lon="3.1003864428584933"><ele>262.0</ele><time>2026-04-25T14:57:37Z</time></trkpt><trkpt lat="47.16019077938753" lon="3.100595312183171"><ele>262.0</ele><time>2026-04-25T14:57:38Z</time></trkpt><trkpt lat="47.160194518892155" lon="3.1008187458234873"><ele>262.0</ele><time>2026-04-25T14:57:39Z</time></trkpt><trkpt lat="47.160199129274986" lon="3.1010639547880285"><ele>262.0</ele><time>2026-04-25T14:57:40Z</time></trkpt><trkpt lat="47.16020299602432" lon="3.101299917781654"><ele>262.0</ele><time>2026-04-25T14:57:41Z</time></trkpt><trkpt lat="47.160204727846995" lon="3.101521888363228"><ele>262.0</ele><time>2026-04-25T14:57:42Z</time></trkpt><trkpt lat="47.16020368637428" lon="3.1017109869382344"><ele>262.0</ele><time>2026-04-25T14:57:43Z</time></trkpt><trkpt lat="47.160219581042874" lon="3.1018935990606518"><ele>262.0</ele><time>2026-04-25T14:57:44Z</time></trkpt><trkpt lat="47.16023164331176" lon="3.102057528315786"><ele>262.25</ele><time>2026-04-25T14:57:45Z</time></trkpt><trkpt lat="47.16023613322211" lon="3.1022319904079163"><ele>262.5</ele><time>2026-04-25T14:57:46Z</time></trkpt><trkpt lat="47.16024610988764" lon="3.1024169539531505"><ele>262.75</ele><time>2026-04-25T14:57:47Z</time></trkpt><trkpt lat="47.160251106484836" lon="3.1025775722218243"><ele>263.0</ele><time>2026-04-25T14:57:48Z</time></trkpt><trkpt lat="47.160256565529494" lon="3.1027218069806266"><ele>263.2</ele><time>2026-04-25T14:57:49Z</time></trkpt><trkpt lat="47.16025253237204" lon="3.1028628109321432"><ele>263.4</ele><time>2026-04-25T14:57:50Z</time></trkpt><trkpt lat="47.160252351384074" lon="3.1030224913610884"><ele>263.59999999999997</ele><time>2026-04-25T14:57:51Z</time></trkpt><trkpt lat="47.16025534957148" lon="3.103197243468605"><ele>263.8</ele><time>2026-04-25T14:57:52Z</time></trkpt><trkpt lat="47.16026738027582" lon="3.103380989273551"><ele>264.0</ele><time>2026-04-25T14:57:53Z</time></trkpt><trkpt lat="47.16027606379455" lon="3.103542365011642"><ele>263.59999999999997</ele><time>2026-04-25T14:57:54Z</time></trkpt><trkpt lat="47.16028708678924" lon="3.103689637374349"><ele>263.2</ele><time>2026-04-25T14:57:55Z</time></trkpt><trkpt lat="47.16027900610493" lon="3.103827930258479"><ele>262.79999999999995</ele><time>2026-04-25T14:57:56Z</time></trkpt><trkpt lat="47.16028095034053" lon="3.1039824485482637"><ele>262.4</ele><time>2026-04-25T14:57:57Z</time></trkpt><trkpt lat="47.16028390380873" lon="3.104132395113726"><ele>262.0</ele><time>2026-04-25T14:57:58Z</time></trkpt><trkpt lat="47.16029052957224" lon="3.1042713547512464"><ele>261.4</ele><time>2026-04-25T14:57:59Z</time></trkpt><trkpt lat="47.16029436114785" lon="3.1044192699041298"><ele>260.79999999999995</ele><time>2026-04-25T14:58:00Z</time></trkpt><trkpt lat="47.160306628007184" lon="3.1045426589252827"><ele>260.2</ele><time>2026-04-25T14:58:01Z</time></trkpt><trkpt lat="47.16031314251592" lon="3.1046895026425787"><ele>259.59999999999997</ele><time>2026-04-25T14:58:02Z</time></trkpt><trkpt lat="47.16032262749254" lon="3.1048252349631396"><ele>259.0</ele><time>2026-04-25T14:58:03Z</time></trkpt><trkpt lat="47.160310489690374" lon="3.104937444307509"><ele>258.0</ele><time>2026-04-25T14:58:04Z</time></trkpt><trkpt lat="47.16030415252485" lon="3.105042551376433"><ele>257.0</ele><time>2026-04-25T14:58:05Z</time></trkpt><trkpt lat="47.160310244917405" lon="3.1051403667880857"><ele>256.0</ele><time>2026-04-25T14:58:06Z</time></trkpt><trkpt lat="47.16035667549314" lon="3.1052644017128186"><ele>255.0</ele><time>2026-04-25T14:58:08Z</time></trkpt><trkpt lat="47.16045170836628" lon="3.1053653667097936"><ele>253.99999999999997</ele><time>2026-04-25T14:58:10Z</time></trkpt><trkpt lat="47.160524256889246" lon="3.105377109139502"><ele>253.0</ele><time>2026-04-25T14:58:11Z</time></trkpt><trkpt lat="47.16058936876156" lon="3.105441752689748"><ele>253.0</ele><time>2026-04-25T14:58:13Z</time></trkpt><trkpt lat="47.160680227366925" lon="3.105605483013194"><ele>253.0</ele><time>2026-04-25T14:58:15Z</time></trkpt><trkpt lat="47.160714130347316" lon="3.1057493683220203"><ele>253.0</ele><time>2026-04-25T14:58:17Z</time></trkpt><trkpt lat="47.160713941544444" lon="3.1058641658587343"><ele>253.0</ele><time>2026-04-25T14:58:19Z</time></trkpt><trkpt lat="47.16070101639659" lon="3.105965464038925"><ele>253.0</ele><time>2026-04-25T14:58:20Z</time></trkpt><trkpt lat="47.16061716334292" lon="3.106079003181582"><ele>252.16666666666666</ele><time>2026-04-25T14:58:22Z</time></trkpt><trkpt lat="47.16057310061649" lon="3.1061508061010845"><ele>251.33333333333331</ele><time>2026-04-25T14:58:23Z</time></trkpt><trkpt lat="47.16063684641373" lon="3.106242788351559"><ele>250.5</ele><time>2026-04-25T14:58:50.999Z</time></trkpt><trkpt lat="47.16054652066328" lon="3.1061586974623197"><ele>249.66666666666669</ele><time>2026-04-25T14:59:19.999Z</time></trkpt><trkpt lat="47.160595247524036" lon="3.106226944177995"><ele>248.83333333333334</ele><time>2026-04-25T14:59:58Z</time></trkpt><trkpt lat="47.16068753810967" lon="3.1061709065798344"><ele>248.0</ele><time>2026-04-25T15:00:28Z</time></trkpt><trkpt lat="47.160637443988165" lon="3.1062440255974257"><ele>248.0</ele><time>2026-04-25T15:00:31Z</time></trkpt><trkpt lat="47.160612884250185" lon="3.106378601050021"><ele>248.0</ele><time>2026-04-25T15:00:33Z</time></trkpt><trkpt lat="47.160579653415034" lon="3.1064689054903005"><ele>248.0</ele><time>2026-04-25T15:00:35Z</time></trkpt><trkpt lat="47.160560341033644" lon="3.1066481468048806"><ele>248.0</ele><time>2026-04-25T15:00:38Z</time></trkpt><trkpt lat="47.16054132483738" lon="3.1067460062304932"><ele>248.0</ele><time>2026-04-25T15:00:39.999Z</time></trkpt><trkpt lat="47.16053403368935" lon="3.106928234613666"><ele>248.2</ele><time>2026-04-25T15:00:41.999Z</time></trkpt><trkpt lat="47.1605015587524" lon="3.107123453321575"><ele>248.4</ele><time>2026-04-25T15:00:43.999Z</time></trkpt><trkpt lat="47.16048466154582" lon="3.107241427892937"><ele>248.59999999999997</ele><time>2026-04-25T15:00:44.999Z</time></trkpt><trkpt lat="47.160484753409165" lon="3.107337799415613"><ele>248.79999999999998</ele><time>2026-04-25T15:00:45.999Z</time></trkpt><trkpt lat="47.1604639687327" lon="3.1074707678900366"><ele>249.0</ele><time>2026-04-25T15:00:46.999Z</time></trkpt><trkpt lat="47.16044116313467" lon="3.1076190829072736"><ele>249.79999999999998</ele><time>2026-04-25T15:00:47.999Z</time></trkpt><trkpt lat="47.16043674097314" lon="3.1077395025903667"><ele>250.59999999999997</ele><time>2026-04-25T15:00:48.999Z</time></trkpt><trkpt lat="47.1604401132467" lon="3.107851792220696"><ele>251.4</ele><time>2026-04-25T15:00:49.999Z</time></trkpt><trkpt lat="47.160450857106156" lon="3.10797916943259"><ele>252.2</ele><time>2026-04-25T15:00:50.999Z</time></trkpt><trkpt lat="47.16046723930562" lon="3.1081259453699066"><ele>253.0</ele><time>2026-04-25T15:00:51.999Z</time></trkpt><trkpt lat="47.16050574873525" lon="3.1082908138800156"><ele>254.2</ele><time>2026-04-25T15:00:52.999Z</time></trkpt><trkpt lat="47.160534672834444" lon="3.108419716492923"><ele>255.4</ele><time>2026-04-25T15:00:53.999Z</time></trkpt><trkpt lat="47.16049878352358" lon="3.108534806153747"><ele>256.59999999999997</ele><time>2026-04-25T15:00:54.999Z</time></trkpt><trkpt lat="47.160495914564805" lon="3.1086604377843656"><ele>257.8</ele><time>2026-04-25T15:00:55.999Z</time></trkpt><trkpt lat="47.160495285102385" lon="3.1087930410163707"><ele>259.0</ele><time>2026-04-25T15:00:56.999Z</time></trkpt><trkpt lat="47.160515431581" lon="3.1089423474493034"><ele>259.59999999999997</ele><time>2026-04-25T15:00:57.999Z</time></trkpt><trkpt lat="47.16052030871001" lon="3.109088609938697"><ele>260.2</ele><time>2026-04-25T15:00:58.999Z</time></trkpt><trkpt lat="47.16053850172822" lon="3.109284539815502"><ele>260.79999999999995</ele><time>2026-04-25T15:00:59.999Z</time></trkpt><trkpt lat="47.160534075099484" lon="3.1094520040842037"><ele>261.4</ele><time>2026-04-25T15:01:00.999Z</time></trkpt><trkpt lat="47.16052723213613" lon="3.109598850398083"><ele>262.0</ele><time>2026-04-25T15:01:01.999Z</time></trkpt><trkpt lat="47.160514816510315" lon="3.109753137350505"><ele>262.0</ele><time>2026-04-25T15:01:02.999Z</time></trkpt><trkpt lat="47.16056588085106" lon="3.1098795706168745"><ele>262.0</ele><time>2026-04-25T15:01:03.999Z</time></trkpt><trkpt lat="47.160539779993684" lon="3.1099902082190947"><ele>262.0</ele><time>2026-04-25T15:01:04.999Z</time></trkpt><trkpt lat="47.16052676853004" lon="3.110109085532914"><ele>262.0</ele><time>2026-04-25T15:01:05.999Z</time></trkpt><trkpt lat="47.16053751403683" lon="3.110214263796739"><ele>262.0</ele><time>2026-04-25T15:01:06.999Z</time></trkpt><trkpt lat="47.160534839509815" lon="3.1103625155430326"><ele>262.0</ele><time>2026-04-25T15:01:08.999Z</time></trkpt><trkpt lat="47.160535826301484" lon="3.1104893928960724"><ele>262.16666666666663</ele><time>2026-04-25T15:01:09.999Z</time></trkpt><trkpt lat="47.16052616217009" lon="3.1105953532343844"><ele>262.3333333333333</ele><time>2026-04-25T15:01:10.999Z</time></trkpt><trkpt lat="47.160526842728984" lon="3.1106900255976004"><ele>262.5</ele><time>2026-04-25T15:01:11.999Z</time></trkpt><trkpt lat="47.16055966138051" lon="3.11082714845502"><ele>262.6666666666667</ele><time>2026-04-25T15:01:12.999Z</time></trkpt><trkpt lat="47.160563542759306" lon="3.1109871716338953"><ele>262.83333333333337</ele><time>2026-04-25T15:01:13.999Z</time></trkpt><trkpt lat="47.16057169102091" lon="3.1111328316512723"><ele>263.0</ele><time>2026-04-25T15:01:14.999Z</time></trkpt><trkpt lat="47.160580086247485" lon="3.111284824171484"><ele>263.6</ele><time>2026-04-25T15:01:15.999Z</time></trkpt><trkpt lat="47.16056888604775" lon="3.11144765872058"><ele>264.20000000000005</ele><time>2026-04-25T15:01:16.999Z</time></trkpt><trkpt lat="47.16056573460049" lon="3.111587054962302"><ele>264.8</ele><time>2026-04-25T15:01:17.999Z</time></trkpt><trkpt lat="47.16057386267236" lon="3.1117361039976075"><ele>265.40000000000003</ele><time>2026-04-25T15:01:18.999Z</time></trkpt><trkpt lat="47.160558765494365" lon="3.111890512384123"><ele>266.0</ele><time>2026-04-25T15:01:19.999Z</time></trkpt><trkpt lat="47.16056099428007" lon="3.1120155593165775"><ele>267.0</ele><time>2026-04-25T15:01:20.999Z</time></trkpt><trkpt lat="47.16054757790528" lon="3.1122501157328126"><ele>268.0</ele><time>2026-04-25T15:01:22.999Z</time></trkpt><trkpt lat="47.16055801108881" lon="3.1124229733612827"><ele>269.0</ele><time>2026-04-25T15:01:23.999Z</time></trkpt><trkpt lat="47.16056375744512" lon="3.112580421285315"><ele>270.0</ele><time>2026-04-25T15:01:24.999Z</time></trkpt><trkpt lat="47.160563977599786" lon="3.1127573667777773"><ele>271.0</ele><time>2026-04-25T15:01:25.999Z</time></trkpt><trkpt lat="47.16057896162959" lon="3.11299261313013"><ele>272.0</ele><time>2026-04-25T15:01:26.999Z</time></trkpt><trkpt lat="47.16055150981781" lon="3.1131528449074284"><ele>273.0</ele><time>2026-04-25T15:01:27.999Z</time></trkpt><trkpt lat="47.16053194203673" lon="3.1133326080075743"><ele>274.0</ele><time>2026-04-25T15:01:28.999Z</time></trkpt><trkpt lat="47.16054720603714" lon="3.113499935574217"><ele>274.2</ele><time>2026-04-25T15:01:29.999Z</time></trkpt><trkpt lat="47.16055003146556" lon="3.1136674863611518"><ele>274.4</ele><time>2026-04-25T15:01:30.999Z</time></trkpt><trkpt lat="47.160571824566496" lon="3.113817550002754"><ele>274.6</ele><time>2026-04-25T15:01:31.999Z</time></trkpt><trkpt lat="47.16058628589731" lon="3.113965107620138"><ele>274.8</ele><time>2026-04-25T15:01:32.999Z</time></trkpt><trkpt lat="47.1605939506147" lon="3.114123704083612"><ele>275.0</ele><time>2026-04-25T15:01:33.999Z</time></trkpt><trkpt lat="47.160588692966805" lon="3.1142623539992655"><ele>275.0</ele><time>2026-04-25T15:01:34.999Z</time></trkpt><trkpt lat="47.16059821855795" lon="3.1143682954566354"><ele>275.0</ele><time>2026-04-25T15:01:35.999Z</time></trkpt><trkpt lat="47.16063110326144" lon="3.114455577267156"><ele>275.0</ele><time>2026-04-25T15:01:38.999Z</time></trkpt><trkpt lat="47.16056411384494" lon="3.1145262268805327"><ele>275.0</ele><time>2026-04-25T15:01:56Z</time></trkpt><trkpt lat="47.16053936797249" lon="3.1146153951083737"><ele>275.0</ele><time>2026-04-25T15:02:08Z</time></trkpt><trkpt lat="47.16053010862868" lon="3.114707459220059"><ele>275.0</ele><time>2026-04-25T15:02:17Z</time></trkpt><trkpt lat="47.16056975327515" lon="3.114627969418053"><ele>275.0</ele><time>2026-04-25T15:02:53Z</time></trkpt></trkseg><trkseg><trkpt lat="47.16057687234723" lon="3.1145683375781417"><ele>275.0</ele><time>2026-04-25T15:16:38Z</time></trkpt><trkpt lat="47.16050759987399" lon="3.114567550567924"><ele>275.0</ele><time>2026-04-25T15:18:55Z</time></trkpt><trkpt lat="47.16053592577146" lon="3.1146849621074835"><ele>275.0</ele><time>2026-04-25T15:18:59Z</time></trkpt><trkpt lat="47.1605188502207" lon="3.1148339509007728"><ele>275.0</ele><time>2026-04-25T15:19:01Z</time></trkpt><trkpt lat="47.160543716445055" lon="3.1150018222772764"><ele>275.0</ele><time>2026-04-25T15:19:03Z</time></trkpt><trkpt lat="47.16054256522037" lon="3.115181482943069"><ele>274.6666666666667</ele><time>2026-04-25T15:19:05Z</time></trkpt><trkpt lat="47.16053702127586" lon="3.115287316428023"><ele>274.33333333333337</ele><time>2026-04-25T15:19:06Z</time></trkpt><trkpt lat="47.16055268730108" lon="3.115420937836623"><ele>274.0</ele><time>2026-04-25T15:19:07Z</time></trkpt><trkpt lat="47.16056812247029" lon="3.115578186588612"><ele>273.6666666666667</ele><time>2026-04-25T15:19:08Z</time></trkpt><trkpt lat="47.1605806643126" lon="3.1156932535732786"><ele>273.3333333333333</ele><time>2026-04-25T15:19:09Z</time></trkpt><trkpt lat="47.16054237618785" lon="3.115786046717933"><ele>273.0</ele><time>2026-04-25T15:19:10Z</time></trkpt><trkpt lat="47.16054597853211" lon="3.1158888996259875"><ele>273.0</ele><time>2026-04-25T15:19:11Z</time></trkpt><trkpt lat="47.16056545917382" lon="3.116025337555805"><ele>273.0</ele><time>2026-04-25T15:19:12Z</time></trkpt><trkpt lat="47.160573806742725" lon="3.1161768208368814"><ele>273.0</ele><time>2026-04-25T15:19:13Z</time></trkpt><trkpt lat="47.160593201014926" lon="3.116296535157759"><ele>273.0</ele><time>2026-04-25T15:19:14Z</time></trkpt><trkpt lat="47.16060268020375" lon="3.11641091734416"><ele>273.0</ele><time>2026-04-25T15:19:15Z</time></trkpt><trkpt lat="47.160649177748645" lon="3.1165256734724247"><ele>273.0</ele><time>2026-04-25T15:19:16Z</time></trkpt><trkpt lat="47.16062387402652" lon="3.1167213145715142"><ele>273.0</ele><time>2026-04-25T15:19:18Z</time></trkpt><trkpt lat="47.16063215646137" lon="3.1168372727255225"><ele>273.0</ele><time>2026-04-25T15:19:19Z</time></trkpt><trkpt lat="47.160631540755475" lon="3.116999167962088"><ele>273.0</ele><time>2026-04-25T15:19:21Z</time></trkpt><trkpt lat="47.160645354129386" lon="3.11709565000351"><ele>273.0</ele><time>2026-04-25T15:19:22Z</time></trkpt><trkpt lat="47.16063360174329" lon="3.1172584034527224"><ele>273.0</ele><time>2026-04-25T15:19:24Z</time></trkpt><trkpt lat="47.160639675944914" lon="3.117386725873302"><ele>273.0</ele><time>2026-04-25T15:19:26Z</time></trkpt><trkpt lat="47.16062881673646" lon="3.117527114349742"><ele>273.0</ele><time>2026-04-25T15:19:29Z</time></trkpt><trkpt lat="47.1606374348312" lon="3.117690123213821"><ele>273.0</ele><time>2026-04-25T15:19:32Z</time></trkpt><trkpt lat="47.16061524950374" lon="3.117778398887469"><ele>273.0</ele><time>2026-04-25T15:19:34Z</time></trkpt><trkpt lat="47.16062213163968" lon="3.1178843385416912"><ele>273.0</ele><time>2026-04-25T15:19:36Z</time></trkpt><trkpt lat="47.16065646737549" lon="3.1180156241536494"><ele>273.0</ele><time>2026-04-25T15:19:39Z</time></trkpt><trkpt lat="47.16063302631458" lon="3.1181111324291537"><ele>273.0</ele><time>2026-04-25T15:19:40Z</time></trkpt><trkpt lat="47.160646731893806" lon="3.118240912694511"><ele>273.0</ele><time>2026-04-25T15:19:41Z</time></trkpt><trkpt lat="47.160666968359045" lon="3.118427769958516"><ele>273.0</ele><time>2026-04-25T15:19:42Z</time></trkpt><trkpt lat="47.16066967375645" lon="3.1185894487381747"><ele>273.0</ele><time>2026-04-25T15:19:43Z</time></trkpt><trkpt lat="47.16067760654685" lon="3.1187074410302125"><ele>273.0</ele><time>2026-04-25T15:19:44Z</time></trkpt><trkpt lat="47.160653945541256" lon="3.1189483636898356"><ele>273.0</ele><time>2026-04-25T15:19:46Z</time></trkpt><trkpt lat="47.160644774407984" lon="3.119055868153495"><ele>273.0</ele><time>2026-04-25T15:19:47Z</time></trkpt><trkpt lat="47.16065607142763" lon="3.1192059865374335"><ele>273.0</ele><time>2026-04-25T15:19:48Z</time></trkpt><trkpt lat="47.16064907935312" lon="3.119343094117489"><ele>273.0</ele><time>2026-04-25T15:19:49Z</time></trkpt><trkpt lat="47.160647368603264" lon="3.119473883708649"><ele>273.0</ele><time>2026-04-25T15:19:50Z</time></trkpt><trkpt lat="47.16063983650644" lon="3.1195987501977696"><ele>273.0</ele><time>2026-04-25T15:19:51Z</time></trkpt><trkpt lat="47.160628256729446" lon="3.119717209849838"><ele>273.0</ele><time>2026-04-25T15:19:52Z</time></trkpt><trkpt lat="47.16060718666747" lon="3.1198303851609586"><ele>273.0</ele><time>2026-04-25T15:19:53Z</time></trkpt><trkpt lat="47.16059069921027" lon="3.1199294775133097"><ele>273.0</ele><time>2026-04-25T15:19:54Z</time></trkpt><trkpt lat="47.160624748041336" lon="3.1201124832166216"><ele>273.0</ele><time>2026-04-25T15:19:55.001Z</time></trkpt><trkpt lat="47.16062070927097" lon="3.1202202989682744"><ele>272.3333333333333</ele><time>2026-04-25T15:19:56.001Z</time></trkpt><trkpt lat="47.160595195806096" lon="3.1203374940083917"><ele>271.6666666666667</ele><time>2026-04-25T15:19:57.001Z</time></trkpt><trkpt lat="47.160591956969824" lon="3.120444322182865"><ele>271.0</ele><time>2026-04-25T15:19:58.001Z</time></trkpt><trkpt lat="47.16059549185115" lon="3.120566555203802"><ele>270.33333333333337</ele><time>2026-04-25T15:19:59.001Z</time></trkpt><trkpt lat="47.16061788547055" lon="3.120708753667717"><ele>269.6666666666667</ele><time>2026-04-25T15:20:00.001Z</time></trkpt><trkpt lat="47.160654428862024" lon="3.120833176417198"><ele>269.0</ele><time>2026-04-25T15:20:01.001Z</time></trkpt><trkpt lat="47.1606678519422" lon="3.1209411548460153"><ele>268.25</ele><time>2026-04-25T15:20:02.001Z</time></trkpt><trkpt lat="47.160671976266116" lon="3.1210851277153773"><ele>267.5</ele><time>2026-04-25T15:20:03.001Z</time></trkpt><trkpt lat="47.16068172628857" lon="3.121232665727383"><ele>266.75</ele><time>2026-04-25T15:20:04.001Z</time></trkpt><trkpt lat="47.160696035319106" lon="3.121410218816954"><ele>266.0</ele><time>2026-04-25T15:20:05.001Z</time></trkpt><trkpt lat="47.160691073510456" lon="3.1216253777259233"><ele>265.5</ele><time>2026-04-25T15:20:06.001Z</time></trkpt><trkpt lat="47.16071913105941" lon="3.1218410465352844"><ele>265.0</ele><time>2026-04-25T15:20:07.001Z</time></trkpt><trkpt lat="47.160738702464265" lon="3.1220008631167757"><ele>264.5</ele><time>2026-04-25T15:20:08.001Z</time></trkpt><trkpt lat="47.16075056832784" lon="3.1221468675805997"><ele>264.0</ele><time>2026-04-25T15:20:09.001Z</time></trkpt><trkpt lat="47.16075936400604" lon="3.122285701574586"><ele>265.8</ele><time>2026-04-25T15:20:10.001Z</time></trkpt><trkpt lat="47.16078165619065" lon="3.1224068171329544"><ele>267.59999999999997</ele><time>2026-04-25T15:20:11.001Z</time></trkpt><trkpt lat="47.16079665589756" lon="3.1225565713487593"><ele>269.4</ele><time>2026-04-25T15:20:12Z</time></trkpt><trkpt lat="47.1607915590293" lon="3.122700328419139"><ele>271.2</ele><time>2026-04-25T15:20:13Z</time></trkpt><trkpt lat="47.160792962450216" lon="3.1228637933776437"><ele>273.0</ele><time>2026-04-25T15:20:14Z</time></trkpt><trkpt lat="47.16079339494633" lon="3.122997710915938"><ele>273.0</ele><time>2026-04-25T15:20:15Z</time></trkpt><trkpt lat="47.16080114559194" lon="3.1231321688596134"><ele>273.0</ele><time>2026-04-25T15:20:16Z</time></trkpt><trkpt lat="47.160804781138985" lon="3.1232589370837167"><ele>273.0</ele><time>2026-04-25T15:20:18Z</time></trkpt><trkpt lat="47.16080532145218" lon="3.1233860898453276"><ele>273.0</ele><time>2026-04-25T15:20:21Z</time></trkpt><trkpt lat="47.160782534661685" lon="3.12347359851162"><ele>273.0</ele><time>2026-04-25T15:20:24Z</time></trkpt><trkpt lat="47.16086305453645" lon="3.1240509760931188"><ele>275.0</ele><time>2026-04-25T15:20:27Z</time></trkpt><trkpt lat="47.160875706170366" lon="3.124204785234699"><ele>277.0</ele><time>2026-04-25T15:20:28Z</time></trkpt><trkpt lat="47.16086100211016" lon="3.1243842162056796"><ele>279.0</ele><time>2026-04-25T15:20:29Z</time></trkpt><trkpt lat="47.160873197779054" lon="3.1245174046529525"><ele>281.0</ele><time>2026-04-25T15:20:30Z</time></trkpt><trkpt lat="47.16087971461013" lon="3.1246811276116575"><ele>283.0</ele><time>2026-04-25T15:20:32Z</time></trkpt><trkpt lat="47.160883199177114" lon="3.1247945149544623"><ele>283.8333333333333</ele><time>2026-04-25T15:20:33Z</time></trkpt><trkpt lat="47.16091213177833" lon="3.1249204032444458"><ele>284.66666666666663</ele><time>2026-04-25T15:20:34Z</time></trkpt><trkpt lat="47.160925459148885" lon="3.1250429200766803"><ele>285.5</ele><time>2026-04-25T15:20:35Z</time></trkpt><trkpt lat="47.160914931412634" lon="3.1251427708546653"><ele>286.3333333333333</ele><time>2026-04-25T15:20:36Z</time></trkpt><trkpt lat="47.16092275079401" lon="3.1252584881285386"><ele>287.1666666666667</ele><time>2026-04-25T15:20:37Z</time></trkpt><trkpt lat="47.1609300235956" lon="3.12535147605762"><ele>288.0</ele><time>2026-04-25T15:20:38Z</time></trkpt><trkpt lat="47.16093574780699" lon="3.1254768569354114"><ele>288.0</ele><time>2026-04-25T15:20:39Z</time></trkpt><trkpt lat="47.16092035722946" lon="3.125570525316568"><ele>288.0</ele><time>2026-04-25T15:20:40Z</time></trkpt><trkpt lat="47.16091185577511" lon="3.1256677851476904"><ele>288.0</ele><time>2026-04-25T15:20:41Z</time></trkpt><trkpt lat="47.160920805198955" lon="3.1258600898481306"><ele>288.0</ele><time>2026-04-25T15:20:43Z</time></trkpt><trkpt lat="47.16091800557563" lon="3.125971656024363"><ele>288.0</ele><time>2026-04-25T15:20:44Z</time></trkpt><trkpt lat="47.160915365739925" lon="3.1260728836316853"><ele>288.0</ele><time>2026-04-25T15:20:45Z</time></trkpt><trkpt lat="47.16089761080843" lon="3.126214405599208"><ele>289.1666666666667</ele><time>2026-04-25T15:20:47Z</time></trkpt><trkpt lat="47.160906166294524" lon="3.1263350358418234"><ele>290.3333333333333</ele><time>2026-04-25T15:20:48Z</time></trkpt><trkpt lat="47.16093208722539" lon="3.1264288944114575"><ele>291.5</ele><time>2026-04-25T15:20:49Z</time></trkpt><trkpt lat="47.16091603772691" lon="3.126542984366999"><ele>292.66666666666663</ele><time>2026-04-25T15:20:51Z</time></trkpt><trkpt lat="47.1609192233901" lon="3.1266907357223674"><ele>293.8333333333333</ele><time>2026-04-25T15:20:52Z</time></trkpt><trkpt lat="47.16092267778488" lon="3.1268335173369275"><ele>295.0</ele><time>2026-04-25T15:20:53Z</time></trkpt><trkpt lat="47.16089945068621" lon="3.126955336907198"><ele>296.0</ele><time>2026-04-25T15:20:54Z</time></trkpt><trkpt lat="47.16089353928412" lon="3.127078408728883"><ele>297.0</ele><time>2026-04-25T15:20:55Z</time></trkpt><trkpt lat="47.1609152655548" lon="3.1272531669696493"><ele>298.0</ele><time>2026-04-25T15:20:56Z</time></trkpt><trkpt lat="47.16092532112519" lon="3.1273841723536178"><ele>299.0</ele><time>2026-04-25T15:20:57Z</time></trkpt><trkpt lat="47.160936776925084" lon="3.1275232116124783"><ele>300.0</ele><time>2026-04-25T15:20:58Z</time></trkpt><trkpt lat="47.1609406283672" lon="3.127667220064378"><ele>300.6</ele><time>2026-04-25T15:20:59Z</time></trkpt><trkpt lat="47.160938510466636" lon="3.1278091517324063"><ele>301.2</ele><time>2026-04-25T15:21:00Z</time></trkpt><trkpt lat="47.16095473010978" lon="3.127961153432034"><ele>301.8</ele><time>2026-04-25T15:21:01Z</time></trkpt><trkpt lat="47.16095947704713" lon="3.1281076221700665"><ele>302.4</ele><time>2026-04-25T15:21:02Z</time></trkpt><trkpt lat="47.16096537502108" lon="3.1282324308875604"><ele>303.0</ele><time>2026-04-25T15:21:03Z</time></trkpt><trkpt lat="47.16098099624171" lon="3.1283689453391728"><ele>303.6</ele><time>2026-04-25T15:21:04Z</time></trkpt><trkpt lat="47.16099671753394" lon="3.1284740525433437"><ele>304.20000000000005</ele><time>2026-04-25T15:21:05Z</time></trkpt><trkpt lat="47.160986748806934" lon="3.1286477425251675"><ele>304.8</ele><time>2026-04-25T15:21:07Z</time></trkpt><trkpt lat="47.1609691495592" lon="3.128811614203248"><ele>305.40000000000003</ele><time>2026-04-25T15:21:09Z</time></trkpt><trkpt lat="47.16097608689356" lon="3.1289498468363237"><ele>306.0</ele><time>2026-04-25T15:21:10Z</time></trkpt><trkpt lat="47.16097753420433" lon="3.1291216604432104"><ele>306.6</ele><time>2026-04-25T15:21:11Z</time></trkpt><trkpt lat="47.16097234084588" lon="3.1292520093791913"><ele>307.20000000000005</ele><time>2026-04-25T15:21:12Z</time></trkpt><trkpt lat="47.160973673413444" lon="3.129400373597449"><ele>307.79999999999995</ele><time>2026-04-25T15:21:13Z</time></trkpt><trkpt lat="47.16096306041019" lon="3.129527861947385"><ele>308.4</ele><time>2026-04-25T15:21:14Z</time></trkpt><trkpt lat="47.16098650750542" lon="3.1297121502729506"><ele>309.0</ele><time>2026-04-25T15:21:15Z</time></trkpt><trkpt lat="47.160992661673696" lon="3.1298650046685976"><ele>309.59999999999997</ele><time>2026-04-25T15:21:16Z</time></trkpt><trkpt lat="47.160973086909095" lon="3.1300582842118208"><ele>310.2</ele><time>2026-04-25T15:21:18Z</time></trkpt><trkpt lat="47.160960489119624" lon="3.130259668713839"><ele>310.79999999999995</ele><time>2026-04-25T15:21:20Z</time></trkpt><trkpt lat="47.16095366894046" lon="3.1303740610199173"><ele>311.4</ele><time>2026-04-25T15:21:21Z</time></trkpt><trkpt lat="47.160971150126684" lon="3.1304739881009658"><ele>312.0</ele><time>2026-04-25T15:21:22Z</time></trkpt><trkpt lat="47.16099992737309" lon="3.13058267575489"><ele>312.0</ele><time>2026-04-25T15:21:23Z</time></trkpt><trkpt lat="47.16103174153092" lon="3.1307183533775294"><ele>312.0</ele><time>2026-04-25T15:21:24Z</time></trkpt><trkpt lat="47.161044513871076" lon="3.1308122381973456"><ele>312.0</ele><time>2026-04-25T15:21:25Z</time></trkpt><trkpt lat="47.161073829387895" lon="3.1309186457712697"><ele>312.0</ele><time>2026-04-25T15:21:27Z</time></trkpt><trkpt lat="47.16106594174158" lon="3.1310143078453785"><ele>312.0</ele><time>2026-04-25T15:21:29Z</time></trkpt><trkpt lat="47.1610609505793" lon="3.131160083541667"><ele>312.0</ele><time>2026-04-25T15:21:32Z</time></trkpt><trkpt lat="47.16105371845294" lon="3.131320649969192"><ele>312.3333333333333</ele><time>2026-04-25T15:21:34Z</time></trkpt><trkpt lat="47.16102396393734" lon="3.1314820216604597"><ele>312.66666666666663</ele><time>2026-04-25T15:21:36Z</time></trkpt><trkpt lat="47.161042631328016" lon="3.1316553346093334"><ele>313.0</ele><time>2026-04-25T15:21:38Z</time></trkpt><trkpt lat="47.16112092748041" lon="3.1321315114707584"><ele>313.2</ele><time>2026-04-25T15:21:39Z</time></trkpt><trkpt lat="47.1611390677213" lon="3.1322476657786296"><ele>313.4</ele><time>2026-04-25T15:21:40Z</time></trkpt><trkpt lat="47.16113951547308" lon="3.1324211728708025"><ele>313.59999999999997</ele><time>2026-04-25T15:21:42Z</time></trkpt><trkpt lat="47.16114215697302" lon="3.132575885373749"><ele>313.8</ele><time>2026-04-25T15:21:44Z</time></trkpt><trkpt lat="47.16113700641906" lon="3.132709198696811"><ele>314.0</ele><time>2026-04-25T15:21:46Z</time></trkpt><trkpt lat="47.161125846540465" lon="3.1328382210532273"><ele>314.0</ele><time>2026-04-25T15:21:48Z</time></trkpt><trkpt lat="47.16114248383888" lon="3.1329773256668343"><ele>314.0</ele><time>2026-04-25T15:21:51Z</time></trkpt><trkpt lat="47.161176290226386" lon="3.133069605798269"><ele>314.0</ele><time>2026-04-25T15:21:52Z</time></trkpt><trkpt lat="47.161131710276436" lon="3.1331818308927932"><ele>314.0</ele><time>2026-04-25T15:21:54Z</time></trkpt><trkpt lat="47.16113416713542" lon="3.1333248658662365"><ele>314.0</ele><time>2026-04-25T15:21:57Z</time></trkpt><trkpt lat="47.161126300383835" lon="3.1334490561343604"><ele>314.0</ele><time>2026-04-25T15:22:29Z</time></trkpt><trkpt lat="47.161123267519386" lon="3.133562690355494"><ele>313.59999999999997</ele><time>2026-04-25T15:22:32Z</time></trkpt><trkpt lat="47.161130124256516" lon="3.133734337405191"><ele>313.2</ele><time>2026-04-25T15:22:34Z</time></trkpt><trkpt lat="47.161135286603134" lon="3.133842367961604"><ele>312.79999999999995</ele><time>2026-04-25T15:22:35Z</time></trkpt><trkpt lat="47.16113001352486" lon="3.13398098679501"><ele>312.4</ele><time>2026-04-25T15:22:37Z</time></trkpt><trkpt lat="47.1611243203251" lon="3.1341315800250165"><ele>312.0</ele><time>2026-04-25T15:22:39Z</time></trkpt><trkpt lat="47.161111816899584" lon="3.1342652027684235"><ele>312.0</ele><time>2026-04-25T15:22:41Z</time></trkpt><trkpt lat="47.16110546110975" lon="3.1343716350473967"><ele>312.0</ele><time>2026-04-25T15:22:42Z</time></trkpt><trkpt lat="47.16108988427786" lon="3.134506624551836"><ele>312.0</ele><time>2026-04-25T15:22:44Z</time></trkpt><trkpt lat="47.16109098067093" lon="3.1346297265297505"><ele>312.0</ele><time>2026-04-25T15:22:46Z</time></trkpt><trkpt lat="47.16109012833675" lon="3.1347361453341853"><ele>312.0</ele><time>2026-04-25T15:22:48Z</time></trkpt><trkpt lat="47.161109331195355" lon="3.1349067724574993"><ele>312.0</ele><time>2026-04-25T15:22:50Z</time></trkpt><trkpt lat="47.161126005772104" lon="3.135003852685821"><ele>313.2</ele><time>2026-04-25T15:22:51Z</time></trkpt><trkpt lat="47.1611294966794" lon="3.1351251947091496"><ele>314.4</ele><time>2026-04-25T15:22:52Z</time></trkpt><trkpt lat="47.16113502781832" lon="3.1352653065160725"><ele>315.6</ele><time>2026-04-25T15:22:53Z</time></trkpt><trkpt lat="47.16113866965548" lon="3.1353842926081295"><ele>316.8</ele><time>2026-04-25T15:22:54Z</time></trkpt><trkpt lat="47.161137717841314" lon="3.135572971735603"><ele>318.0</ele><time>2026-04-25T15:22:56Z</time></trkpt><trkpt lat="47.161130676290384" lon="3.1356958019307917"><ele>318.3333333333333</ele><time>2026-04-25T15:22:57Z</time></trkpt><trkpt lat="47.16113207108281" lon="3.1358199276884577"><ele>318.6666666666667</ele><time>2026-04-25T15:22:58Z</time></trkpt><trkpt lat="47.161136879405376" lon="3.1359313171492325"><ele>319.0</ele><time>2026-04-25T15:22:59Z</time></trkpt><trkpt lat="47.16113634583223" lon="3.1360333098631825"><ele>319.33333333333337</ele><time>2026-04-25T15:23:00Z</time></trkpt><trkpt lat="47.16113818643666" lon="3.13614577424962"><ele>319.6666666666667</ele><time>2026-04-25T15:23:01Z</time></trkpt><trkpt lat="47.16114527857034" lon="3.136287986264213"><ele>320.0</ele><time>2026-04-25T15:23:02Z</time></trkpt><trkpt lat="47.16115229959622" lon="3.136413643956737"><ele>320.0</ele><time>2026-04-25T15:23:03Z</time></trkpt><trkpt lat="47.16115306453826" lon="3.1365388762836335"><ele>320.0</ele><time>2026-04-25T15:23:04Z</time></trkpt><trkpt lat="47.16115298643336" lon="3.1366598077047967"><ele>320.0</ele><time>2026-04-25T15:23:05Z</time></trkpt><trkpt lat="47.1611523151332" lon="3.1367750874285205"><ele>320.0</ele><time>2026-04-25T15:23:06Z</time></trkpt><trkpt lat="47.16115494792797" lon="3.136892249088576"><ele>320.0</ele><time>2026-04-25T15:23:07Z</time></trkpt><trkpt lat="47.16115065306365" lon="3.137002446719366"><ele>320.0</ele><time>2026-04-25T15:23:08Z</time></trkpt><trkpt lat="47.16114823628122" lon="3.137120586442896"><ele>320.1666666666667</ele><time>2026-04-25T15:23:09Z</time></trkpt><trkpt lat="47.16114790468075" lon="3.1372362637517437"><ele>320.33333333333337</ele><time>2026-04-25T15:23:10Z</time></trkpt><trkpt lat="47.16115226850743" lon="3.1373539459535675"><ele>320.5</ele><time>2026-04-25T15:23:11Z</time></trkpt><trkpt lat="47.16115369430288" lon="3.1374670967575224"><ele>320.6666666666667</ele><time>2026-04-25T15:23:12Z</time></trkpt><trkpt lat="47.16114892944041" lon="3.1375831742722284"><ele>320.8333333333333</ele><time>2026-04-25T15:23:13Z</time></trkpt><trkpt lat="47.161149673219256" lon="3.137685821435873"><ele>321.0</ele><time>2026-04-25T15:23:14Z</time></trkpt><trkpt lat="47.16114856373797" lon="3.137791679145654"><ele>320.57142857142856</ele><time>2026-04-25T15:23:15Z</time></trkpt><trkpt lat="47.161146646571794" lon="3.1378922382043797"><ele>320.1428571428571</ele><time>2026-04-25T15:23:16Z</time></trkpt><trkpt lat="47.16114808960066" lon="3.138002366524644"><ele>319.71428571428567</ele><time>2026-04-25T15:23:17Z</time></trkpt><trkpt lat="47.16114936111953" lon="3.1381245837880147"><ele>319.2857142857143</ele><time>2026-04-25T15:23:18Z</time></trkpt><trkpt lat="47.16115944310001" lon="3.138240039660406"><ele>318.8571428571429</ele><time>2026-04-25T15:23:19Z</time></trkpt><trkpt lat="47.16116217468231" lon="3.1383385351775157"><ele>318.4285714285714</ele><time>2026-04-25T15:23:20Z</time></trkpt><trkpt lat="47.161165157673324" lon="3.138434731008383"><ele>318.0</ele><time>2026-04-25T15:23:21Z</time></trkpt><trkpt lat="47.16117456905335" lon="3.138531616964256"><ele>317.4285714285714</ele><time>2026-04-25T15:23:22Z</time></trkpt><trkpt lat="47.16117669680372" lon="3.1386381682899507"><ele>316.8571428571429</ele><time>2026-04-25T15:23:23Z</time></trkpt><trkpt lat="47.16117724652693" lon="3.138758545693369"><ele>316.2857142857143</ele><time>2026-04-25T15:23:24Z</time></trkpt><trkpt lat="47.16117256042586" lon="3.138863041162728"><ele>315.71428571428567</ele><time>2026-04-25T15:23:25Z</time></trkpt><trkpt lat="47.16116348279101" lon="3.138963131708402"><ele>315.1428571428571</ele><time>2026-04-25T15:23:26Z</time></trkpt><trkpt lat="47.161157549949785" lon="3.139068952447453"><ele>314.57142857142856</ele><time>2026-04-25T15:23:27Z</time></trkpt><trkpt lat="47.161158116011094" lon="3.139184300128849"><ele>314.0</ele><time>2026-04-25T15:23:28Z</time></trkpt><trkpt lat="47.161160857135506" lon="3.1392987173048166"><ele>313.33333333333337</ele><time>2026-04-25T15:23:29Z</time></trkpt><trkpt lat="47.16115884745694" lon="3.139423867596026"><ele>312.6666666666667</ele><time>2026-04-25T15:23:30Z</time></trkpt><trkpt lat="47.16115704049465" lon="3.139544507784381"><ele>312.0</ele><time>2026-04-25T15:23:31Z</time></trkpt><trkpt lat="47.16115659622934" lon="3.1396508454357166"><ele>311.3333333333333</ele><time>2026-04-25T15:23:32Z</time></trkpt><trkpt lat="47.16115915940712" lon="3.1397650407455977"><ele>310.66666666666663</ele><time>2026-04-25T15:23:33Z</time></trkpt><trkpt lat="47.16116154163994" lon="3.139883831648403"><ele>310.0</ele><time>2026-04-25T15:23:34Z</time></trkpt><trkpt lat="47.1611603053841" lon="3.139998040513628"><ele>309.0</ele><time>2026-04-25T15:23:35Z</time></trkpt><trkpt lat="47.16115420733904" lon="3.1401199066118304"><ele>308.0</ele><time>2026-04-25T15:23:36Z</time></trkpt><trkpt lat="47.16115104181638" lon="3.14025061059487"><ele>307.0</ele><time>2026-04-25T15:23:37Z</time></trkpt><trkpt lat="47.161152622917214" lon="3.1403940318470314"><ele>306.0</ele><time>2026-04-25T15:23:38Z</time></trkpt><trkpt lat="47.16115328634296" lon="3.140517059606113"><ele>305.0</ele><time>2026-04-25T15:23:39Z</time></trkpt><trkpt lat="47.16115027601844" lon="3.140624597736212"><ele>304.0</ele><time>2026-04-25T15:23:40Z</time></trkpt><trkpt lat="47.16114865915251" lon="3.1407265194351277"><ele>303.2857142857143</ele><time>2026-04-25T15:23:41Z</time></trkpt><trkpt lat="47.16115355906288" lon="3.1408200929573256"><ele>302.5714285714286</ele><time>2026-04-25T15:23:42Z</time></trkpt><trkpt lat="47.161156724938934" lon="3.1409164959750178"><ele>301.8571428571429</ele><time>2026-04-25T15:23:43Z</time></trkpt><trkpt lat="47.16116209934645" lon="3.14102229087213"><ele>301.1428571428571</ele><time>2026-04-25T15:23:44Z</time></trkpt><trkpt lat="47.16116234236417" lon="3.14112610519648"><ele>300.42857142857144</ele><time>2026-04-25T15:23:45Z</time></trkpt><trkpt lat="47.161154769367556" lon="3.141241205120632"><ele>299.7142857142857</ele><time>2026-04-25T15:23:46Z</time></trkpt><trkpt lat="47.16115445533628" lon="3.1413438677337786"><ele>299.0</ele><time>2026-04-25T15:23:47Z</time></trkpt><trkpt lat="47.16116096559109" lon="3.1415331316915576"><ele>298.6666666666667</ele><time>2026-04-25T15:23:49Z</time></trkpt><trkpt lat="47.16116370202519" lon="3.1416393095648703"><ele>298.33333333333337</ele><time>2026-04-25T15:23:50Z</time></trkpt><trkpt lat="47.16116388311621" lon="3.1417475644614252"><ele>298.0</ele><time>2026-04-25T15:23:51Z</time></trkpt><trkpt lat="47.16116425571292" lon="3.141862117753558"><ele>297.6666666666667</ele><time>2026-04-25T15:23:52Z</time></trkpt><trkpt lat="47.161162884234585" lon="3.141966120834489"><ele>297.3333333333333</ele><time>2026-04-25T15:23:53Z</time></trkpt><trkpt lat="47.16116393470492" lon="3.1420592453007576"><ele>297.0</ele><time>2026-04-25T15:23:54Z</time></trkpt><trkpt lat="47.161162897497015" lon="3.1422135940194704"><ele>297.0</ele><time>2026-04-25T15:23:56Z</time></trkpt><trkpt lat="47.161160164683864" lon="3.1423623081287313"><ele>297.0</ele><time>2026-04-25T15:23:58Z</time></trkpt><trkpt lat="47.16116149047322" lon="3.1425085082073716"><ele>297.0</ele><time>2026-04-25T15:24:00Z</time></trkpt><trkpt lat="47.16116754957712" lon="3.1426490148699466"><ele>297.0</ele><time>2026-04-25T15:24:02Z</time></trkpt><trkpt lat="47.16114430484324" lon="3.1427412372995236"><ele>297.0</ele><time>2026-04-25T15:24:05Z</time></trkpt><trkpt lat="47.16112537805274" lon="3.142831513014816"><ele>297.0</ele><time>2026-04-25T15:24:06Z</time></trkpt><trkpt lat="47.161105329727945" lon="3.1429203918675226"><ele>296.2</ele><time>2026-04-25T15:24:09.001Z</time></trkpt><trkpt lat="47.16114042937911" lon="3.1430935816700405"><ele>295.4</ele><time>2026-04-25T15:24:12.001Z</time></trkpt><trkpt lat="47.1611414485265" lon="3.1432197350388567"><ele>294.6</ele><time>2026-04-25T15:24:14.001Z</time></trkpt><trkpt lat="47.16111182908315" lon="3.143331058528113"><ele>293.8</ele><time>2026-04-25T15:24:16.001Z</time></trkpt><trkpt lat="47.161110220725575" lon="3.1434717328267436"><ele>293.0</ele><time>2026-04-25T15:24:17.001Z</time></trkpt><trkpt lat="47.16111160517581" lon="3.1435719894169205"><ele>293.0</ele><time>2026-04-25T15:24:18Z</time></trkpt><trkpt lat="47.16113904488608" lon="3.143743218477566"><ele>293.0</ele><time>2026-04-25T15:24:20Z</time></trkpt><trkpt lat="47.16114749273092" lon="3.143883600108669"><ele>293.0</ele><time>2026-04-25T15:24:22Z</time></trkpt><trkpt lat="47.161119743331135" lon="3.143968021812532"><ele>293.0</ele><time>2026-04-25T15:24:26Z</time></trkpt><trkpt lat="47.161130223935395" lon="3.1441287236866575"><ele>293.0</ele><time>2026-04-25T15:24:28Z</time></trkpt><trkpt lat="47.16111178691104" lon="3.144221211324671"><ele>293.0</ele><time>2026-04-25T15:24:30Z</time></trkpt><trkpt lat="47.161096032163805" lon="3.1443375635562174"><ele>293.0</ele><time>2026-04-25T15:24:33Z</time></trkpt><trkpt lat="47.16104683726206" lon="3.1444026340490145"><ele>293.0</ele><time>2026-04-25T15:24:36Z</time></trkpt><trkpt lat="47.1610097488675" lon="3.1447661325021516"><ele>293.0</ele><time>2026-04-25T15:24:37Z</time></trkpt><trkpt lat="47.16095305275399" lon="3.144811623859278"><ele>294.2</ele><time>2026-04-25T15:24:38Z</time></trkpt><trkpt lat="47.160866342496575" lon="3.144881878067986"><ele>295.4</ele><time>2026-04-25T15:24:39Z</time></trkpt><trkpt lat="47.16078205325155" lon="3.1449569449122463"><ele>296.59999999999997</ele><time>2026-04-25T15:24:40Z</time></trkpt><trkpt lat="47.160723670891585" lon="3.1450106808019704"><ele>297.8</ele><time>2026-04-25T15:24:41Z</time></trkpt><trkpt lat="47.1606088177325" lon="3.1451201714197055"><ele>299.0</ele><time>2026-04-25T15:24:43Z</time></trkpt><trkpt lat="47.16053708434646" lon="3.145191106107415"><ele>300.0</ele><time>2026-04-25T15:24:44Z</time></trkpt><trkpt lat="47.16047009534948" lon="3.1452703535916293"><ele>301.0</ele><time>2026-04-25T15:24:45Z</time></trkpt><trkpt lat="47.16036381746364" lon="3.1453965936661197"><ele>302.0</ele><time>2026-04-25T15:24:47Z</time></trkpt><trkpt lat="47.160300554337" lon="3.1454676479454817"><ele>303.0</ele><time>2026-04-25T15:24:48Z</time></trkpt><trkpt lat="47.16021338403963" lon="3.1455657740267298"><ele>304.0</ele><time>2026-04-25T15:24:49Z</time></trkpt><trkpt lat="47.160146023823565" lon="3.1456356289970397"><ele>304.0</ele><time>2026-04-25T15:24:50Z</time></trkpt><trkpt lat="47.16009576518227" lon="3.14569389472067"><ele>304.0</ele><time>2026-04-25T15:24:51Z</time></trkpt><trkpt lat="47.16000411302044" lon="3.145786901174571"><ele>304.0</ele><time>2026-04-25T15:24:52Z</time></trkpt><trkpt lat="47.159918863832566" lon="3.1458732523118074"><ele>304.0</ele><time>2026-04-25T15:24:53Z</time></trkpt><trkpt lat="47.15986067022627" lon="3.1459319671368884"><ele>304.0</ele><time>2026-04-25T15:24:54Z</time></trkpt><trkpt lat="47.159780246020425" lon="3.146012373336332"><ele>304.0</ele><time>2026-04-25T15:24:56Z</time></trkpt><trkpt lat="47.159678075024466" lon="3.1461166887245384"><ele>305.5</ele><time>2026-04-25T15:24:58Z</time></trkpt><trkpt lat="47.15960262404799" lon="3.1462011216763006"><ele>307.0</ele><time>2026-04-25T15:24:59Z</time></trkpt><trkpt lat="47.15952926313286" lon="3.146274437131333"><ele>308.5</ele><time>2026-04-25T15:25:00Z</time></trkpt><trkpt lat="47.159475933771404" lon="3.1463401672100204"><ele>310.0</ele><time>2026-04-25T15:25:01Z</time></trkpt><trkpt lat="47.159424001009796" lon="3.1463943114170685"><ele>311.5</ele><time>2026-04-25T15:25:02Z</time></trkpt><trkpt lat="47.159340904788124" lon="3.146479928715509"><ele>313.0</ele><time>2026-04-25T15:25:04Z</time></trkpt><trkpt lat="47.159260608557126" lon="3.1465510685985962"><ele>313.6</ele><time>2026-04-25T15:25:06Z</time></trkpt><trkpt lat="47.15921477750658" lon="3.146618100621621"><ele>314.20000000000005</ele><time>2026-04-25T15:25:07Z</time></trkpt><trkpt lat="47.159155723469986" lon="3.146683510075346"><ele>314.8</ele><time>2026-04-25T15:25:08Z</time></trkpt><trkpt lat="47.15907021878224" lon="3.146767298075825"><ele>315.40000000000003</ele><time>2026-04-25T15:25:09Z</time></trkpt><trkpt lat="47.15897441926174" lon="3.1468725005227154"><ele>316.0</ele><time>2026-04-25T15:25:10Z</time></trkpt><trkpt lat="47.15889896974489" lon="3.1469582916560435"><ele>316.0</ele><time>2026-04-25T15:25:11Z</time></trkpt><trkpt lat="47.158843304155845" lon="3.14701967708118"><ele>316.0</ele><time>2026-04-25T15:25:12Z</time></trkpt><trkpt lat="47.158777316558684" lon="3.147091891568965"><ele>316.0</ele><time>2026-04-25T15:25:13Z</time></trkpt><trkpt lat="47.158709113676956" lon="3.1471642056551143"><ele>316.0</ele><time>2026-04-25T15:25:14Z</time></trkpt><trkpt lat="47.15865057986819" lon="3.1472235144670218"><ele>316.0</ele><time>2026-04-25T15:25:15Z</time></trkpt><trkpt lat="47.15856188484069" lon="3.1473090446971455"><ele>316.0</ele><time>2026-04-25T15:25:17Z</time></trkpt><trkpt lat="47.15846291021716" lon="3.1473978436458845"><ele>315.40000000000003</ele><time>2026-04-25T15:25:19Z</time></trkpt><trkpt lat="47.15835151906434" lon="3.1474807602780315"><ele>314.8</ele><time>2026-04-25T15:25:21Z</time></trkpt><trkpt lat="47.158296890909405" lon="3.1475274761667635"><ele>314.20000000000005</ele><time>2026-04-25T15:25:22Z</time></trkpt><trkpt lat="47.15822032201098" lon="3.1475775833329833"><ele>313.6</ele><time>2026-04-25T15:25:24Z</time></trkpt><trkpt lat="47.15812277929451" lon="3.147638353047831"><ele>313.0</ele><time>2026-04-25T15:25:26Z</time></trkpt><trkpt lat="47.15800253530983" lon="3.147709378384021"><ele>313.0</ele><time>2026-04-25T15:25:28Z</time></trkpt><trkpt lat="47.15793080302998" lon="3.1477600802050363"><ele>313.0</ele><time>2026-04-25T15:25:29Z</time></trkpt><trkpt lat="47.15786593484025" lon="3.14783774071962"><ele>313.0</ele><time>2026-04-25T15:25:30Z</time></trkpt><trkpt lat="47.157796621568714" lon="3.147948434435878"><ele>313.0</ele><time>2026-04-25T15:25:32Z</time></trkpt><trkpt lat="47.15775836542593" lon="3.148026361785611"><ele>313.0</ele><time>2026-04-25T15:25:35Z</time></trkpt><trkpt lat="47.15782576322979" lon="3.1479704389851824"><ele>313.0</ele><time>2026-04-25T15:25:58Z</time></trkpt><trkpt lat="47.157909861510234" lon="3.1479996124052976"><ele>313.0</ele><time>2026-04-25T15:25:59Z</time></trkpt><trkpt lat="47.15800001131398" lon="3.147889965591076"><ele>313.0</ele><time>2026-04-25T15:26:01Z</time></trkpt><trkpt lat="47.158064736366214" lon="3.147809867753685"><ele>313.0</ele><time>2026-04-25T15:26:02.999Z</time></trkpt><trkpt lat="47.15814385166798" lon="3.147708886712971"><ele>313.0</ele><time>2026-04-25T15:26:04.999Z</time></trkpt><trkpt lat="47.15820461752206" lon="3.14764730098558"><ele>313.0</ele><time>2026-04-25T15:26:06.999Z</time></trkpt><trkpt lat="47.15825740021719" lon="3.147568702891598"><ele>313.5</ele><time>2026-04-25T15:26:08.999Z</time></trkpt><trkpt lat="47.15830571966796" lon="3.1475018462642557"><ele>314.0</ele><time>2026-04-25T15:26:09.999Z</time></trkpt><trkpt lat="47.158395944402145" lon="3.1474391763322362"><ele>314.5</ele><time>2026-04-25T15:26:11.999Z</time></trkpt><trkpt lat="47.15844923866042" lon="3.1473752128055708"><ele>315.0</ele><time>2026-04-25T15:26:16Z</time></trkpt><trkpt lat="47.1583978064897" lon="3.1472701467097433"><ele>315.5</ele><time>2026-04-25T15:26:20Z</time></trkpt><trkpt lat="47.158358828919724" lon="3.1471872334761595"><ele>316.0</ele><time>2026-04-25T15:26:32Z</time></trkpt><trkpt lat="47.15842872224849" lon="3.1472124115871334"><ele>316.0</ele><time>2026-04-25T15:26:36Z</time></trkpt><trkpt lat="47.1584761628483" lon="3.1472884420222473"><ele>316.0</ele><time>2026-04-25T15:26:38Z</time></trkpt><trkpt lat="47.15846907037203" lon="3.147401619129716"><ele>316.0</ele><time>2026-04-25T15:26:42Z</time></trkpt><trkpt lat="47.158380060637285" lon="3.1474623887647084"><ele>316.0</ele><time>2026-04-25T15:26:44Z</time></trkpt><trkpt lat="47.15829839725845" lon="3.1475391907630113"><ele>316.0</ele><time>2026-04-25T15:26:48Z</time></trkpt><trkpt lat="47.15823089684949" lon="3.147575574780506"><ele>316.0</ele><time>2026-04-25T15:26:50Z</time></trkpt><trkpt lat="47.158164118287495" lon="3.1476138126639985"><ele>315.25</ele><time>2026-04-25T15:26:53Z</time></trkpt><trkpt lat="47.15792224339186" lon="3.147766109861507"><ele>314.5</ele><time>2026-04-25T15:26:55Z</time></trkpt><trkpt lat="47.15786674685204" lon="3.147836549146087"><ele>313.75</ele><time>2026-04-25T15:26:56Z</time></trkpt><trkpt lat="47.157859368349534" lon="3.147943142130921"><ele>313.0</ele><time>2026-04-25T15:27:02Z</time></trkpt><trkpt lat="47.15790976539378" lon="3.1479991159633633"><ele>313.0</ele><time>2026-04-25T15:27:06Z</time></trkpt><trkpt lat="47.15796497190404" lon="3.148075137819233"><ele>313.0</ele><time>2026-04-25T15:27:25Z</time></trkpt><trkpt lat="47.15796186323331" lon="3.148170960747458"><ele>313.0</ele><time>2026-04-25T15:27:32Z</time></trkpt><trkpt lat="47.15796270614866" lon="3.1482636727330613"><ele>313.0</ele><time>2026-04-25T15:27:36Z</time></trkpt><trkpt lat="47.15790562443757" lon="3.148315907185334"><ele>313.0</ele><time>2026-04-25T15:27:44.999Z</time></trkpt><trkpt lat="47.15791280333034" lon="3.1484397403958817"><ele>313.0</ele><time>2026-04-25T15:27:47.999Z</time></trkpt><trkpt lat="47.15783773903942" lon="3.1484476527772935"><ele>313.0</ele><time>2026-04-25T15:27:50.999Z</time></trkpt><trkpt lat="47.15777966053172" lon="3.148400699912342"><ele>313.5</ele><time>2026-04-25T15:27:52.999Z</time></trkpt><trkpt lat="47.15772113461172" lon="3.148361530147748"><ele>314.0</ele><time>2026-04-25T15:27:54.999Z</time></trkpt><trkpt lat="47.1576534935748" lon="3.1483535165983616"><ele>314.5</ele><time>2026-04-25T15:27:58.999Z</time></trkpt><trkpt lat="47.157600207477174" lon="3.148410853548597"><ele>315.0</ele><time>2026-04-25T15:28:01.999Z</time></trkpt><trkpt lat="47.15761186333701" lon="3.1486035165477357"><ele>315.5</ele><time>2026-04-25T15:28:05.999Z</time></trkpt><trkpt lat="47.15757474762299" lon="3.1487404456705343"><ele>316.0</ele><time>2026-04-25T15:28:06.999Z</time></trkpt><trkpt lat="47.157538063307285" lon="3.148844549003862"><ele>316.0</ele><time>2026-04-25T15:28:07.999Z</time></trkpt><trkpt lat="47.15749896562539" lon="3.1489427094078355"><ele>316.0</ele><time>2026-04-25T15:28:08.999Z</time></trkpt><trkpt lat="47.157439827460564" lon="3.1490274370208655"><ele>316.0</ele><time>2026-04-25T15:28:09.999Z</time></trkpt><trkpt lat="47.157407555593075" lon="3.149153028410438"><ele>316.0</ele><time>2026-04-25T15:28:11.999Z</time></trkpt><trkpt lat="47.15738147542277" lon="3.1493194249265968"><ele>316.0</ele><time>2026-04-25T15:28:13.999Z</time></trkpt><trkpt lat="47.157371300081884" lon="3.149412454006372"><ele>316.0</ele><time>2026-04-25T15:28:14.999Z</time></trkpt><trkpt lat="47.15734637025393" lon="3.1495896381054904"><ele>316.16666666666663</ele><time>2026-04-25T15:28:16.999Z</time></trkpt><trkpt lat="47.15732461720862" lon="3.149682110510407"><ele>316.3333333333333</ele><time>2026-04-25T15:28:17.999Z</time></trkpt><trkpt lat="47.15729706913592" lon="3.1497806630157315"><ele>316.5</ele><time>2026-04-25T15:28:19Z</time></trkpt><trkpt lat="47.15726592130464" lon="3.149894022494391"><ele>316.6666666666667</ele><time>2026-04-25T15:28:20Z</time></trkpt><trkpt lat="47.15723865665325" lon="3.149998360911461"><ele>316.83333333333337</ele><time>2026-04-25T15:28:21Z</time></trkpt><trkpt lat="47.15721088066044" lon="3.1501099316113668"><ele>317.0</ele><time>2026-04-25T15:28:22Z</time></trkpt><trkpt lat="47.157175679588974" lon="3.150251327229779"><ele>317.5</ele><time>2026-04-25T15:28:23Z</time></trkpt><trkpt lat="47.157150494502716" lon="3.150337241880305"><ele>318.0</ele><time>2026-04-25T15:28:24Z</time></trkpt><trkpt lat="47.157106707008886" lon="3.150524447269837"><ele>318.5</ele><time>2026-04-25T15:28:26Z</time></trkpt><trkpt lat="47.15708855611291" lon="3.1506194356357513"><ele>319.0</ele><time>2026-04-25T15:28:27Z</time></trkpt><trkpt lat="47.15707203816322" lon="3.1507503004186614"><ele>319.5</ele><time>2026-04-25T15:28:30Z</time></trkpt><trkpt lat="47.157043282725844" lon="3.150867645198829"><ele>320.0</ele><time>2026-04-25T15:28:31Z</time></trkpt><trkpt lat="47.15701108611173" lon="3.1509963450690472"><ele>320.6666666666667</ele><time>2026-04-25T15:28:32Z</time></trkpt><trkpt lat="47.15698200339228" lon="3.151113521494246"><ele>321.33333333333337</ele><time>2026-04-25T15:28:33Z</time></trkpt><trkpt lat="47.1569417333371" lon="3.1512529245533827"><ele>322.0</ele><time>2026-04-25T15:28:35Z</time></trkpt><trkpt lat="47.15690724028645" lon="3.1513919292720853"><ele>322.6666666666667</ele><time>2026-04-25T15:28:36Z</time></trkpt><trkpt lat="47.15687031473535" lon="3.1514916854266612"><ele>323.3333333333333</ele><time>2026-04-25T15:28:37Z</time></trkpt><trkpt lat="47.156830276070494" lon="3.151585765172795"><ele>324.0</ele><time>2026-04-25T15:28:38Z</time></trkpt><trkpt lat="47.1567866840217" lon="3.151688192928998"><ele>325.0</ele><time>2026-04-25T15:28:39Z</time></trkpt><trkpt lat="47.15669852991184" lon="3.1518760612082954"><ele>326.0</ele><time>2026-04-25T15:28:41Z</time></trkpt><trkpt lat="47.15664800426086" lon="3.15200075366665"><ele>327.0</ele><time>2026-04-25T15:28:42Z</time></trkpt><trkpt lat="47.1566163511718" lon="3.1520974258240293"><ele>328.0</ele><time>2026-04-25T15:28:43Z</time></trkpt><trkpt lat="47.15657758887652" lon="3.152200353009643"><ele>329.0</ele><time>2026-04-25T15:28:44Z</time></trkpt><trkpt lat="47.1565405920807" lon="3.1522881144554926"><ele>329.0</ele><time>2026-04-25T15:28:45Z</time></trkpt><trkpt lat="47.15647366874482" lon="3.1524438405714026"><ele>329.0</ele><time>2026-04-25T15:28:47Z</time></trkpt><trkpt lat="47.15641314283138" lon="3.1526155110003486"><ele>329.0</ele><time>2026-04-25T15:28:49Z</time></trkpt><trkpt lat="47.156381160399356" lon="3.152740649819982"><ele>329.0</ele><time>2026-04-25T15:28:50Z</time></trkpt><trkpt lat="47.15636478478546" lon="3.1528508946792027"><ele>329.0</ele><time>2026-04-25T15:28:51Z</time></trkpt><trkpt lat="47.156363998434024" lon="3.1529531897936405"><ele>329.0</ele><time>2026-04-25T15:28:52Z</time></trkpt><trkpt lat="47.15636978850887" lon="3.153050089437916"><ele>329.0</ele><time>2026-04-25T15:28:53Z</time></trkpt><trkpt lat="47.156390904639764" lon="3.153184907469824"><ele>329.0</ele><time>2026-04-25T15:28:55Z</time></trkpt><trkpt lat="47.15640998281607" lon="3.1532881217324324"><ele>329.0</ele><time>2026-04-25T15:28:57Z</time></trkpt><trkpt lat="47.15643151644677" lon="3.153453585774101"><ele>329.0</ele><time>2026-04-25T15:28:59Z</time></trkpt><trkpt lat="47.15647114400172" lon="3.153666529599087"><ele>329.6666666666667</ele><time>2026-04-25T15:29:01Z</time></trkpt><trkpt lat="47.15648819407696" lon="3.1537583079904032"><ele>330.33333333333337</ele><time>2026-04-25T15:29:02Z</time></trkpt><trkpt lat="47.15650643894067" lon="3.1538565184232734"><ele>331.0</ele><time>2026-04-25T15:29:03Z</time></trkpt><trkpt lat="47.156523611027026" lon="3.153948955119495"><ele>331.6666666666667</ele><time>2026-04-25T15:29:05Z</time></trkpt><trkpt lat="47.15651428477412" lon="3.15407930903466"><ele>332.3333333333333</ele><time>2026-04-25T15:29:06Z</time></trkpt><trkpt lat="47.156477884177185" lon="3.1541945544140377"><ele>333.0</ele><time>2026-04-25T15:29:07Z</time></trkpt><trkpt lat="47.15644029550779" lon="3.154315047076205"><ele>334.4</ele><time>2026-04-25T15:29:08Z</time></trkpt><trkpt lat="47.15639551767919" lon="3.1544585863280417"><ele>335.79999999999995</ele><time>2026-04-25T15:29:09Z</time></trkpt><trkpt lat="47.156347079648484" lon="3.154644716519182"><ele>337.2</ele><time>2026-04-25T15:29:11Z</time></trkpt><trkpt lat="47.15631627167547" lon="3.1547443217398516"><ele>338.6</ele><time>2026-04-25T15:29:12Z</time></trkpt><trkpt lat="47.156278054557866" lon="3.1548351256019513"><ele>340.0</ele><time>2026-04-25T15:29:13Z</time></trkpt><trkpt lat="47.156259615805254" lon="3.15492593740504"><ele>340.0</ele><time>2026-04-25T15:29:14Z</time></trkpt><trkpt lat="47.15622248114422" lon="3.1550449767559043"><ele>340.0</ele><time>2026-04-25T15:29:15Z</time></trkpt><trkpt lat="47.15619539658099" lon="3.155131799136317"><ele>340.0</ele><time>2026-04-25T15:29:16Z</time></trkpt><trkpt lat="47.15616398544627" lon="3.1552324895932498"><ele>340.0</ele><time>2026-04-25T15:29:17Z</time></trkpt><trkpt lat="47.156136418259884" lon="3.155320859421279"><ele>340.0</ele><time>2026-04-25T15:29:18Z</time></trkpt><trkpt lat="47.15610456075582" lon="3.1554281463257663"><ele>340.0</ele><time>2026-04-25T15:29:19Z</time></trkpt><trkpt lat="47.15606916567715" lon="3.15553868283419"><ele>340.0</ele><time>2026-04-25T15:29:20Z</time></trkpt><trkpt lat="47.156034137519384" lon="3.15563886451521"><ele>340.0</ele><time>2026-04-25T15:29:21Z</time></trkpt><trkpt lat="47.155980508944495" lon="3.1558027793782952"><ele>340.0</ele><time>2026-04-25T15:29:23Z</time></trkpt><trkpt lat="47.15595396714959" lon="3.155976047002443"><ele>340.0</ele><time>2026-04-25T15:29:25Z</time></trkpt><trkpt lat="47.15593919399313" lon="3.156090723304035"><ele>340.0</ele><time>2026-04-25T15:29:26Z</time></trkpt><trkpt lat="47.15588968573526" lon="3.1561970356341775"><ele>339.8</ele><time>2026-04-25T15:29:27Z</time></trkpt><trkpt lat="47.155829160082895" lon="3.1563411687058958"><ele>339.6</ele><time>2026-04-25T15:29:29Z</time></trkpt><trkpt lat="47.1558027865273" lon="3.1564796193981235"><ele>339.4</ele><time>2026-04-25T15:29:31Z</time></trkpt><trkpt lat="47.15574884721404" lon="3.1565669077739122"><ele>339.2</ele><time>2026-04-25T15:29:32Z</time></trkpt><trkpt lat="47.15570683327245" lon="3.1566744224680554"><ele>339.0</ele><time>2026-04-25T15:29:33Z</time></trkpt><trkpt lat="47.155697536647196" lon="3.1567952508449237"><ele>339.0</ele><time>2026-04-25T15:29:33.999Z</time></trkpt><trkpt lat="47.15566500330961" lon="3.156916069059718"><ele>339.0</ele><time>2026-04-25T15:29:34.999Z</time></trkpt><trkpt lat="47.155636985056624" lon="3.1570131431949506"><ele>339.0</ele><time>2026-04-25T15:29:35.999Z</time></trkpt><trkpt lat="47.1556125141033" lon="3.1571187608091797"><ele>339.0</ele><time>2026-04-25T15:29:36.999Z</time></trkpt><trkpt lat="47.155570577840926" lon="3.1572281667956617"><ele>339.0</ele><time>2026-04-25T15:29:37.999Z</time></trkpt><trkpt lat="47.155538736563116" lon="3.157339042324305"><ele>339.0</ele><time>2026-04-25T15:29:38.999Z</time></trkpt><trkpt lat="47.155504190300576" lon="3.1574589103744266"><ele>337.79999999999995</ele><time>2026-04-25T15:29:39.999Z</time></trkpt><trkpt lat="47.15546915995356" lon="3.157598921007387"><ele>336.59999999999997</ele><time>2026-04-25T15:29:40.999Z</time></trkpt><trkpt lat="47.1554167253046" lon="3.1577301529721176"><ele>335.4</ele><time>2026-04-25T15:29:41.999Z</time></trkpt><trkpt lat="47.15536440185616" lon="3.157863378537673"><ele>334.2</ele><time>2026-04-25T15:29:42.999Z</time></trkpt><trkpt lat="47.155340959526896" lon="3.1579908286967164"><ele>333.0</ele><time>2026-04-25T15:29:43.999Z</time></trkpt><trkpt lat="47.15529941759464" lon="3.158116294858195"><ele>332.2</ele><time>2026-04-25T15:29:44.999Z</time></trkpt><trkpt lat="47.15524708889772" lon="3.1582819955883954"><ele>331.4</ele><time>2026-04-25T15:29:45.999Z</time></trkpt><trkpt lat="47.155209551082386" lon="3.1584353070546647"><ele>330.59999999999997</ele><time>2026-04-25T15:29:46.999Z</time></trkpt><trkpt lat="47.155167768903766" lon="3.158558328517056"><ele>329.79999999999995</ele><time>2026-04-25T15:29:47.999Z</time></trkpt><trkpt lat="47.1551388395233" lon="3.158655362095626"><ele>329.0</ele><time>2026-04-25T15:29:48.999Z</time></trkpt><trkpt lat="47.15507022374297" lon="3.1588483979208055"><ele>329.0</ele><time>2026-04-25T15:29:50.999Z</time></trkpt><trkpt lat="47.15501690734802" lon="3.1589841833650576"><ele>329.0</ele><time>2026-04-25T15:29:51.999Z</time></trkpt><trkpt lat="47.15498345810211" lon="3.1590820599401725"><ele>329.0</ele><time>2026-04-25T15:29:52.999Z</time></trkpt><trkpt lat="47.15497379299857" lon="3.1592000096762898"><ele>329.0</ele><time>2026-04-25T15:29:54.999Z</time></trkpt><trkpt lat="47.15494854465028" lon="3.1593156130829354"><ele>329.0</ele><time>2026-04-25T15:29:56.999Z</time></trkpt><trkpt lat="47.154888831668494" lon="3.159386101443258"><ele>329.0</ele><time>2026-04-25T15:30:01.999Z</time></trkpt><trkpt lat="47.15484704147149" lon="3.159493411775931"><ele>327.0</ele><time>2026-04-25T15:30:04.999Z</time></trkpt><trkpt lat="47.154788453579066" lon="3.1596080119123817"><ele>325.0</ele><time>2026-04-25T15:30:06.999Z</time></trkpt><trkpt lat="47.1545810829132" lon="3.1602821657025943"><ele>323.4</ele><time>2026-04-25T15:30:09.999Z</time></trkpt><trkpt lat="47.15454348714165" lon="3.16044828126316"><ele>321.8</ele><time>2026-04-25T15:30:10.999Z</time></trkpt><trkpt lat="47.15450500783642" lon="3.1606124142906165"><ele>320.2</ele><time>2026-04-25T15:30:11.999Z</time></trkpt><trkpt lat="47.1544818375659" lon="3.16070604659229"><ele>318.6</ele><time>2026-04-25T15:30:12.999Z</time></trkpt><trkpt lat="47.154442986832244" lon="3.160842032571487"><ele>317.0</ele><time>2026-04-25T15:30:13.999Z</time></trkpt><trkpt lat="47.15440381556948" lon="3.1609758744983822"><ele>316.2</ele><time>2026-04-25T15:30:14.999Z</time></trkpt><trkpt lat="47.15438876233418" lon="3.161116898490065"><ele>315.4</ele><time>2026-04-25T15:30:15.999Z</time></trkpt><trkpt lat="47.15435473904537" lon="3.1612362609444826"><ele>314.6</ele><time>2026-04-25T15:30:16.999Z</time></trkpt><trkpt lat="47.15428610485772" lon="3.1613936791252244"><ele>313.8</ele><time>2026-04-25T15:30:17.999Z</time></trkpt><trkpt lat="47.15425546825696" lon="3.1615143285257785"><ele>313.0</ele><time>2026-04-25T15:30:18.999Z</time></trkpt><trkpt lat="47.154200383830435" lon="3.1615887128098854"><ele>313.0</ele><time>2026-04-25T15:30:19.999Z</time></trkpt><trkpt lat="47.15412564928952" lon="3.1617013924541846"><ele>313.0</ele><time>2026-04-25T15:30:20.999Z</time></trkpt><trkpt lat="47.15411426042005" lon="3.161807090282867"><ele>313.0</ele><time>2026-04-25T15:30:21.999Z</time></trkpt><trkpt lat="47.154072170860196" lon="3.1619920092390874"><ele>313.0</ele><time>2026-04-25T15:30:22.999Z</time></trkpt><trkpt lat="47.154033046626374" lon="3.1621230417812183"><ele>313.0</ele><time>2026-04-25T15:30:23.999Z</time></trkpt><trkpt lat="47.15399687174637" lon="3.162223862645444"><ele>313.0</ele><time>2026-04-25T15:30:25Z</time></trkpt><trkpt lat="47.15396496292959" lon="3.1623225972738123"><ele>313.0</ele><time>2026-04-25T15:30:26Z</time></trkpt><trkpt lat="47.15391945942362" lon="3.1625254526965723"><ele>313.0</ele><time>2026-04-25T15:30:28Z</time></trkpt><trkpt lat="47.153906856956226" lon="3.1626247149341773"><ele>313.0</ele><time>2026-04-25T15:30:29Z</time></trkpt><trkpt lat="47.15384642152004" lon="3.1627806630658526"><ele>313.0</ele><time>2026-04-25T15:30:31Z</time></trkpt><trkpt lat="47.15381373363559" lon="3.1629038421941873"><ele>312.4</ele><time>2026-04-25T15:30:32Z</time></trkpt><trkpt lat="47.15378149029308" lon="3.1630073588492977"><ele>311.8</ele><time>2026-04-25T15:30:33Z</time></trkpt><trkpt lat="47.153736501087394" lon="3.1631887690772498"><ele>311.2</ele><time>2026-04-25T15:30:35Z</time></trkpt><trkpt lat="47.15370452338813" lon="3.1633404637591473"><ele>310.6</ele><time>2026-04-25T15:30:37Z</time></trkpt><trkpt lat="47.1536748187134" lon="3.163485330239722"><ele>310.0</ele><time>2026-04-25T15:30:39Z</time></trkpt><trkpt lat="47.15366996028527" lon="3.163592821871078"><ele>309.66666666666663</ele><time>2026-04-25T15:30:42Z</time></trkpt><trkpt lat="47.15360421840099" lon="3.1636401768864695"><ele>309.3333333333333</ele><time>2026-04-25T15:30:44Z</time></trkpt><trkpt lat="47.15353339703815" lon="3.1636422600188268"><ele>309.0</ele><time>2026-04-25T15:30:46Z</time></trkpt><trkpt lat="47.15345252844829" lon="3.163639426766708"><ele>308.6666666666667</ele><time>2026-04-25T15:30:47Z</time></trkpt><trkpt lat="47.15336295126309" lon="3.163658546063034"><ele>308.33333333333337</ele><time>2026-04-25T15:30:48Z</time></trkpt><trkpt lat="47.15327617143461" lon="3.1636880561275618"><ele>308.0</ele><time>2026-04-25T15:30:49Z</time></trkpt><trkpt lat="47.153175982292396" lon="3.1636772202103285"><ele>308.0</ele><time>2026-04-25T15:30:50Z</time></trkpt><trkpt lat="47.15308397421696" lon="3.1636853237728273"><ele>308.0</ele><time>2026-04-25T15:30:51Z</time></trkpt><trkpt lat="47.152989422394896" lon="3.1636859426838346"><ele>308.0</ele><time>2026-04-25T15:30:52Z</time></trkpt><trkpt lat="47.15290624245338" lon="3.163679329045092"><ele>308.0</ele><time>2026-04-25T15:30:53Z</time></trkpt><trkpt lat="47.152825797182295" lon="3.1636843002665906"><ele>308.0</ele><time>2026-04-25T15:30:54Z</time></trkpt><trkpt lat="47.152726408037466" lon="3.1636883873020363"><ele>308.0</ele><time>2026-04-25T15:30:55Z</time></trkpt><trkpt lat="47.15261328282217" lon="3.163690484439737"><ele>308.0</ele><time>2026-04-25T15:30:56Z</time></trkpt><trkpt lat="47.15251058829283" lon="3.1636857843333073"><ele>308.0</ele><time>2026-04-25T15:30:57Z</time></trkpt><trkpt lat="47.15243345767072" lon="3.163694159928676"><ele>308.0</ele><time>2026-04-25T15:30:58Z</time></trkpt><trkpt lat="47.15235088116319" lon="3.163678240621646"><ele>308.0</ele><time>2026-04-25T15:30:59Z</time></trkpt><trkpt lat="47.15223104846315" lon="3.1636934962056684"><ele>308.0</ele><time>2026-04-25T15:31:00Z</time></trkpt><trkpt lat="47.15207811136624" lon="3.163708184305455"><ele>308.0</ele><time>2026-04-25T15:31:01Z</time></trkpt><trkpt lat="47.15193359473898" lon="3.163732438877459"><ele>308.0</ele><time>2026-04-25T15:31:02Z</time></trkpt><trkpt lat="47.151808396570836" lon="3.16373639665684"><ele>308.0</ele><time>2026-04-25T15:31:03Z</time></trkpt><trkpt lat="47.151685648600136" lon="3.163718483499982"><ele>308.0</ele><time>2026-04-25T15:31:04Z</time></trkpt><trkpt lat="47.15155739173528" lon="3.1637126768711807"><ele>308.0</ele><time>2026-04-25T15:31:05Z</time></trkpt><trkpt lat="47.15143119954422" lon="3.1637068526647694"><ele>308.0</ele><time>2026-04-25T15:31:06Z</time></trkpt><trkpt lat="47.151318416894746" lon="3.163714803285814"><ele>308.0</ele><time>2026-04-25T15:31:07Z</time></trkpt><trkpt lat="47.15119062876027" lon="3.163716098399249"><ele>308.0</ele><time>2026-04-25T15:31:08Z</time></trkpt><trkpt lat="47.15106647129193" lon="3.1637161783320957"><ele>308.0</ele><time>2026-04-25T15:31:09Z</time></trkpt><trkpt lat="47.150963586579245" lon="3.1637244454438203"><ele>308.0</ele><time>2026-04-25T15:31:10Z</time></trkpt><trkpt lat="47.1508771256264" lon="3.1637189911009287"><ele>308.0</ele><time>2026-04-25T15:31:11Z</time></trkpt><trkpt lat="47.15081216652072" lon="3.163728511187019"><ele>308.0</ele><time>2026-04-25T15:31:12Z</time></trkpt><trkpt lat="47.150729287757216" lon="3.1637061664416897"><ele>308.4</ele><time>2026-04-25T15:31:13Z</time></trkpt><trkpt lat="47.15066446767714" lon="3.163716987465086"><ele>308.8</ele><time>2026-04-25T15:31:14Z</time></trkpt><trkpt lat="47.150577494725404" lon="3.163724389607885"><ele>309.2</ele><time>2026-04-25T15:31:16Z</time></trkpt><trkpt lat="47.150486524996076" lon="3.1638092008755327"><ele>309.6</ele><time>2026-04-25T15:31:18Z</time></trkpt><trkpt lat="47.150397842996455" lon="3.1638900918120205"><ele>310.0</ele><time>2026-04-25T15:31:20Z</time></trkpt><trkpt lat="47.15019061188139" lon="3.1638169523168003"><ele>310.0</ele><time>2026-04-25T15:31:23Z</time></trkpt><trkpt lat="47.150128678354974" lon="3.1637759672964902"><ele>310.0</ele><time>2026-04-25T15:31:24Z</time></trkpt><trkpt lat="47.150023847251965" lon="3.163725853097232"><ele>310.0</ele><time>2026-04-25T15:31:26Z</time></trkpt><trkpt lat="47.14993067767118" lon="3.1637356268399874"><ele>310.0</ele><time>2026-04-25T15:31:26.999Z</time></trkpt><trkpt lat="47.14985215264407" lon="3.1637446165922114"><ele>310.0</ele><time>2026-04-25T15:31:27.999Z</time></trkpt><trkpt lat="47.149743112266194" lon="3.163744070023043"><ele>310.25</ele><time>2026-04-25T15:31:28.999Z</time></trkpt><trkpt lat="47.14961725087584" lon="3.163740567504396"><ele>310.5</ele><time>2026-04-25T15:31:29.999Z</time></trkpt><trkpt lat="47.149452922398346" lon="3.1637492938266782"><ele>310.75</ele><time>2026-04-25T15:31:30.999Z</time></trkpt><trkpt lat="47.14933955736044" lon="3.163748814588967"><ele>311.0</ele><time>2026-04-25T15:31:31.999Z</time></trkpt><trkpt lat="47.14925474016179" lon="3.1637320557307804"><ele>311.0</ele><time>2026-04-25T15:31:32.999Z</time></trkpt><trkpt lat="47.149128862299634" lon="3.163725033502319"><ele>311.0</ele><time>2026-04-25T15:31:33.999Z</time></trkpt><trkpt lat="47.1489908889683" lon="3.163727559152212"><ele>311.0</ele><time>2026-04-25T15:31:34.999Z</time></trkpt><trkpt lat="47.14882888878137" lon="3.163719796388725"><ele>311.0</ele><time>2026-04-25T15:31:35.999Z</time></trkpt><trkpt lat="47.14869531354204" lon="3.1637349538310167"><ele>311.40000000000003</ele><time>2026-04-25T15:31:36.999Z</time></trkpt><trkpt lat="47.1485674984049" lon="3.1637400148466375"><ele>311.8</ele><time>2026-04-25T15:31:37.999Z</time></trkpt><trkpt lat="47.1484840495735" lon="3.163723677318508"><ele>312.20000000000005</ele><time>2026-04-25T15:31:38.999Z</time></trkpt><trkpt lat="47.14837106400003" lon="3.1637355536653997"><ele>312.6</ele><time>2026-04-25T15:31:39.999Z</time></trkpt><trkpt lat="47.14827581213107" lon="3.16373266139814"><ele>313.0</ele><time>2026-04-25T15:31:40.999Z</time></trkpt><trkpt lat="47.148207941755956" lon="3.1637428315084324"><ele>313.4</ele><time>2026-04-25T15:31:41.999Z</time></trkpt><trkpt lat="47.148099201170396" lon="3.1637345593416746"><ele>313.8</ele><time>2026-04-25T15:31:42.999Z</time></trkpt><trkpt lat="47.148010001428176" lon="3.163735439792082"><ele>314.2</ele><time>2026-04-25T15:31:43.999Z</time></trkpt><trkpt lat="47.14791320531588" lon="3.163749939760945"><ele>314.6</ele><time>2026-04-25T15:31:44.999Z</time></trkpt><trkpt lat="47.14779067203541" lon="3.1637555221009994"><ele>315.0</ele><time>2026-04-25T15:31:45.999Z</time></trkpt><trkpt lat="47.147660793427484" lon="3.16375524838851"><ele>315.0</ele><time>2026-04-25T15:31:46.999Z</time></trkpt><trkpt lat="47.14751570569246" lon="3.1637552661125734"><ele>315.0</ele><time>2026-04-25T15:31:47.999Z</time></trkpt><trkpt lat="47.14737520306494" lon="3.1637566937670285"><ele>315.0</ele><time>2026-04-25T15:31:48.999Z</time></trkpt><trkpt lat="47.147249658624865" lon="3.163752742796761"><ele>315.0</ele><time>2026-04-25T15:31:49.999Z</time></trkpt><trkpt lat="47.14713574867021" lon="3.163750344662552"><ele>315.8</ele><time>2026-04-25T15:31:50.999Z</time></trkpt><trkpt lat="47.14701551550554" lon="3.163736893146014"><ele>316.6</ele><time>2026-04-25T15:31:51.999Z</time></trkpt><trkpt lat="47.146934455086466" lon="3.163733293791921"><ele>317.4</ele><time>2026-04-25T15:31:52.999Z</time></trkpt><trkpt lat="47.146825796287516" lon="3.163738785047793"><ele>318.2</ele><time>2026-04-25T15:31:53.999Z</time></trkpt><trkpt lat="47.14668670317569" lon="3.16374083817164"><ele>319.0</ele><time>2026-04-25T15:31:54.999Z</time></trkpt><trkpt lat="47.146565071894585" lon="3.163738236817709"><ele>319.75</ele><time>2026-04-25T15:31:55.999Z</time></trkpt><trkpt lat="47.14645614361963" lon="3.16374841966064"><ele>320.5</ele><time>2026-04-25T15:31:56.999Z</time></trkpt><trkpt lat="47.14633671948794" lon="3.1637515222136194"><ele>321.25</ele><time>2026-04-25T15:31:57.999Z</time></trkpt><trkpt lat="47.146225032198615" lon="3.163755611283403"><ele>322.0</ele><time>2026-04-25T15:31:58.999Z</time></trkpt><trkpt lat="47.146098939864984" lon="3.1637506897194143"><ele>322.0</ele><time>2026-04-25T15:31:59.999Z</time></trkpt><trkpt lat="47.14600468544796" lon="3.163734021934149"><ele>322.0</ele><time>2026-04-25T15:32:00.999Z</time></trkpt><trkpt lat="47.145919645690945" lon="3.1637360005046578"><ele>322.0</ele><time>2026-04-25T15:32:01.999Z</time></trkpt><trkpt lat="47.14583212348191" lon="3.163754640083368"><ele>322.0</ele><time>2026-04-25T15:32:02.999Z</time></trkpt><trkpt lat="47.14573566475704" lon="3.163752055839364"><ele>322.0</ele><time>2026-04-25T15:32:03.999Z</time></trkpt><trkpt lat="47.145631763801035" lon="3.163756582330641"><ele>322.0</ele><time>2026-04-25T15:32:04.999Z</time></trkpt><trkpt lat="47.14549885806203" lon="3.163757256985981"><ele>322.0</ele><time>2026-04-25T15:32:05.999Z</time></trkpt><trkpt lat="47.14538585656327" lon="3.163759565439976"><ele>322.0</ele><time>2026-04-25T15:32:06.999Z</time></trkpt><trkpt lat="47.14530342385617" lon="3.1637575850607313"><ele>322.0</ele><time>2026-04-25T15:32:07.999Z</time></trkpt><trkpt lat="47.145231592216426" lon="3.163748644526772"><ele>322.0</ele><time>2026-04-25T15:32:08.999Z</time></trkpt><trkpt lat="47.14514893407926" lon="3.163766376350806"><ele>322.0</ele><time>2026-04-25T15:32:10.999Z</time></trkpt><trkpt lat="47.14507225764193" lon="3.163778096490091"><ele>322.0</ele><time>2026-04-25T15:32:12.999Z</time></trkpt><trkpt lat="47.14501868709203" lon="3.1638521597075933"><ele>322.0</ele><time>2026-04-25T15:32:14.999Z</time></trkpt><trkpt lat="47.144993623272214" lon="3.163948710464949"><ele>322.0</ele><time>2026-04-25T15:32:15.999Z</time></trkpt><trkpt lat="47.144984085820255" lon="3.1641035425505826"><ele>322.0</ele><time>2026-04-25T15:32:16.999Z</time></trkpt><trkpt lat="47.14492384198822" lon="3.1643004669453694"><ele>322.0</ele><time>2026-04-25T15:32:17.999Z</time></trkpt><trkpt lat="47.144928500296494" lon="3.1645144940433334"><ele>322.0</ele><time>2026-04-25T15:32:18.999Z</time></trkpt><trkpt lat="47.14493366868319" lon="3.1647357009278956"><ele>322.0</ele><time>2026-04-25T15:32:19.999Z</time></trkpt><trkpt lat="47.14493911699109" lon="3.1649688885081693"><ele>322.0</ele><time>2026-04-25T15:32:20.999Z</time></trkpt><trkpt lat="47.144942097734955" lon="3.1651975224011055"><ele>322.0</ele><time>2026-04-25T15:32:21.999Z</time></trkpt><trkpt lat="47.14494500002724" lon="3.1654162337008733"><ele>322.0</ele><time>2026-04-25T15:32:22.999Z</time></trkpt><trkpt lat="47.14494882283778" lon="3.165612934944045"><ele>322.0</ele><time>2026-04-25T15:32:23.999Z</time></trkpt><trkpt lat="47.1449524086433" lon="3.165797440966806"><ele>322.0</ele><time>2026-04-25T15:32:24.999Z</time></trkpt><trkpt lat="47.14495615737716" lon="3.166000058399268"><ele>322.0</ele><time>2026-04-25T15:32:25.999Z</time></trkpt><trkpt lat="47.14497447933084" lon="3.1662252564569733"><ele>322.0</ele><time>2026-04-25T15:32:26.999Z</time></trkpt><trkpt lat="47.14496262473659" lon="3.1664606265630284"><ele>321.66666666666663</ele><time>2026-04-25T15:32:27.999Z</time></trkpt><trkpt lat="47.14496618082252" lon="3.1667138705807614"><ele>321.3333333333333</ele><time>2026-04-25T15:32:28.999Z</time></trkpt><trkpt lat="47.144969838961096" lon="3.1669743823987657"><ele>321.0</ele><time>2026-04-25T15:32:29.999Z</time></trkpt><trkpt lat="47.144973392271645" lon="3.1672274289833857"><ele>320.0</ele><time>2026-04-25T15:32:31Z</time></trkpt><trkpt lat="47.14497662389946" lon="3.167457567305541"><ele>319.0</ele><time>2026-04-25T15:32:32Z</time></trkpt><trkpt lat="47.144980516245596" lon="3.167669775073964"><ele>318.0</ele><time>2026-04-25T15:32:33Z</time></trkpt><trkpt lat="47.1449844078727" lon="3.1678812537958385"><ele>317.0</ele><time>2026-04-25T15:32:34Z</time></trkpt><trkpt lat="47.14498835855202" lon="3.1680959412799035"><ele>315.0</ele><time>2026-04-25T15:32:35Z</time></trkpt><trkpt lat="47.14499256653615" lon="3.16832858675102"><ele>313.0</ele><time>2026-04-25T15:32:36Z</time></trkpt><trkpt lat="47.144996351476046" lon="3.168571769155866"><ele>311.0</ele><time>2026-04-25T15:32:37Z</time></trkpt><trkpt lat="47.14500055708967" lon="3.1688419803373433"><ele>310.33333333333337</ele><time>2026-04-25T15:32:38Z</time></trkpt><trkpt lat="47.14500428421593" lon="3.169065194119899"><ele>309.6666666666667</ele><time>2026-04-25T15:32:39Z</time></trkpt><trkpt lat="47.14500821618668" lon="3.1692876647082437"><ele>309.0</ele><time>2026-04-25T15:32:40Z</time></trkpt><trkpt lat="47.1450121144222" lon="3.1695082262751813"><ele>309.0</ele><time>2026-04-25T15:32:41Z</time></trkpt><trkpt lat="47.145029629588144" lon="3.1696998853962417"><ele>309.0</ele><time>2026-04-25T15:32:42Z</time></trkpt><trkpt lat="47.14503392240928" lon="3.1698747443721373"><ele>309.0</ele><time>2026-04-25T15:32:43Z</time></trkpt><trkpt lat="47.14503126900676" lon="3.1700054161815254"><ele>309.0</ele><time>2026-04-25T15:32:44Z</time></trkpt><trkpt lat="47.14502793765819" lon="3.170203958895925"><ele>308.75</ele><time>2026-04-25T15:32:45Z</time></trkpt><trkpt lat="47.14503974001534" lon="3.1704073926658527"><ele>308.5</ele><time>2026-04-25T15:32:46Z</time></trkpt><trkpt lat="47.14504316659826" lon="3.1706104910696036"><ele>308.25</ele><time>2026-04-25T15:32:47Z</time></trkpt><trkpt lat="47.14504633170252" lon="3.1708040282318857"><ele>308.0</ele><time>2026-04-25T15:32:48Z</time></trkpt><trkpt lat="47.14505053842185" lon="3.171031910007632"><ele>307.0</ele><time>2026-04-25T15:32:49Z</time></trkpt><trkpt lat="47.14503965185024" lon="3.1712929239653302"><ele>306.0</ele><time>2026-04-25T15:32:50Z</time></trkpt><trkpt lat="47.14504428170574" lon="3.17155645717613"><ele>305.0</ele><time>2026-04-25T15:32:51Z</time></trkpt><trkpt lat="47.14504846671663" lon="3.1717946697939916"><ele>303.33333333333337</ele><time>2026-04-25T15:32:52Z</time></trkpt><trkpt lat="47.145052261157595" lon="3.1720106509007198"><ele>301.6666666666667</ele><time>2026-04-25T15:32:53Z</time></trkpt><trkpt lat="47.145055342452196" lon="3.1722446331607497"><ele>300.0</ele><time>2026-04-25T15:32:54Z</time></trkpt><trkpt lat="47.14505826472607" lon="3.1724933453626347"><ele>299.25</ele><time>2026-04-25T15:32:55Z</time></trkpt><trkpt lat="47.145062209433505" lon="3.172734785226499"><ele>298.5</ele><time>2026-04-25T15:32:56Z</time></trkpt><trkpt lat="47.14506567286118" lon="3.172934777050156"><ele>297.75</ele><time>2026-04-25T15:32:57Z</time></trkpt><trkpt lat="47.14506941154491" lon="3.173132822278971"><ele>297.0</ele><time>2026-04-25T15:32:58Z</time></trkpt><trkpt lat="47.145073671512655" lon="3.173347728175303"><ele>296.5</ele><time>2026-04-25T15:32:59Z</time></trkpt><trkpt lat="47.145077892760185" lon="3.1735606807939933"><ele>296.0</ele><time>2026-04-25T15:33:00Z</time></trkpt><trkpt lat="47.145081796019774" lon="3.1737575919142826"><ele>295.5</ele><time>2026-04-25T15:33:01Z</time></trkpt><trkpt lat="47.14508548558736" lon="3.173943722220397"><ele>295.0</ele><time>2026-04-25T15:33:02Z</time></trkpt><trkpt lat="47.14508828582951" lon="3.1741155055812893"><ele>294.0</ele><time>2026-04-25T15:33:03Z</time></trkpt><trkpt lat="47.14509077777197" lon="3.17430350064392"><ele>293.0</ele><time>2026-04-25T15:33:04Z</time></trkpt><trkpt lat="47.1450933007882" lon="3.174493839963102"><ele>292.0</ele><time>2026-04-25T15:33:05Z</time></trkpt><trkpt lat="47.14511170186188" lon="3.1746931747257343"><ele>291.0</ele><time>2026-04-25T15:33:06Z</time></trkpt><trkpt lat="47.14511381186548" lon="3.1748750159475447"><ele>290.40000000000003</ele><time>2026-04-25T15:33:07Z</time></trkpt><trkpt lat="47.145107554190396" lon="3.175040870123133"><ele>289.8</ele><time>2026-04-25T15:33:08Z</time></trkpt><trkpt lat="47.1451179406264" lon="3.175188468406378"><ele>289.20000000000005</ele><time>2026-04-25T15:33:09Z</time></trkpt><trkpt lat="47.14511938820003" lon="3.1753504784730144"><ele>288.6</ele><time>2026-04-25T15:33:10Z</time></trkpt><trkpt lat="47.145106591184934" lon="3.175497605126696"><ele>288.0</ele><time>2026-04-25T15:33:11Z</time></trkpt><trkpt lat="47.145108438972635" lon="3.175637353910498"><ele>287.5</ele><time>2026-04-25T15:33:12Z</time></trkpt><trkpt lat="47.14512411697485" lon="3.175766737892907"><ele>287.0</ele><time>2026-04-25T15:33:13Z</time></trkpt><trkpt lat="47.14512295657091" lon="3.175875989345768"><ele>286.5</ele><time>2026-04-25T15:33:14Z</time></trkpt><trkpt lat="47.14512497496382" lon="3.175970649029946"><ele>286.0</ele><time>2026-04-25T15:33:15Z</time></trkpt><trkpt lat="47.145123664059234" lon="3.1760815566685587"><ele>285.5</ele><time>2026-04-25T15:33:17Z</time></trkpt><trkpt lat="47.14512215197015" lon="3.176176668575962"><ele>285.0</ele><time>2026-04-25T15:33:19Z</time></trkpt><trkpt lat="47.14516109318574" lon="3.176390253044594"><ele>285.0</ele><time>2026-04-25T15:33:21Z</time></trkpt><trkpt lat="47.14517559276567" lon="3.176493561119574"><ele>285.0</ele><time>2026-04-25T15:33:22Z</time></trkpt><trkpt lat="47.14518895740593" lon="3.1765887828326322"><ele>285.0</ele><time>2026-04-25T15:33:23Z</time></trkpt><trkpt lat="47.145144756837176" lon="3.1767141719552714"><ele>285.0</ele><time>2026-04-25T15:33:24Z</time></trkpt><trkpt lat="47.14514023165928" lon="3.1768448220415424"><ele>285.0</ele><time>2026-04-25T15:33:25Z</time></trkpt><trkpt lat="47.14513172146824" lon="3.1769857029725133"><ele>285.0</ele><time>2026-04-25T15:33:26Z</time></trkpt><trkpt lat="47.14512789449907" lon="3.17711759697414"><ele>286.0</ele><time>2026-04-25T15:33:27Z</time></trkpt><trkpt lat="47.14514288551203" lon="3.1773166220072464"><ele>287.0</ele><time>2026-04-25T15:33:28Z</time></trkpt><trkpt lat="47.14515565485124" lon="3.1774729568128426"><ele>288.0</ele><time>2026-04-25T15:33:29Z</time></trkpt><trkpt lat="47.14516344069059" lon="3.1775818440014154"><ele>289.0</ele><time>2026-04-25T15:33:30Z</time></trkpt><trkpt lat="47.1451656827865" lon="3.177766756388776"><ele>290.0</ele><time>2026-04-25T15:33:31.999Z</time></trkpt><trkpt lat="47.145159092298414" lon="3.177898699974917"><ele>292.0</ele><time>2026-04-25T15:33:32.999Z</time></trkpt><trkpt lat="47.145170345612485" lon="3.1780037463277324"><ele>294.0</ele><time>2026-04-25T15:33:33.999Z</time></trkpt><trkpt lat="47.145175191292665" lon="3.1781747161736353"><ele>296.0</ele><time>2026-04-25T15:33:35.999Z</time></trkpt><trkpt lat="47.145165397478834" lon="3.1783300450405636"><ele>298.0</ele><time>2026-04-25T15:33:36.999Z</time></trkpt><trkpt lat="47.14517299204037" lon="3.1784663813539455"><ele>300.0</ele><time>2026-04-25T15:33:37.999Z</time></trkpt><trkpt lat="47.14516574092833" lon="3.178588805542846"><ele>301.2</ele><time>2026-04-25T15:33:38.999Z</time></trkpt><trkpt lat="47.145160517422674" lon="3.1787098121664656"><ele>302.4</ele><time>2026-04-25T15:33:39.999Z</time></trkpt><trkpt lat="47.14516460438155" lon="3.1788379893208605"><ele>303.6</ele><time>2026-04-25T15:33:40.999Z</time></trkpt><trkpt lat="47.14518651446705" lon="3.1790555217783183"><ele>304.8</ele><time>2026-04-25T15:33:41.999Z</time></trkpt><trkpt lat="47.14518505196552" lon="3.179194263046949"><ele>306.0</ele><time>2026-04-25T15:33:42.999Z</time></trkpt><trkpt lat="47.145186977723725" lon="3.179314794406378"><ele>306.0</ele><time>2026-04-25T15:33:43.999Z</time></trkpt><trkpt lat="47.1451871693787" lon="3.179497335771125"><ele>306.0</ele><time>2026-04-25T15:33:45.999Z</time></trkpt><trkpt lat="47.145174465366175" lon="3.179621846450113"><ele>306.0</ele><time>2026-04-25T15:33:46.999Z</time></trkpt><trkpt lat="47.145179884006154" lon="3.1798423546783496"><ele>306.0</ele><time>2026-04-25T15:33:48.999Z</time></trkpt><trkpt lat="47.14519345852291" lon="3.1799453581247366"><ele>306.0</ele><time>2026-04-25T15:33:49.999Z</time></trkpt><trkpt lat="47.14519404597834" lon="3.1801113338167855"><ele>305.8333333333333</ele><time>2026-04-25T15:33:51.999Z</time></trkpt><trkpt lat="47.145197838188686" lon="3.1802089939603513"><ele>305.6666666666667</ele><time>2026-04-25T15:33:52.999Z</time></trkpt><trkpt lat="47.14519189923957" lon="3.1803404723833566"><ele>305.5</ele><time>2026-04-25T15:33:53.999Z</time></trkpt><trkpt lat="47.145166637006646" lon="3.1804570848142313"><ele>305.33333333333337</ele><time>2026-04-25T15:33:54.999Z</time></trkpt><trkpt lat="47.145162004292864" lon="3.180603169546668"><ele>305.1666666666667</ele><time>2026-04-25T15:33:55.999Z</time></trkpt><trkpt lat="47.14516661776371" lon="3.1807016521812486"><ele>305.0</ele><time>2026-04-25T15:33:56.999Z</time></trkpt><trkpt lat="47.14516630790159" lon="3.180844194022125"><ele>304.6</ele><time>2026-04-25T15:33:57.999Z</time></trkpt><trkpt lat="47.14520030827267" lon="3.1809977997388104"><ele>304.2</ele><time>2026-04-25T15:33:58.999Z</time></trkpt><trkpt lat="47.14519880986407" lon="3.181142426147094"><ele>303.8</ele><time>2026-04-25T15:33:59.999Z</time></trkpt><trkpt lat="47.14519676882054" lon="3.1812691548772762"><ele>303.4</ele><time>2026-04-25T15:34:00.999Z</time></trkpt><trkpt lat="47.1451993088373" lon="3.1814148237649866"><ele>303.0</ele><time>2026-04-25T15:34:01.999Z</time></trkpt><trkpt lat="47.14520496049691" lon="3.181547559628978"><ele>303.0</ele><time>2026-04-25T15:34:02.999Z</time></trkpt><trkpt lat="47.145227426577016" lon="3.1816953664041185"><ele>303.0</ele><time>2026-04-25T15:34:03.999Z</time></trkpt><trkpt lat="47.14523444267064" lon="3.18186650506761"><ele>303.0</ele><time>2026-04-25T15:34:04.999Z</time></trkpt><trkpt lat="47.1452664752848" lon="3.1820295907983325"><ele>303.0</ele><time>2026-04-25T15:34:05.999Z</time></trkpt><trkpt lat="47.14527441583717" lon="3.182158230870479"><ele>303.0</ele><time>2026-04-25T15:34:06.999Z</time></trkpt><trkpt lat="47.14527209119101" lon="3.1823025496475497"><ele>302.6666666666667</ele><time>2026-04-25T15:34:07.999Z</time></trkpt><trkpt lat="47.14527274860295" lon="3.182422612113875"><ele>302.3333333333333</ele><time>2026-04-25T15:34:08.999Z</time></trkpt><trkpt lat="47.14527520075175" lon="3.182540471119553"><ele>302.0</ele><time>2026-04-25T15:34:09.999Z</time></trkpt><trkpt lat="47.14528036073809" lon="3.18266257279795"><ele>301.66666666666663</ele><time>2026-04-25T15:34:10.999Z</time></trkpt><trkpt lat="47.14527911239236" lon="3.1827836368722546"><ele>301.3333333333333</ele><time>2026-04-25T15:34:11.999Z</time></trkpt><trkpt lat="47.14528034023782" lon="3.182934848114566"><ele>301.0</ele><time>2026-04-25T15:34:12.999Z</time></trkpt><trkpt lat="47.14528325002307" lon="3.1830747227669427"><ele>300.3333333333333</ele><time>2026-04-25T15:34:13.999Z</time></trkpt><trkpt lat="47.14527857676913" lon="3.1831910557982495"><ele>299.66666666666663</ele><time>2026-04-25T15:34:14.999Z</time></trkpt><trkpt lat="47.14527591482543" lon="3.1833048246352385"><ele>299.0</ele><time>2026-04-25T15:34:15.999Z</time></trkpt><trkpt lat="47.1452776656468" lon="3.183484028306869"><ele>298.3333333333333</ele><time>2026-04-25T15:34:16.999Z</time></trkpt><trkpt lat="47.14527462003542" lon="3.1835946609770565"><ele>297.6666666666667</ele><time>2026-04-25T15:34:17.999Z</time></trkpt><trkpt lat="47.145275418451014" lon="3.1837025444002625"><ele>297.0</ele><time>2026-04-25T15:34:18.999Z</time></trkpt><trkpt lat="47.14526963588936" lon="3.183811197522652"><ele>297.0</ele><time>2026-04-25T15:34:19.999Z</time></trkpt><trkpt lat="47.145277884644635" lon="3.1839581132889148"><ele>297.0</ele><time>2026-04-25T15:34:20.999Z</time></trkpt><trkpt lat="47.14527734974785" lon="3.1840582225732845"><ele>297.0</ele><time>2026-04-25T15:34:21.999Z</time></trkpt><trkpt lat="47.14527028175169" lon="3.184186488579966"><ele>297.0</ele><time>2026-04-25T15:34:22.999Z</time></trkpt><trkpt lat="47.145267083922164" lon="3.184296099533144"><ele>297.0</ele><time>2026-04-25T15:34:23.999Z</time></trkpt><trkpt lat="47.145266245156655" lon="3.184453079334021"><ele>297.0</ele><time>2026-04-25T15:34:24.999Z</time></trkpt><trkpt lat="47.14526559811814" lon="3.1845741762875956"><ele>295.75</ele><time>2026-04-25T15:34:25.999Z</time></trkpt><trkpt lat="47.14526458517379" lon="3.1847637545082588"><ele>294.5</ele><time>2026-04-25T15:34:27.999Z</time></trkpt><trkpt lat="47.145266690515484" lon="3.1849864095290554"><ele>293.25</ele><time>2026-04-25T15:34:29.999Z</time></trkpt><trkpt lat="47.14527162161026" lon="3.1851302789158336"><ele>292.0</ele><time>2026-04-25T15:34:30.999Z</time></trkpt><trkpt lat="47.14527102666874" lon="3.185241626058046"><ele>291.0</ele><time>2026-04-25T15:34:31.999Z</time></trkpt><trkpt lat="47.145270279926955" lon="3.18538138342803"><ele>290.0</ele><time>2026-04-25T15:34:32.999Z</time></trkpt><trkpt lat="47.14526957627977" lon="3.1855130750288425"><ele>289.0</ele><time>2026-04-25T15:34:33.999Z</time></trkpt><trkpt lat="47.14525979751" lon="3.1856597935212743"><ele>288.0</ele><time>2026-04-25T15:34:34.999Z</time></trkpt><trkpt lat="47.145259086999275" lon="3.1857927698442334"><ele>287.0</ele><time>2026-04-25T15:34:35.999Z</time></trkpt><trkpt lat="47.145266478703036" lon="3.185892516472804"><ele>286.0</ele><time>2026-04-25T15:34:37Z</time></trkpt><trkpt lat="47.14525787707526" lon="3.1860405686249775"><ele>284.66666666666663</ele><time>2026-04-25T15:34:38Z</time></trkpt><trkpt lat="47.145257661476826" lon="3.186167616522456"><ele>283.3333333333333</ele><time>2026-04-25T15:34:39Z</time></trkpt><trkpt lat="47.145257425114465" lon="3.186297361715017"><ele>282.0</ele><time>2026-04-25T15:34:40Z</time></trkpt><trkpt lat="47.14525720714474" lon="3.1864170104099525"><ele>280.6666666666667</ele><time>2026-04-25T15:34:41Z</time></trkpt><trkpt lat="47.14526596766913" lon="3.1865336403352047"><ele>279.33333333333337</ele><time>2026-04-25T15:34:42Z</time></trkpt><trkpt lat="47.14525968018933" lon="3.1866378771907318"><ele>278.0</ele><time>2026-04-25T15:34:43Z</time></trkpt><trkpt lat="47.14526540533365" lon="3.186854177997059"><ele>276.6666666666667</ele><time>2026-04-25T15:34:45Z</time></trkpt><trkpt lat="47.14526517781912" lon="3.1869790666071562"><ele>275.33333333333337</ele><time>2026-04-25T15:34:46Z</time></trkpt><trkpt lat="47.14526493183279" lon="3.1871140959578796"><ele>274.0</ele><time>2026-04-25T15:34:47Z</time></trkpt><trkpt lat="47.145264703017766" lon="3.1872396986042455"><ele>272.6666666666667</ele><time>2026-04-25T15:34:48Z</time></trkpt><trkpt lat="47.14526449471175" lon="3.187354043631965"><ele>271.3333333333333</ele><time>2026-04-25T15:34:49Z</time></trkpt><trkpt lat="47.14526430357329" lon="3.187458965495366"><ele>270.0</ele><time>2026-04-25T15:34:50Z</time></trkpt><trkpt lat="47.14526288706113" lon="3.187566457927423"><ele>268.8</ele><time>2026-04-25T15:34:51Z</time></trkpt><trkpt lat="47.145259611480405" lon="3.1876890307081727"><ele>267.6</ele><time>2026-04-25T15:34:52Z</time></trkpt><trkpt lat="47.14525555049963" lon="3.187840993341389"><ele>266.4</ele><time>2026-04-25T15:34:54Z</time></trkpt><trkpt lat="47.14525024678011" lon="3.1880335700087197"><ele>265.2</ele><time>2026-04-25T15:34:56Z</time></trkpt><trkpt lat="47.14524238802423" lon="3.1881383980928213"><ele>264.0</ele><time>2026-04-25T15:34:57Z</time></trkpt><trkpt lat="47.14520374427126" lon="3.1882457731148746"><ele>263.4</ele><time>2026-04-25T15:34:58Z</time></trkpt><trkpt lat="47.14516962367665" lon="3.1883735561721824"><ele>262.79999999999995</ele><time>2026-04-25T15:34:59Z</time></trkpt><trkpt lat="47.14511940847654" lon="3.18851871173556"><ele>262.20000000000005</ele><time>2026-04-25T15:35:00Z</time></trkpt><trkpt lat="47.145073390817764" lon="3.188649595163158"><ele>261.6</ele><time>2026-04-25T15:35:01Z</time></trkpt><trkpt lat="47.145023211451225" lon="3.188780540972563"><ele>261.0</ele><time>2026-04-25T15:35:02Z</time></trkpt><trkpt lat="47.14498135833166" lon="3.1889064809453815"><ele>260.1666666666667</ele><time>2026-04-25T15:35:03Z</time></trkpt><trkpt lat="47.144943936854496" lon="3.189025942249541"><ele>259.3333333333333</ele><time>2026-04-25T15:35:04Z</time></trkpt><trkpt lat="47.14491233834036" lon="3.189115712096235"><ele>258.5</ele><time>2026-04-25T15:35:05Z</time></trkpt><trkpt lat="47.14488006562852" lon="3.1892103766842075"><ele>257.66666666666663</ele><time>2026-04-25T15:35:06Z</time></trkpt><trkpt lat="47.1448334213423" lon="3.1893401255352782"><ele>256.8333333333333</ele><time>2026-04-25T15:35:07Z</time></trkpt><trkpt lat="47.14480024967169" lon="3.1894351018917693"><ele>256.0</ele><time>2026-04-25T15:35:08Z</time></trkpt><trkpt lat="47.14474905572253" lon="3.189547498210822"><ele>255.4</ele><time>2026-04-25T15:35:09Z</time></trkpt><trkpt lat="47.144704106642415" lon="3.1896608290130275"><ele>254.8</ele><time>2026-04-25T15:35:10Z</time></trkpt><trkpt lat="47.14464345092461" lon="3.1898399929596146"><ele>254.20000000000002</ele><time>2026-04-25T15:35:12Z</time></trkpt><trkpt lat="47.14461106166567" lon="3.189921656497819"><ele>253.60000000000002</ele><time>2026-04-25T15:35:13Z</time></trkpt><trkpt lat="47.14457514576524" lon="3.1900122118190604"><ele>253.0</ele><time>2026-04-25T15:35:14Z</time></trkpt><trkpt lat="47.1445161661881" lon="3.190182250313146"><ele>251.66666666666666</ele><time>2026-04-25T15:35:16Z</time></trkpt><trkpt lat="47.14448688280609" lon="3.1903240124100054"><ele>250.33333333333331</ele><time>2026-04-25T15:35:17Z</time></trkpt><trkpt lat="47.14445385964993" lon="3.1904324531092403"><ele>249.0</ele><time>2026-04-25T15:35:18Z</time></trkpt><trkpt lat="47.14442492242102" lon="3.1905562140926524"><ele>247.66666666666669</ele><time>2026-04-25T15:35:19Z</time></trkpt><trkpt lat="47.14439455721185" lon="3.1906860823724608"><ele>246.33333333333334</ele><time>2026-04-25T15:35:20Z</time></trkpt><trkpt lat="47.14437217250504" lon="3.1908006932124513"><ele>245.0</ele><time>2026-04-25T15:35:21Z</time></trkpt><trkpt lat="47.14433744866464" lon="3.1909046752670887"><ele>244.50000000000003</ele><time>2026-04-25T15:35:22Z</time></trkpt><trkpt lat="47.14431327158611" lon="3.1910307179854205"><ele>244.0</ele><time>2026-04-25T15:35:23Z</time></trkpt><trkpt lat="47.14429249396643" lon="3.1911252146001408"><ele>243.5</ele><time>2026-04-25T15:35:24Z</time></trkpt><trkpt lat="47.14427526259531" lon="3.1912315433234935"><ele>243.0</ele><time>2026-04-25T15:35:25Z</time></trkpt><trkpt lat="47.14425456424521" lon="3.191331743063943"><ele>242.50000000000003</ele><time>2026-04-25T15:35:26Z</time></trkpt><trkpt lat="47.14420817996449" lon="3.191471762818327"><ele>242.0</ele><time>2026-04-25T15:35:27Z</time></trkpt><trkpt lat="47.14416289165623" lon="3.1916148237098536"><ele>241.50000000000003</ele><time>2026-04-25T15:35:28Z</time></trkpt><trkpt lat="47.14413486641088" lon="3.1917388046603072"><ele>241.0</ele><time>2026-04-25T15:35:29Z</time></trkpt><trkpt lat="47.144108974887125" lon="3.1918666268715894"><ele>240.5</ele><time>2026-04-25T15:35:30Z</time></trkpt><trkpt lat="47.14406899197986" lon="3.191986546585039"><ele>240.0</ele><time>2026-04-25T15:35:31Z</time></trkpt><trkpt lat="47.14403643684633" lon="3.192071815583682"><ele>239.50000000000003</ele><time>2026-04-25T15:35:32Z</time></trkpt><trkpt lat="47.14400326540806" lon="3.192177107424615"><ele>239.0</ele><time>2026-04-25T15:35:34Z</time></trkpt><trkpt lat="47.14397329710151" lon="3.192298007171717"><ele>237.33333333333334</ele><time>2026-04-25T15:35:37Z</time></trkpt><trkpt lat="47.143953685056644" lon="3.1924724196844965"><ele>235.66666666666669</ele><time>2026-04-25T15:35:39Z</time></trkpt><trkpt lat="47.14398001689972" lon="3.192712379501048"><ele>234.0</ele><time>2026-04-25T15:35:40Z</time></trkpt><trkpt lat="47.143985337721574" lon="3.1930038353387853"><ele>233.79999999999998</ele><time>2026-04-25T15:35:41Z</time></trkpt><trkpt lat="47.144014660989" lon="3.193219038464179"><ele>233.59999999999997</ele><time>2026-04-25T15:35:41.999Z</time></trkpt><trkpt lat="47.144032332737225" lon="3.1933389048608287"><ele>233.4</ele><time>2026-04-25T15:35:42.999Z</time></trkpt><trkpt lat="47.14404294047256" lon="3.193461532186714"><ele>233.2</ele><time>2026-04-25T15:35:43.999Z</time></trkpt><trkpt lat="47.144087626192594" lon="3.1935547615978948"><ele>233.0</ele><time>2026-04-25T15:35:49.999Z</time></trkpt><trkpt lat="47.14415090659027" lon="3.19351515750756"><ele>233.0</ele><time>2026-04-25T15:35:50.999Z</time></trkpt><trkpt lat="47.14421743092287" lon="3.1934588287496584"><ele>233.0</ele><time>2026-04-25T15:35:51.999Z</time></trkpt><trkpt lat="47.14432473390319" lon="3.1933376829036386"><ele>233.0</ele><time>2026-04-25T15:35:52.999Z</time></trkpt><trkpt lat="47.1444296977072" lon="3.1932370359383033"><ele>233.0</ele><time>2026-04-25T15:35:53.999Z</time></trkpt><trkpt lat="47.14451518023876" lon="3.193156788344873"><ele>233.0</ele><time>2026-04-25T15:35:55.999Z</time></trkpt><trkpt lat="47.144418089194474" lon="3.1932787619217833"><ele>233.0</ele><time>2026-04-25T15:36:03.999Z</time></trkpt><trkpt lat="47.14433331776106" lon="3.1933393458938912"><ele>233.0</ele><time>2026-04-25T15:36:04.999Z</time></trkpt><trkpt lat="47.14424868177263" lon="3.1934384960080218"><ele>233.0</ele><time>2026-04-25T15:36:05.999Z</time></trkpt><trkpt lat="47.14414937216105" lon="3.193533456092347"><ele>233.0</ele><time>2026-04-25T15:36:06.999Z</time></trkpt><trkpt lat="47.14403479879217" lon="3.1936148750371545"><ele>233.0</ele><time>2026-04-25T15:36:07.999Z</time></trkpt><trkpt lat="47.14392495981098" lon="3.193727244145912"><ele>232.60000000000002</ele><time>2026-04-25T15:36:08.999Z</time></trkpt><trkpt lat="47.14382580016196" lon="3.1938286878206434"><ele>232.20000000000002</ele><time>2026-04-25T15:36:09.999Z</time></trkpt><trkpt lat="47.14373957250005" lon="3.193925859679692"><ele>231.8</ele><time>2026-04-25T15:36:10.999Z</time></trkpt><trkpt lat="47.143665695024" lon="3.194023241571557"><ele>231.4</ele><time>2026-04-25T15:36:11.999Z</time></trkpt><trkpt lat="47.14360092651472" lon="3.194168891873026"><ele>231.0</ele><time>2026-04-25T15:36:12.999Z</time></trkpt><trkpt lat="47.14352991436206" lon="3.194320925547197"><ele>230.33333333333331</ele><time>2026-04-25T15:36:13.999Z</time></trkpt><trkpt lat="47.14347519633269" lon="3.1945252857994704"><ele>229.66666666666666</ele><time>2026-04-25T15:36:14.999Z</time></trkpt><trkpt lat="47.143424082511196" lon="3.1947596380620134"><ele>229.0</ele><time>2026-04-25T15:36:15.999Z</time></trkpt><trkpt lat="47.14336710886633" lon="3.1950218388016087"><ele>229.0</ele><time>2026-04-25T15:36:16.999Z</time></trkpt><trkpt lat="47.143305543474106" lon="3.195299117592864"><ele>229.0</ele><time>2026-04-25T15:36:17.999Z</time></trkpt><trkpt lat="47.143226604182566" lon="3.195583590526083"><ele>229.0</ele><time>2026-04-25T15:36:18.999Z</time></trkpt><trkpt lat="47.1431667952284" lon="3.1958389868123294"><ele>228.66666666666666</ele><time>2026-04-25T15:36:19.999Z</time></trkpt><trkpt lat="47.143110729486736" lon="3.1960755074654013"><ele>228.33333333333331</ele><time>2026-04-25T15:36:20.999Z</time></trkpt><trkpt lat="47.143051674745294" lon="3.196314567101105"><ele>228.0</ele><time>2026-04-25T15:36:21.999Z</time></trkpt><trkpt lat="47.142988723704576" lon="3.196549966452772"><ele>227.0</ele><time>2026-04-25T15:36:22.999Z</time></trkpt><trkpt lat="47.142929630212976" lon="3.196759634535379"><ele>226.0</ele><time>2026-04-25T15:36:23.999Z</time></trkpt><trkpt lat="47.14288593648192" lon="3.1969756364422106"><ele>225.0</ele><time>2026-04-25T15:36:24.999Z</time></trkpt><trkpt lat="47.1428176442557" lon="3.1971969434496432"><ele>225.0</ele><time>2026-04-25T15:36:25.999Z</time></trkpt><trkpt lat="47.14275261233978" lon="3.197411925413014"><ele>225.0</ele><time>2026-04-25T15:36:26.999Z</time></trkpt><trkpt lat="47.142695915192164" lon="3.1976012622296746"><ele>225.0</ele><time>2026-04-25T15:36:27.999Z</time></trkpt><trkpt lat="47.142644141285054" lon="3.1977732290838614"><ele>225.0</ele><time>2026-04-25T15:36:28.999Z</time></trkpt><trkpt lat="47.14258308369132" lon="3.1979283324360375"><ele>225.0</ele><time>2026-04-25T15:36:29.999Z</time></trkpt><trkpt lat="47.142557240659734" lon="3.1980676511229853"><ele>225.0</ele><time>2026-04-25T15:36:30.999Z</time></trkpt><trkpt lat="47.142511631923334" lon="3.198167932355349"><ele>225.0</ele><time>2026-04-25T15:36:31.999Z</time></trkpt><trkpt lat="47.14249963498205" lon="3.198261793644757"><ele>225.0</ele><time>2026-04-25T15:36:32.999Z</time></trkpt><trkpt lat="47.14244839761802" lon="3.1983657244529162"><ele>225.0</ele><time>2026-04-25T15:36:34.999Z</time></trkpt><trkpt lat="47.142568837257315" lon="3.1985088745292836"><ele>225.0</ele><time>2026-04-25T15:36:35.999Z</time></trkpt><trkpt lat="47.14261371067804" lon="3.198625604719274"><ele>225.0</ele><time>2026-04-25T15:36:36.999Z</time></trkpt><trkpt lat="47.14264280345788" lon="3.1987403018027534"><ele>225.0</ele><time>2026-04-25T15:36:37.999Z</time></trkpt><trkpt lat="47.14266511369712" lon="3.19884725445183"><ele>225.0</ele><time>2026-04-25T15:36:38.999Z</time></trkpt><trkpt lat="47.142689590390006" lon="3.1989656096919887"><ele>225.0</ele><time>2026-04-25T15:36:39.999Z</time></trkpt><trkpt lat="47.14271276394181" lon="3.19908232973639"><ele>225.0</ele><time>2026-04-25T15:36:40.999Z</time></trkpt><trkpt lat="47.14272961857729" lon="3.1991786873731054"><ele>224.4</ele><time>2026-04-25T15:36:41.999Z</time></trkpt><trkpt lat="47.142763352965915" lon="3.1992802166741026"><ele>223.8</ele><time>2026-04-25T15:36:43Z</time></trkpt><trkpt lat="47.142779452732555" lon="3.1993755650416165"><ele>223.2</ele><time>2026-04-25T15:36:44Z</time></trkpt><trkpt lat="47.14281268457624" lon="3.199551304305823"><ele>222.6</ele><time>2026-04-25T15:36:46Z</time></trkpt><trkpt lat="47.14283520003371" lon="3.199656242538475"><ele>222.0</ele><time>2026-04-25T15:36:47Z</time></trkpt><trkpt lat="47.14287045487616" lon="3.1998274989851603"><ele>222.0</ele><time>2026-04-25T15:36:49Z</time></trkpt><trkpt lat="47.142929035009374" lon="3.2000165285168283"><ele>222.0</ele><time>2026-04-25T15:36:51Z</time></trkpt><trkpt lat="47.14296950542539" lon="3.2001069777829865"><ele>222.0</ele><time>2026-04-25T15:36:52Z</time></trkpt><trkpt lat="47.14304008556435" lon="3.2001776159415583"><ele>222.0</ele><time>2026-04-25T15:36:54Z</time></trkpt><trkpt lat="47.143119800249735" lon="3.200297752161913"><ele>222.0</ele><time>2026-04-25T15:36:56Z</time></trkpt><trkpt lat="47.143208601300024" lon="3.2004433240312835"><ele>222.0</ele><time>2026-04-25T15:36:58Z</time></trkpt><trkpt lat="47.143267428744835" lon="3.2005476277081772"><ele>222.0</ele><time>2026-04-25T15:36:59Z</time></trkpt><trkpt lat="47.143359161370235" lon="3.200648923681587"><ele>222.0</ele><time>2026-04-25T15:37:00Z</time></trkpt><trkpt lat="47.1434370745732" lon="3.200789990228333"><ele>222.0</ele><time>2026-04-25T15:37:01Z</time></trkpt><trkpt lat="47.14351818167222" lon="3.2009580642555204"><ele>222.0</ele><time>2026-04-25T15:37:02Z</time></trkpt><trkpt lat="47.14360600252369" lon="3.201141470751005"><ele>222.0</ele><time>2026-04-25T15:37:03Z</time></trkpt><trkpt lat="47.143696169193525" lon="3.2013373506859617"><ele>222.0</ele><time>2026-04-25T15:37:04Z</time></trkpt><trkpt lat="47.14376395291898" lon="3.201500415852793"><ele>222.0</ele><time>2026-04-25T15:37:05Z</time></trkpt><trkpt lat="47.14381909514152" lon="3.2016605357225663"><ele>221.25</ele><time>2026-04-25T15:37:06Z</time></trkpt><trkpt lat="47.14385200515037" lon="3.201834298729219"><ele>220.5</ele><time>2026-04-25T15:37:07Z</time></trkpt><trkpt lat="47.14387582060673" lon="3.202034572802829"><ele>219.75</ele><time>2026-04-25T15:37:08Z</time></trkpt><trkpt lat="47.14390876652397" lon="3.20222114696117"><ele>219.0</ele><time>2026-04-25T15:37:09Z</time></trkpt><trkpt lat="47.1439556047665" lon="3.202387689984878"><ele>217.5</ele><time>2026-04-25T15:37:10Z</time></trkpt><trkpt lat="47.14401615873441" lon="3.202538553791161"><ele>216.0</ele><time>2026-04-25T15:37:11Z</time></trkpt><trkpt lat="47.14406915738907" lon="3.202668048965116"><ele>214.5</ele><time>2026-04-25T15:37:12Z</time></trkpt><trkpt lat="47.14415327176028" lon="3.2028058045826233"><ele>213.0</ele><time>2026-04-25T15:37:13Z</time></trkpt><trkpt lat="47.14422956719675" lon="3.202948182685336"><ele>213.0</ele><time>2026-04-25T15:37:14Z</time></trkpt><trkpt lat="47.14428691396571" lon="3.203074046170178"><ele>213.0</ele><time>2026-04-25T15:37:15Z</time></trkpt><trkpt lat="47.144326215736264" lon="3.2031901144404333"><ele>213.0</ele><time>2026-04-25T15:37:16Z</time></trkpt><trkpt lat="47.14434335140901" lon="3.203295591568558"><ele>213.0</ele><time>2026-04-25T15:37:17Z</time></trkpt><trkpt lat="47.14435048654133" lon="3.2033932236122964"><ele>213.0</ele><time>2026-04-25T15:37:18Z</time></trkpt><trkpt lat="47.1443565375745" lon="3.2035226688281346"><ele>213.0</ele><time>2026-04-25T15:37:20Z</time></trkpt><trkpt lat="47.144393042421804" lon="3.203611375655739"><ele>212.16666666666666</ele><time>2026-04-25T15:37:31Z</time></trkpt><trkpt lat="47.14438602382942" lon="3.2034831848876095"><ele>211.33333333333331</ele><time>2026-04-25T15:37:40Z</time></trkpt><trkpt lat="47.14441266126025" lon="3.203392258090206"><ele>210.5</ele><time>2026-04-25T15:37:59.999Z</time></trkpt><trkpt lat="47.144416272447046" lon="3.2035357624785306"><ele>209.66666666666666</ele><time>2026-04-25T15:38:04.999Z</time></trkpt><trkpt lat="47.14441237516523" lon="3.2034269022405413"><ele>208.83333333333331</ele><time>2026-04-25T15:38:07.999Z</time></trkpt><trkpt lat="47.144385449741414" lon="3.2033346274277257"><ele>208.0</ele><time>2026-04-25T15:38:14.999Z</time></trkpt><trkpt lat="47.14435229236107" lon="3.2034221690323665"><ele>208.0</ele><time>2026-04-25T15:38:20.999Z</time></trkpt><trkpt lat="47.1443519566478" lon="3.2035187946785966"><ele>208.0</ele><time>2026-04-25T15:38:25.999Z</time></trkpt><trkpt lat="47.14437665665942" lon="3.2036105257350425"><ele>208.0</ele><time>2026-04-25T15:38:30.999Z</time></trkpt></trkseg></trk></gpx>